[[{"header":{"parameterUnit":"m.s-1","parameterCategory":1,"la1":30.6,"la2":29.2853,"lo1":-89.7004,"lo2":-87.6739,"dy":0.0162,"dx":0.0183,"nx":112,"ny":82,"refTime":"2024-06-29T18:00:00:Z","depth":0,"parameterNumber":2,"parameterNumberName":"U-component_of_WINDS"},"data":[0.0,0.0,0.0,0.0,0.0,0.0,0.0,0.0,0.0,0.0,0.0,0.0,0.0,0.0,0.0,0.0,0.0,0.0,0.0,0.0,0.0,0.0,0.0,0.0,0.0,0.0,0.0,0.0,0.0,0.0,0.0,0.0,0.0,0.0,0.0,0.0,0.0,0.0,0.0,0.0,0.0,0.0,0.0,0.0,0.0,0.0,0.0,0.0,0.0,0.0,0.0,0.0,0.0,0.0,0.0,0.0,0.0,0.0,0.0,0.0,0.0,0.0,0.0,0.0,0.0,0.0,0.0,0.0,0.0,0.0,0.0,0.0,0.0,0.0,0.0,0.0,0.0,0.0,0.0,0.0,0.0,0.0,0.0,0.0,0.0,0.0,0.0,0.0,0.0,0.0,0.0,-2.16,-2.3947,-2.5303,-2.5303,-2.4447,-2.287,-2.043,0.0,0.0,0.0,0.0,0.0,0.0,0.0,0.0,0.0,0.0,0.0,0.0,0.0,0.0,0.0,0.0,0.0,0.0,0.0,0.0,0.0,0.0,0.0,0.0,0.0,0.0,0.0,0.0,0.0,0.0,0.0,0.0,0.0,0.0,0.0,0.0,0.0,0.0,0.0,0.0,0.0,0.0,0.0,0.0,0.0,0.0,0.0,0.0,0.0,0.0,0.0,0.0,0.0,0.0,0.0,0.0,0.0,0.0,0.0,0.0,0.0,0.0,0.0,0.0,0.0,0.0,0.0,0.0,0.0,0.0,0.0,0.0,0.0,0.0,0.0,0.0,0.0,0.0,0.0,0.0,0.0,0.0,0.0,0.0,0.0,0.0,0.0,0.0,0.0,0.0,0.0,0.0,0.0,0.0,0.0,0.0,0.0,0.0,0.0,0.0,0.0,0.0,0.0,0.0,-1.9242,-2.3283,-2.4659,-2.5303,-2.5303,-2.3889,-2.2171,-2.0249,0.0,0.0,0.0,0.0,0.0,0.0,0.0,0.0,0.0,0.0,0.0,0.0,0.0,0.0,0.0,0.0,0.0,0.0,0.0,0.0,0.0,0.0,0.0,0.0,0.0,0.0,0.0,0.0,0.0,0.0,0.0,0.0,0.0,0.0,0.0,0.0,0.0,0.0,0.0,0.0,0.0,0.0,0.0,0.0,0.0,0.0,0.0,0.0,0.0,0.0,0.0,0.0,0.0,0.0,0.0,0.0,0.0,0.0,0.0,0.0,0.0,0.0,0.0,0.0,0.0,0.0,0.0,0.0,0.0,0.0,0.0,0.0,0.0,0.0,0.0,0.0,0.0,0.0,0.0,0.0,0.0,0.0,0.0,0.0,0.0,0.0,0.0,0.0,0.0,0.0,0.0,0.0,0.0,0.0,0.0,0.0,0.0,0.0,0.0,0.0,0.0,0.0,0.0,-1.8677,-2.0828,-2.3793,-2.4812,-2.512,-2.4697,-2.3505,-2.1835,-1.9534,-1.7106,0.0,0.0,0.0,0.0,0.0,0.0,0.0,0.0,0.0,0.0,0.0,0.0,0.0,0.0,0.0,0.0,0.0,0.0,0.0,0.0,0.0,0.0,0.0,0.0,0.0,0.0,0.0,0.0,0.0,0.0,0.0,0.0,0.0,0.0,0.0,0.0,0.0,0.0,0.0,0.0,0.0,0.0,0.0,0.0,0.0,0.0,0.0,0.0,0.0,0.0,0.0,0.0,0.0,0.0,0.0,0.0,0.0,0.0,0.0,0.0,0.0,0.0,0.0,0.0,0.0,0.0,0.0,0.0,0.0,0.0,0.0,0.0,0.0,0.0,0.0,0.0,0.0,0.0,0.0,0.0,0.0,0.0,0.0,0.0,0.0,0.0,0.0,0.0,0.0,0.0,0.0,0.0,0.0,0.0,0.0,0.0,0.0,0.0,0.0,0.0,0.0,0.0,-2.0871,-2.2249,-2.3783,-2.4683,-2.4856,-2.4042,-2.2834,-2.113,-1.884,-1.6021,0.0,0.0,0.0,0.0,0.0,0.0,0.0,0.0,0.0,0.0,0.0,0.0,0.0,0.0,0.0,0.0,0.0,0.0,0.0,0.0,0.0,0.0,0.0,0.0,0.0,0.0,0.0,0.0,0.0,0.0,0.0,0.0,0.0,0.0,0.0,0.0,0.0,0.0,0.0,0.0,0.0,0.0,0.0,0.0,0.0,0.0,0.0,0.0,0.0,0.0,0.0,0.0,0.0,0.0,0.0,0.0,0.0,0.0,0.0,0.0,0.0,0.0,0.0,0.0,0.0,0.0,0.0,0.0,0.0,0.0,0.0,0.0,0.0,0.0,0.0,0.0,0.0,0.0,0.0,0.0,0.0,0.0,0.0,0.0,0.0,0.0,0.0,0.0,0.0,0.0,0.0,0.0,0.0,0.0,0.0,0.0,0.0,0.0,0.0,0.0,0.0,0.0,-2.0883,-2.2711,-2.346,-2.4317,-2.4487,-2.3617,-2.1429,-1.9617,-1.8488,-1.471,0.0,0.0,0.0,0.0,0.0,0.0,0.0,0.0,0.0,0.0,0.0,0.0,0.0,0.0,0.0,0.0,0.0,0.0,0.0,0.0,0.0,0.0,0.0,0.0,0.0,0.0,0.0,0.0,0.0,0.0,0.0,0.0,0.0,0.0,0.0,0.0,0.0,0.0,0.0,0.0,0.0,0.0,0.0,0.0,0.0,0.0,0.0,0.0,0.0,0.0,0.0,0.0,0.0,0.0,0.0,0.0,0.0,0.0,0.0,0.0,0.0,0.0,0.0,0.0,0.0,0.0,0.0,0.0,0.0,0.0,0.0,0.0,0.0,0.0,0.0,0.0,0.0,0.0,0.0,0.0,0.0,0.0,0.0,0.0,0.0,0.0,0.0,0.0,0.0,0.0,0.0,0.0,0.0,0.0,0.0,0.0,0.0,0.0,0.0,0.0,0.0,0.0,-1.9129,-2.1023,0.0,-2.2741,-2.2911,-2.2073,-2.1166,-1.9552,-1.7001,0.0,0.0,0.0,0.0,0.0,0.0,0.0,0.0,0.0,0.0,0.0,0.0,0.0,0.0,0.0,0.0,0.0,0.0,0.0,0.0,0.0,0.0,0.0,0.0,0.0,0.0,0.0,0.0,0.0,0.0,0.0,0.0,0.0,0.0,0.0,0.0,0.0,0.0,0.0,0.0,0.0,0.0,0.0,0.0,0.0,0.0,0.0,0.0,0.0,0.0,0.0,0.0,0.0,0.0,0.0,0.0,0.0,0.0,0.0,0.0,0.0,0.0,0.0,0.0,0.0,0.0,0.0,0.0,0.0,0.0,0.0,0.0,0.0,0.0,0.0,0.0,0.0,0.0,0.0,0.0,0.0,0.0,0.0,0.0,0.0,0.0,0.0,0.0,0.0,0.0,0.0,0.0,0.0,0.0,0.0,0.0,0.0,0.0,0.0,0.0,0.0,0.0,-1.5659,-1.8255,-2.0209,0.0,-2.1657,-2.1807,-2.0969,-2.0214,-1.864,-1.6005,0.0,0.0,0.0,0.0,0.0,0.0,0.0,0.0,0.0,0.0,0.0,0.0,0.0,0.0,0.0,0.0,0.0,0.0,0.0,0.0,0.0,0.0,0.0,0.0,0.0,0.0,0.0,0.0,0.0,0.0,0.0,0.0,0.0,0.0,0.0,0.0,0.0,0.0,0.0,0.0,0.0,0.0,0.0,0.0,0.0,0.0,0.0,0.0,0.0,0.0,0.0,0.0,0.0,0.0,0.0,0.0,0.0,0.0,0.0,0.0,0.0,0.0,0.0,0.0,0.0,0.0,0.0,0.0,0.0,0.0,0.0,0.0,0.0,0.0,0.0,0.0,0.0,0.0,0.0,0.0,0.0,0.0,0.0,0.0,0.0,0.0,0.0,0.0,0.0,0.0,0.0,0.0,0.0,0.0,0.0,0.0,0.0,0.0,0.0,0.0,0.0,0.0,-1.5588,-1.867,-2.0719,-2.0517,-2.1253,-2.1418,-2.0558,-1.8284,-1.656,0.0,0.0,0.0,0.0,0.0,0.0,0.0,0.0,0.0,0.0,0.0,0.0,0.0,0.0,0.0,0.0,0.0,0.0,0.0,0.0,0.0,0.0,0.0,0.0,0.0,0.0,0.0,0.0,0.0,0.0,0.0,0.0,0.0,0.0,0.0,0.0,0.0,0.0,0.0,0.0,0.0,0.0,0.0,0.0,0.0,0.0,0.0,0.0,0.0,0.0,0.0,0.0,0.0,0.0,0.0,0.0,0.0,0.0,0.0,0.0,0.0,0.0,0.0,0.0,0.0,0.0,0.0,0.0,0.0,0.0,0.0,0.0,0.0,0.0,0.0,0.0,0.0,0.0,0.0,0.0,0.0,0.0,0.0,0.0,0.0,0.0,0.0,0.0,0.0,0.0,0.0,0.0,0.0,0.0,0.0,0.0,0.0,0.0,0.0,0.0,0.0,0.0,0.0,-1.4829,-1.7711,-1.9733,-1.9672,-1.9877,-1.9932,-1.9675,-1.8482,-1.6922,-1.4976,0.0,0.0,0.0,0.0,0.0,0.0,0.0,0.0,0.0,0.0,0.0,0.0,0.0,0.0,0.0,0.0,0.0,0.0,0.0,0.0,0.0,0.0,0.0,0.0,0.0,0.0,0.0,0.0,0.0,0.0,0.0,0.0,0.0,0.0,0.0,0.0,0.0,0.0,0.0,0.0,0.0,0.0,0.0,0.0,0.0,0.0,0.0,0.0,0.0,0.0,0.0,0.0,0.0,0.0,0.0,0.0,0.0,0.0,0.0,0.0,0.0,0.0,0.0,0.0,0.0,0.0,0.0,0.0,0.0,0.0,0.0,0.0,0.0,0.0,0.0,0.0,0.0,0.0,0.0,0.0,0.0,0.0,0.0,0.0,0.0,0.0,0.0,0.0,0.0,0.0,0.0,0.0,0.0,0.0,0.0,0.0,0.0,0.0,0.0,0.0,0.0,0.0,-1.4441,-1.7554,-1.9656,-1.9326,-1.9583,-1.9656,-1.9341,-1.8555,-1.7215,-1.5105,0.0,0.0,0.0,0.0,0.0,0.0,0.0,0.0,0.0,0.0,0.0,0.0,0.0,0.0,0.0,0.0,0.0,0.0,0.0,0.0,0.0,0.0,0.0,0.0,0.0,0.0,0.0,0.0,0.0,0.0,0.0,0.0,0.0,0.0,0.0,0.0,0.0,0.0,0.0,0.0,0.0,0.0,0.0,0.0,0.0,0.0,0.0,0.0,0.0,0.0,0.0,0.0,0.0,0.0,0.0,0.0,0.0,0.0,0.0,0.0,0.0,0.0,0.0,0.0,0.0,0.0,0.0,0.0,0.0,0.0,0.0,0.0,0.0,0.0,0.0,0.0,0.0,0.0,0.0,0.0,0.0,0.0,0.0,0.0,0.0,0.0,0.0,0.0,0.0,0.0,0.0,0.0,0.0,0.0,0.0,0.0,0.0,0.0,0.0,0.0,0.0,0.0,-1.4538,-1.8023,-2.0262,-1.9601,-2.0115,-2.0207,-1.9473,-1.861,-1.7417,-1.5802,0.0,0.0,0.0,0.0,0.0,0.0,0.0,0.0,0.0,0.0,0.0,0.0,0.0,0.0,0.0,0.0,0.0,0.0,0.0,0.0,0.0,0.0,0.0,0.0,0.0,0.0,0.0,0.0,0.0,0.0,0.0,0.0,0.0,0.0,0.0,0.0,0.0,0.0,0.0,0.0,0.0,0.0,0.0,0.0,0.0,0.0,0.0,0.0,0.0,0.0,0.0,0.0,0.0,0.0,0.0,0.0,0.0,0.0,0.0,0.0,-1.4946,0.0,0.0,0.0,0.0,0.0,0.0,0.0,0.0,0.0,0.0,0.0,0.0,0.0,0.0,0.0,0.0,0.0,0.0,0.0,0.0,0.0,0.0,0.0,0.0,0.0,0.0,0.0,0.0,0.0,0.0,0.0,0.0,0.0,0.0,0.0,0.0,0.0,0.0,0.0,0.0,0.0,-1.6172,-1.8782,-2.0703,-2.1215,-2.0813,-2.0429,-2.0262,-1.8941,-1.7417,-1.5802,0.0,0.0,0.0,0.0,0.0,0.0,0.0,0.0,0.0,0.0,0.0,0.0,0.0,0.0,0.0,0.0,0.0,0.0,0.0,0.0,0.0,0.0,0.0,0.0,0.0,0.0,0.0,0.0,0.0,0.0,0.0,0.0,0.0,0.0,0.0,0.0,0.0,0.0,0.0,0.0,0.0,0.0,0.0,0.0,0.0,0.0,0.0,0.0,0.0,0.0,0.0,0.0,0.0,0.0,0.0,0.0,0.0,0.0,0.0,0.0,0.0,-1.658,0.0,0.0,0.0,0.0,0.0,0.0,0.0,0.0,0.0,0.0,0.0,0.0,0.0,0.0,0.0,0.0,0.0,0.0,0.0,0.0,0.0,0.0,0.0,0.0,0.0,0.0,0.0,0.0,0.0,0.0,0.0,0.0,0.0,0.0,0.0,0.0,0.0,0.0,0.0,0.0,-1.6457,-1.9285,-2.129,-2.1766,-2.1382,-2.096,-2.0539,-1.9381,-1.8151,-1.6922,-1.566,0.0,0.0,0.0,0.0,0.0,0.0,0.0,0.0,0.0,0.0,0.0,0.0,0.0,0.0,0.0,0.0,0.0,0.0,0.0,0.0,0.0,0.0,0.0,0.0,0.0,0.0,0.0,0.0,0.0,0.0,0.0,0.0,0.0,0.0,0.0,0.0,0.0,0.0,0.0,0.0,0.0,0.0,0.0,0.0,0.0,0.0,0.0,0.0,0.0,0.0,0.0,0.0,0.0,0.0,-2.1593,-2.2153,-2.1498,-2.154,-2.21,-2.0708,-2.0253,-2.0341,0.0,0.0,0.0,0.0,0.0,0.0,0.0,0.0,0.0,0.0,0.0,0.0,0.0,0.0,0.0,0.0,0.0,0.0,0.0,0.0,0.0,0.0,0.0,0.0,0.0,-1.9852,-1.8994,0.0,0.0,0.0,0.0,0.0,0.0,0.0,0.0,0.0,0.0,0.0,0.0,-1.6897,-1.9984,-2.2061,-2.2207,-2.2079,-2.1657,-2.0813,-1.9987,-1.9106,-1.817,-1.6748,-1.5572,0.0,0.0,0.0,0.0,0.0,0.0,0.0,0.0,0.0,0.0,0.0,0.0,0.0,0.0,0.0,0.0,0.0,0.0,0.0,0.0,0.0,0.0,0.0,0.0,0.0,0.0,0.0,0.0,0.0,0.0,0.0,0.0,-1.1583,-1.2528,0.0,0.0,0.0,0.0,0.0,0.0,0.0,0.0,0.0,0.0,0.0,0.0,0.0,0.0,-2.2754,-2.3403,-2.3766,-2.3884,-2.4516,-2.4849,-2.4868,-2.4784,-2.4748,-2.4784,-2.4572,0.0,-2.1251,-2.0215,0.0,0.0,0.0,0.0,0.0,0.0,0.0,0.0,0.0,0.0,0.0,0.0,0.0,0.0,0.0,0.0,0.0,0.0,0.0,0.0,0.0,0.0,-2.1377,-2.1454,-2.1489,-2.114,0.0,-1.7436,-1.5233,-1.4213,0.0,0.0,0.0,0.0,0.0,0.0,0.0,0.0,-1.9616,-2.1641,-2.3107,-2.3804,-2.3254,-2.252,-2.1694,-2.0849,-1.9696,-1.8188,-1.788,-1.7032,-1.5436,-1.4367,0.0,0.0,0.0,0.0,0.0,0.0,0.0,0.0,0.0,0.0,0.0,0.0,0.0,0.0,0.0,0.0,0.0,0.0,0.0,0.0,0.0,0.0,0.0,0.0,0.0,0.0,0.0,0.0,0.0,-1.2061,-1.3075,-1.3476,-1.3624,-1.3514,0.0,0.0,0.0,0.0,0.0,0.0,0.0,0.0,0.0,-2.2491,-2.2948,-2.3572,-2.4432,-2.4778,-2.4899,-2.4872,-2.5253,-2.5401,-2.5337,-2.5348,-2.534,-2.5303,-2.5303,-2.4668,-2.3543,-2.2235,-2.0915,-1.9611,0.0,0.0,0.0,0.0,0.0,-1.9235,-2.0266,-2.0573,0.0,0.0,0.0,0.0,0.0,0.0,0.0,0.0,0.0,0.0,0.0,0.0,0.0,-2.3033,-2.3144,-2.2923,-2.2097,-2.0813,-1.9161,0.0,-1.6099,-1.5335,-1.3974,0.0,0.0,0.0,0.0,0.0,-2.0113,-2.1934,-2.3309,-2.4116,-2.3492,-2.2666,-2.1876,-2.0996,-1.9959,-1.8697,-1.8279,-1.7694,-1.6772,-1.5171,-1.3901,0.0,0.0,0.0,0.0,0.0,0.0,0.0,0.0,0.0,0.0,0.0,0.0,0.0,0.0,0.0,0.0,0.0,0.0,0.0,0.0,0.0,0.0,0.0,0.0,0.0,0.0,0.0,0.0,-1.312,-1.4188,-1.4406,-1.5192,-1.539,0.0,0.0,0.0,0.0,0.0,0.0,-1.9236,-2.0412,-2.1885,-2.367,-2.4224,-2.4932,-2.5793,-2.5582,-2.5538,-2.5708,-2.5716,-2.5674,-2.563,-2.587,-2.5851,-2.563,-2.563,-2.5514,-2.5187,-2.3735,-2.269,-2.1933,-2.1063,-2.065,-2.0558,-2.1073,-2.1344,-2.1614,-2.2914,-2.33,-2.3036,-2.2012,0.0,-2.0567,-1.7964,0.0,0.0,0.0,0.0,-2.1134,-2.1735,0.0,-2.3456,-2.4061,-2.419,-2.4043,-2.3437,-2.3162,-2.2226,0.0,-1.8574,-1.7668,-1.6101,0.0,0.0,0.0,0.0,-1.9352,-2.0806,-2.2356,-2.3547,-2.4135,-2.3657,-2.2905,-2.1894,-2.1216,-2.031,-1.9073,-1.8635,-1.8301,-1.8028,-1.6059,-1.4859,-1.4616,0.0,0.0,0.0,0.0,0.0,0.0,0.0,0.0,0.0,0.0,0.0,0.0,0.0,0.0,0.0,0.0,0.0,0.0,0.0,0.0,0.0,0.0,0.0,0.0,0.0,0.0,0.0,0.0,0.0,-1.5238,-1.6099,0.0,0.0,0.0,0.0,-1.7793,-1.9363,-2.1045,-2.2749,-2.2859,-2.365,-2.5338,-2.535,-2.5762,-2.6626,-2.5753,-2.5726,-2.6534,-2.6534,-2.6544,-2.6563,-2.739,-2.7313,-2.6524,-2.6524,-2.6063,-2.5226,-2.437,-2.389,-2.3602,-2.28,-2.235,-2.2212,-2.2437,-2.2791,-2.3185,-2.3408,-2.3281,-2.3144,-2.3805,-2.2997,-2.1675,-2.1316,-2.0786,0.0,0.0,-2.1425,-2.2868,-2.2905,-2.3547,-2.4153,-2.419,-2.419,-2.419,-2.4153,-2.3547,-2.274,0.0,-2.1582,-2.1219,-2.0189,0.0,-1.9991,-1.9974,-2.0753,-2.168,-2.2722,-2.3621,-2.4153,-2.419,-2.4153,-2.3492,-2.1931,-2.1766,-2.0948,-1.9109,-1.9162,-1.9141,-1.8947,-1.7545,-1.6342,-1.5465,-1.363,0.0,0.0,0.0,0.0,0.0,0.0,0.0,0.0,0.0,0.0,0.0,0.0,0.0,0.0,0.0,0.0,0.0,0.0,0.0,0.0,0.0,0.0,0.0,0.0,0.0,0.0,0.0,0.0,-1.6914,-1.8314,0.0,0.0,-1.9492,-2.0508,-2.0508,-2.1984,-2.3166,-2.384,-2.4257,-2.4764,-2.5421,-2.5957,-2.6381,-2.6711,-2.6362,-2.6365,-2.6663,-2.6632,-2.6601,-2.664,-2.7505,-2.7409,-2.6601,-2.6601,-2.612,-2.5284,-2.4986,-2.4822,-2.4724,-2.4312,-2.411,-2.4018,-2.387,-2.3914,-2.4066,-2.3982,-2.386,-2.3823,-2.4116,-2.3456,-2.2557,-2.2484,-2.2301,-2.2098,-2.2045,-2.2887,-2.3768,-2.3768,-2.3988,-2.419,-2.419,-2.419,-2.419,-2.419,-2.3969,-2.3694,-2.34,-2.2501,-2.1694,-2.1331,-2.1276,-2.1058,-2.0509,-2.1588,-2.2575,-2.2942,-2.3694,-2.419,-2.419,-2.419,-2.3547,-2.195,-2.1643,-2.0735,-1.886,-1.8359,-1.8089,-1.7968,-1.6673,-1.5778,-1.5429,-1.3694,-1.2212,0.0,0.0,0.0,0.0,0.0,0.0,0.0,0.0,0.0,0.0,0.0,0.0,0.0,0.0,0.0,0.0,0.0,0.0,0.0,0.0,0.0,0.0,0.0,0.0,0.0,0.0,-1.7735,-1.828,-2.0192,-2.1133,-2.0254,-2.1738,-2.2734,-2.2734,-2.3926,-2.4665,-2.47,-2.5081,-2.533,-2.5406,-2.5955,-2.6415,-2.6734,-2.6415,-2.6401,-2.6699,-2.694,-2.7044,-2.7082,-2.8217,-2.8275,-2.7428,-2.7159,-2.6544,-2.5717,-2.5418,-2.5303,-2.5274,-2.5088,-2.4974,-2.4917,-2.4682,-2.4561,-2.4461,-2.4266,-2.419,-2.419,-2.419,-2.3841,-2.34,-2.34,-2.34,-2.34,-2.34,-2.3786,-2.419,-2.419,-2.419,-2.419,-2.419,-2.419,-2.419,-2.419,-2.419,-2.419,-2.419,-2.3327,-2.2593,-2.2593,-2.2593,-2.2409,-2.184,-2.2703,-2.3363,-2.3249,-2.3802,-2.4151,-2.4036,-2.4113,-2.351,-2.1807,-2.1516,-2.0566,-1.8594,-1.8089,-1.7807,-1.7677,-1.6403,-1.5702,-1.5702,-1.3995,-1.2882,-1.2439,0.0,0.0,0.0,0.0,0.0,0.0,0.0,0.0,0.0,0.0,0.0,0.0,0.0,0.0,0.0,0.0,0.0,0.0,0.0,0.0,0.0,0.0,0.0,-1.5637,-1.766,-1.9294,-1.9314,-2.1637,-2.291,-2.2051,-2.3477,-2.4434,-2.4434,-2.5099,-2.5513,-2.5547,-2.5426,-2.5388,-2.5476,-2.5503,-2.5952,-2.684,-2.5932,-2.5909,-2.6753,-2.7528,-2.7909,-2.7986,-2.966,-2.9929,-2.9063,-2.8255,-2.7409,-2.6524,-2.5649,-2.5303,-2.5274,-2.5077,-2.4917,-2.4804,-2.479,-2.4654,-2.4461,-2.4284,-2.419,-2.419,-2.419,-2.419,-2.419,-2.419,-2.419,-2.419,-2.419,-2.419,-2.419,-2.419,-2.419,-2.419,-2.419,-2.419,-2.419,-2.419,-2.419,-2.419,-2.419,-2.419,-2.419,-2.419,-2.419,-2.419,-2.419,-2.419,0.0,-2.3735,-2.3958,-2.4036,-2.3714,-2.3958,-2.3434,-2.1567,-2.1385,-2.0471,-1.8367,-1.843,-1.8434,-1.8173,-1.6958,-1.6286,-1.6286,-1.4597,-1.3988,-1.4494,0.0,0.0,0.0,0.0,0.0,0.0,0.0,0.0,0.0,0.0,0.0,0.0,0.0,0.0,0.0,0.0,0.0,0.0,0.0,0.0,0.0,0.0,-1.9203,-1.812,-1.9726,-2.125,-2.1889,-2.3212,-2.3984,-2.373,-2.4707,-2.5332,-2.5332,-2.5492,-2.5823,-2.6417,-2.6409,-2.6663,-2.7272,-2.7984,-2.8193,-2.7813,-2.7513,-2.7471,-2.7731,-2.7845,-2.8198,-2.8813,-2.991,-2.9929,-2.9063,-2.8255,-2.7409,-2.6524,-2.5649,-2.5214,-2.5077,-2.4904,-2.4828,-2.476,-2.4478,-2.4339,-2.4266,-2.4209,-2.419,-2.419,-2.419,-2.419,-2.419,-2.419,-2.419,-2.419,-2.419,-2.419,-2.419,-2.419,-2.419,-2.419,-2.419,-2.419,-2.419,-2.419,-2.419,-2.419,-2.419,-2.419,-2.419,-2.419,-2.419,-2.419,-2.419,-2.3996,0.0,-2.3714,-2.3566,-2.3437,-2.3346,-2.3414,-2.3044,-2.1935,-2.1159,-2.0245,0.0,-1.788,-1.7256,-1.7317,-1.6477,-1.601,-1.601,-1.4881,-1.4346,0.0,0.0,0.0,0.0,0.0,0.0,0.0,0.0,0.0,0.0,0.0,0.0,0.0,0.0,0.0,0.0,0.0,0.0,0.0,0.0,0.0,0.0,-1.9985,-2.1716,-2.1216,-2.2086,-2.2987,-2.3469,-2.4362,-2.4941,-2.4941,-2.5391,-2.5703,-2.5703,-2.5987,-2.6353,-2.6829,-2.7167,-2.7581,-2.8071,-2.8645,-2.8735,-2.8255,-2.819,-2.8147,-2.8139,-2.8346,-2.8695,-2.9178,-3.0009,-3.0121,0.0,-2.8409,-2.7601,-2.7044,-2.5813,-2.5173,0.0,0.0,0.0,0.0,0.0,-2.419,-2.419,-2.419,-2.419,-2.419,-2.419,-2.419,-2.419,-2.419,-2.419,-2.419,-2.419,-2.419,-2.419,-2.419,-2.419,-2.419,-2.419,-2.419,-2.419,-2.419,-2.419,-2.419,-2.419,0.0,0.0,-2.419,-2.419,-2.4151,-2.4016,-2.3816,-2.3588,-2.3323,-2.3236,-2.3141,-2.3021,-2.3117,-2.2841,-2.1902,-2.1307,0.0,0.0,0.0,-1.7386,-1.6901,-1.6764,0.0,0.0,0.0,0.0,0.0,0.0,0.0,0.0,-1.5781,-1.5629,0.0,0.0,0.0,0.0,0.0,0.0,0.0,0.0,0.0,0.0,0.0,0.0,0.0,0.0,0.0,0.0,-2.2051,-2.4129,-2.4225,-2.4342,-2.4418,-2.4427,-2.5182,-2.5703,-2.5703,-2.5703,-2.5742,-2.584,-2.6517,-2.6993,-2.7184,0.0,0.0,0.0,0.0,-2.8488,-2.8457,-2.8389,-2.8357,-2.8357,-2.8942,-2.9276,-2.9375,-3.0083,-3.0402,-3.0302,-2.8717,-2.7986,-2.7775,-2.612,-2.5258,-2.4962,-2.4828,-2.4639,-2.4444,-2.4284,-2.419,0.0,0.0,0.0,0.0,-2.4151,-2.4151,-2.4151,-2.4094,-2.4113,-2.4151,-2.4094,-2.4151,-2.419,-2.4151,-2.417,-2.419,-2.419,-2.419,-2.419,-2.419,-2.419,-2.419,-2.419,-2.419,-2.419,-2.419,-2.419,-2.4094,-2.3735,-2.3671,-2.3414,-2.2772,-2.2923,-2.2972,-2.2686,0.0,0.0,-2.1752,-2.1589,-2.0887,-1.9256,-1.9063,-1.8437,-1.7139,-1.771,-1.7743,-1.7088,-1.7071,-1.771,-1.9012,-1.9012,-1.9418,-2.0069,-1.7371,-1.7151,0.0,0.0,0.0,0.0,0.0,0.0,0.0,0.0,0.0,0.0,0.0,0.0,0.0,0.0,0.0,-2.1705,-2.3206,-2.4341,-2.4986,-2.5147,-2.5214,-2.5255,-2.5512,-2.5703,-2.5703,-2.5703,-2.5996,-2.6699,-2.6894,-2.7573,-2.892,-2.921,0.0,-3.0208,-3.0326,-3.0058,-2.9355,-2.9288,-2.9255,-2.9249,0.0,0.0,-3.0247,-3.0414,-3.0442,-3.034,-2.9313,-2.8486,-2.7813,-2.6774,-2.5738,-2.4814,-2.4639,-2.4445,-2.4247,-2.4209,-2.419,-2.419,-2.419,-2.419,-2.4151,-2.3896,-2.3795,-2.3753,-2.3477,-2.3566,0.0,-2.3459,-2.3795,-2.4151,-2.3876,-2.3996,-2.419,-2.419,-2.419,-2.419,-2.419,-2.419,-2.419,-2.419,-2.419,-2.419,-2.419,-2.419,-2.4094,-2.3735,-2.3459,-2.3141,-2.2746,-2.2581,-2.247,-2.2388,-2.2443,-2.2375,-2.2184,-2.1623,-2.1121,-2.078,-2.0145,-1.9647,-1.936,-1.9495,-1.9512,-1.9343,-1.9343,-1.9495,-1.9782,-1.9782,-2.0196,-2.0923,-1.9722,-1.9376,0.0,0.0,0.0,0.0,0.0,0.0,0.0,0.0,0.0,0.0,0.0,-1.6862,-1.8543,0.0,-2.1455,-2.3167,-2.4139,-2.4832,-2.5245,-2.5354,-2.5421,-2.5484,-2.5595,-2.5661,-2.5703,-2.5703,-2.6055,-2.6934,-2.7402,-2.8202,-2.9485,-2.9999,-3.0429,-3.0795,-3.0878,-3.0684,-3.0254,-3.0212,-3.0209,-3.0208,-3.0099,-3.0234,-3.0606,-3.0529,-3.0482,-3.0393,-2.9481,-2.864,-2.7783,-2.6312,-2.5275,-2.4623,-2.4445,-2.4284,-2.419,-2.419,-2.419,-2.417,-2.4016,-2.3937,-2.3896,-2.3566,-2.3566,-2.3671,-2.35,-2.3692,-2.3876,-2.3544,-2.3816,-2.4113,-2.3795,-2.3937,-2.419,-2.419,-2.419,-2.419,-2.419,-2.419,-2.4151,-2.3996,-2.3937,-2.3937,-2.3937,-2.3937,-2.3837,-2.35,-2.3323,-2.3038,-2.2554,-2.2388,-2.231,-2.231,-2.231,-2.231,-2.231,-2.1617,-2.1204,-2.1204,-2.0822,-2.0433,-2.0018,-2.0399,-2.0416,-2.0002,-2.0002,-2.0187,-2.0602,-2.0602,-2.0991,-2.1735,-2.1346,-2.1133,0.0,0.0,0.0,0.0,0.0,0.0,0.0,0.0,-1.4756,-1.6431,-1.7558,-1.8688,-2.0222,-2.1895,-2.334,-2.4187,-2.4889,-2.5303,-2.5303,-2.5348,-2.5413,-2.5463,-2.5554,-2.5611,-2.5682,-2.5683,-2.6133,-2.7168,-2.7891,-2.875,-2.9805,-3.0527,-3.0898,-3.0898,-3.0898,-3.0898,-3.0898,-3.0898,-3.0898,-3.0898,-3.0792,-3.0721,-3.0693,-3.0575,-3.0505,-3.044,-2.934,-2.8475,-2.7681,-2.5625,-2.4685,-2.4478,-2.4266,-2.419,-2.419,-2.419,-2.417,-2.4074,-2.3795,-2.3671,-2.3544,-2.3212,-2.33,-2.3522,-2.3522,-2.3692,-2.3876,-2.3671,-2.3837,-2.4036,-2.3774,-2.3937,-2.419,-2.419,-2.419,-2.419,-2.419,-2.419,-2.4113,-2.3837,-2.3735,-2.3692,-2.3692,-2.3649,-2.3522,-2.3236,-2.3189,-2.2965,-2.2377,-2.231,-2.231,-2.231,-2.231,-2.231,-2.231,-2.1752,-2.1397,-2.1397,-2.1397,-2.1126,-2.0475,-2.1075,-2.1109,-2.0458,-2.0441,-2.0771,-2.1397,-2.1397,-2.1718,-2.231,-2.231,-2.231,-1.1146,-1.1783,-1.2281,-1.2483,-1.3091,-1.4263,0.0,0.0,-1.7537,-1.9221,-2.026,-2.1176,-2.214,-2.3208,-2.4225,-2.5024,-2.5245,-2.5303,-2.5303,-2.5322,-2.5339,-2.5394,-2.5511,-2.5603,-2.5605,-2.5661,-2.6387,-2.8027,-2.8242,-2.9023,-3.0664,-3.0859,-3.0898,-3.0898,-3.0898,-3.0898,-3.0898,-3.0898,-3.0898,-3.0898,-3.0879,-3.0816,-3.0693,-3.0614,-3.0567,-3.0421,-2.8742,-2.7881,-2.7498,-2.5584,-2.4685,-2.4478,-2.4266,-2.419,-2.419,-2.419,-2.4016,-2.3735,-2.3714,-2.3522,-2.3189,-2.2873,-2.2772,-2.2822,-2.2822,-2.2848,-2.2923,-2.3189,-2.35,-2.3753,-2.3714,-2.3937,-2.419,-2.419,-2.419,-2.419,-2.419,-2.419,-2.419,-2.4151,-2.3896,-2.3692,-2.3692,-2.3437,-2.3236,-2.3212,-2.3189,-2.2965,-2.2377,-2.231,-2.231,-2.231,-2.231,-2.231,-2.231,-2.2226,-2.2192,-2.2192,-2.2192,-2.2141,-2.2057,-2.2141,-2.2141,-2.2029,-2.2057,-2.2107,-2.2192,-2.2192,-2.2226,-2.231,-2.231,-2.231,-1.1855,-1.2281,0.0,0.0,-1.4198,-1.5546,-1.7109,-1.7757,-1.835,-1.9529,-2.0516,-2.1449,-2.2265,-2.335,-2.436,0.0,-2.5303,-2.5303,-2.5303,-2.5303,-2.5313,-2.5348,-2.5421,-2.5503,-2.5598,-2.5631,-2.6168,-2.7441,-2.8008,-2.8848,-3.0078,-3.0625,-3.0898,-3.0898,-3.0898,-3.0898,-3.0898,-3.0898,-3.0898,-3.0898,-3.0898,-3.0878,-3.0814,-3.0707,-3.0606,-3.0402,-2.8646,-2.7726,-2.7295,-2.5527,-2.4607,-2.4321,-2.4228,-2.419,-2.417,-2.3976,-2.3816,-2.3631,-2.3236,-2.3038,-2.2908,-2.2581,-2.2573,-2.2746,-2.2923,-2.3117,-2.3323,-2.3437,-2.3735,-2.3955,-2.3735,-2.3937,-2.419,-2.419,-2.419,-2.419,-2.419,-2.419,-2.4151,-2.3955,-2.3795,-2.3649,-2.3437,-2.3282,-2.3141,-2.2947,-2.2923,-2.2764,-2.2349,-2.231,-2.231,-2.231,-2.231,-2.231,-2.231,-2.231,-2.231,-2.231,-2.231,-2.231,-2.231,-2.231,-2.231,-2.231,-2.231,-2.231,-2.231,-2.231,-2.231,-2.231,-2.231,-2.231,-1.2058,0.0,0.0,-1.352,-1.5106,-1.6658,-1.7227,-1.8106,-1.8946,-1.9497,-2.0389,-2.128,-2.1865,-2.3146,0.0,-2.487,-2.5159,-2.5303,-2.5303,-2.5303,-2.5303,-2.5303,-2.5329,-2.5415,-2.5539,-2.559,-2.5982,-2.6892,-2.7793,-2.8672,-2.9529,-3.0389,-3.0836,-3.0811,-3.0811,-3.0811,-3.0811,-3.0836,-3.0838,-3.0857,-3.0879,-3.0898,-3.0898,-3.074,-3.0617,-3.0402,-2.8646,-2.7694,-2.7252,-2.5513,-2.461,-2.4266,-2.4228,-2.4151,-2.4016,-2.3692,-2.3566,-2.3477,-2.2898,-2.2678,-2.2615,-2.2377,-2.2426,-2.2678,-2.3087,-2.3282,-2.3477,-2.3774,-2.3955,-2.4016,-2.3876,-2.4016,-2.419,-2.419,-2.419,-2.419,-2.419,-2.419,-2.4132,-2.3896,-2.3756,-2.3588,-2.3259,-2.3117,-2.2947,-2.2652,-2.2599,-2.2527,-2.2321,-2.231,-2.231,-2.231,-2.231,-2.231,-2.231,-2.231,-2.231,-2.231,-2.231,-2.231,-2.231,-2.231,-2.231,-2.231,-2.231,-2.231,-2.231,-2.231,-2.231,-2.231,-2.231,-2.231,0.0,0.0,-1.378,-1.3792,-1.5693,-1.7532,-1.7498,-1.8676,-1.9724,-1.9623,-2.0389,-2.1109,-2.1128,-2.2764,-2.411,-2.4129,-2.4793,-2.5303,-2.5303,-2.5303,-2.5303,-2.5303,-2.5293,-2.5321,0.0,-2.5531,-2.5954,-2.6835,-2.777,-2.865,-2.9467,-3.0267,-3.0677,-3.0611,-3.0611,-3.0611,-3.0611,-3.0673,-3.0716,-3.0716,-3.0837,-3.0898,-3.0898,-3.0685,-3.0561,-3.0402,-2.8646,-2.7773,-2.7439,-2.557,-2.467,-2.4461,-2.4266,-2.3996,-2.3671,-2.3346,-2.323,-2.3165,-2.2822,-2.2527,-2.231,-2.231,-2.231,-2.2415,-2.3014,-2.2972,-2.2947,-2.3917,-2.3976,-2.3795,-2.4094,-2.419,-2.419,-2.419,-2.419,-2.419,-2.419,-2.419,-2.4208,-2.419,-2.3917,-2.3588,-2.3259,-2.2923,-2.2625,-2.2349,-2.231,-2.231,-2.231,-2.231,-2.231,-2.231,-2.231,-2.231,-2.231,-2.231,-2.231,-2.231,-2.231,-2.231,-2.231,-2.231,-2.231,-2.231,-2.231,-2.231,-2.231,-2.231,-2.231,-2.231,-2.231,-2.231,0.0,0.0,-1.46,-1.519,-1.6872,-1.8382,-1.8373,-1.9113,-1.9762,-1.9623,-1.9873,-2.0263,-2.0814,-2.2106,-2.3283,-2.38,-2.4686,-2.5303,-2.5303,-2.5303,-2.5303,-2.5303,-2.5303,0.0,0.0,0.0,0.0,-2.5948,-2.7347,-2.8283,-2.8559,-2.9883,-3.0614,-3.0606,-3.0606,-3.0606,-3.0606,-3.0628,-3.0661,-3.0696,-3.0251,-3.0332,-3.0859,-2.9535,-2.9246,-2.9667,-2.7817,-2.6852,-2.6456,-2.5286,-2.4591,-2.4284,-2.4228,-2.3996,-2.3671,-2.3305,-2.3069,-2.2822,-2.2527,-2.2388,-2.231,-2.231,-2.231,-2.2377,-2.2738,-2.2947,-2.3141,-2.3714,-2.3955,-2.4074,-2.417,-2.419,-2.419,-2.419,-2.419,-2.419,-2.419,-2.4016,-2.3876,-2.3876,-2.3588,-2.3259,-2.2923,-2.2772,-2.2625,-2.2349,-2.231,-2.231,-2.231,-2.231,-2.231,-2.231,-2.231,-2.231,-2.231,-2.231,-2.231,-2.231,-2.231,-2.231,-2.231,-2.231,-2.231,-2.231,-2.231,-2.231,-2.231,-2.231,-2.231,-2.231,-2.231,-2.2415,0.0,-1.4147,-1.501,-1.5875,-1.7406,-1.8697,-1.8697,-1.9001,-1.9257,-1.9095,-1.8886,-1.9001,-1.9851,-2.0941,-2.2055,-2.3171,-2.4196,-2.4947,-2.5165,-2.5264,-2.5303,-2.5303,-2.5303,-2.5418,0.0,0.0,0.0,-2.5465,-2.7379,-2.8254,-2.7621,-2.9486,-3.0411,-3.0064,-3.0374,-3.0521,-3.0521,-3.054,-3.0461,-3.0264,-2.9822,-2.9726,-2.9922,-2.8677,-2.8407,-2.8849,-2.7275,-2.6412,-2.6039,-2.5154,-2.4626,-2.4284,-2.4095,-2.3816,-2.3477,-2.3141,-2.2815,-2.2537,-2.2377,-2.231,-2.231,-2.231,-2.231,-2.2349,-2.2625,-2.2848,-2.3093,-2.3414,-2.3671,-2.3876,-2.3996,-2.4016,-2.4054,-2.417,-2.419,-2.419,-2.419,-2.4016,-2.3837,-2.3714,-2.3522,-2.3236,-2.2772,-2.2625,-2.25,-2.2338,-2.231,-2.231,-2.231,-2.231,-2.231,-2.231,-2.231,-2.231,-2.231,-2.231,-2.231,-2.231,-2.231,-2.231,-2.231,-2.231,-2.231,-2.231,-2.231,-2.231,-2.231,-2.231,-2.231,-2.231,-2.231,-2.2388,-1.3467,-1.413,-1.5104,-1.5942,-1.7365,-1.8569,-1.8557,-1.8477,-1.8354,-1.8139,-1.7601,-1.7468,0.0,0.0,-2.0594,-2.2174,-2.3351,-2.4312,-2.492,-2.5173,-2.5322,0.0,0.0,0.0,0.0,0.0,0.0,-2.5538,0.0,-2.8489,-2.69,-2.9115,-3.0037,-2.919,-2.9967,-3.0398,-3.0398,-3.0472,-3.0153,-2.9481,-2.9527,-2.9101,-2.8281,-2.8076,-2.7998,-2.7987,-2.6966,-2.6431,-2.6149,-2.5196,-2.467,-2.4425,-2.3921,-2.35,-2.3165,-2.2822,-2.2527,-2.231,-2.231,-2.231,-2.231,-2.231,-2.231,-2.2349,-2.2599,-2.2695,-2.2772,-2.3117,-2.3212,-2.3282,-2.3649,-2.3732,-2.3795,-2.4094,-2.417,-2.417,-2.417,-2.417,-2.4074,-2.3774,-2.3671,-2.3437,-2.2797,-2.2463,-2.231,-2.231,-2.231,-2.231,-2.231,-2.231,-2.231,-2.231,-2.231,-2.231,-2.231,-2.231,-2.231,-2.231,-2.231,-2.231,-2.231,-2.231,-2.231,-2.231,-2.231,-2.231,-2.231,-2.231,-2.231,-2.231,-2.231,-2.231,-1.3374,-1.4851,-1.6442,-1.6829,-1.8196,-1.9454,-1.9338,-1.892,-1.847,-1.8167,-1.75,-1.7056,-1.7293,0.0,0.0,-2.1263,-2.2806,0.0,-2.5098,-2.5264,0.0,-2.6197,0.0,-2.6621,-2.7486,-2.7909,0.0,0.0,-2.7277,-2.7653,-2.8443,-2.9098,-2.9646,-3.0063,-3.0294,-3.0398,-3.0398,-3.0472,-3.0118,-2.9343,-2.8814,-2.847,-2.8242,-2.6876,-2.6564,-2.7089,-2.6118,-2.5522,-2.5158,-2.4913,-2.4591,-2.4247,-2.3858,-2.35,-2.3183,-2.2883,-2.2571,-2.231,-2.231,-2.231,-2.231,-2.231,-2.231,-2.2293,-2.2388,-2.2537,-2.2772,-2.3117,-2.3392,-2.3649,-2.3996,-2.4074,-2.4016,-2.3876,-2.3816,-2.3816,-2.3816,-2.3631,-2.3482,-2.3671,-2.33,-2.284,-2.248,-2.2349,-2.231,-2.231,-2.231,-2.231,-2.231,-2.231,-2.231,-2.231,-2.231,-2.231,-2.231,-2.231,-2.231,-2.231,-2.231,-2.231,-2.231,-2.231,-2.231,-2.231,-2.231,-2.231,-2.231,-2.231,-2.231,-2.231,-2.231,-2.2535,-1.4272,-1.5637,-1.7035,-1.7591,-1.8665,-1.9492,-1.9143,-1.8429,-1.7702,-1.7164,-1.6459,0.0,-1.6393,0.0,0.0,0.0,0.0,0.0,-2.453,-2.5023,-2.561,0.0,-2.6601,0.0,-2.8313,-2.8525,-2.8679,0.0,-2.8198,-2.7948,-2.8544,-2.8909,-2.9313,-2.9813,-3.0198,-3.0398,-3.0398,-3.0086,-2.954,-2.876,-2.7994,-2.7469,-2.7129,-2.6083,-2.5834,-2.6194,0.0,-2.5168,-2.4804,-2.4804,-2.4559,-2.4151,-2.3671,-2.3369,-2.3159,-2.2738,-2.247,-2.231,-2.231,-2.231,-2.231,-2.231,-2.231,-2.231,-2.231,-2.2473,-2.2746,-2.2923,-2.3212,-2.3566,-2.3896,-2.3976,-2.3976,-2.3917,-2.3917,-2.3876,-2.3735,-2.3544,-2.3392,-2.3277,-2.2865,-2.249,-2.2338,-2.231,-2.231,-2.231,-2.231,-2.231,-2.231,-2.231,-2.231,-2.231,-2.231,-2.231,-2.231,-2.231,-2.231,-2.231,-2.231,-2.231,-2.231,-2.231,-2.231,-2.231,-2.231,-2.231,-2.231,-2.231,-2.231,-2.231,-2.231,-2.2544,-1.5325,-1.6224,-1.7114,-1.7981,-1.8693,-1.9048,-1.8495,-1.7527,-1.6562,-1.5851,0.0,-1.4912,-1.5591,-1.6611,-1.7861,-1.939,0.0,-2.2863,-2.3728,-2.4675,-2.5668,-2.6659,-2.6678,-2.7294,-2.9102,-2.8544,-2.8659,-3.0121,-2.9429,-2.8717,-2.8255,-2.8679,-2.9044,-2.9275,-3.0006,-3.034,-3.0237,-2.9535,-2.876,-2.7906,-2.7227,-2.647,-2.5683,-2.5637,-2.5567,-2.5508,0.0,0.0,-2.4804,-2.4804,-2.4543,-2.4074,-2.3437,-2.3165,-2.3087,-2.2508,-2.231,-2.231,-2.231,-2.231,-2.231,-2.231,-2.231,-2.231,-2.231,-2.2463,-2.266,-2.2695,-2.2923,-2.3212,-2.3588,-2.3692,-2.3774,-2.4074,-2.4113,-2.4036,-2.3756,-2.3692,-2.3522,-2.2898,-2.2554,-2.2349,-2.231,-2.231,-2.231,-2.231,-2.231,-2.231,-2.231,-2.231,-2.231,-2.231,-2.231,-2.231,-2.231,-2.231,-2.231,-2.231,-2.231,-2.231,-2.231,-2.231,-2.231,-2.231,-2.231,-2.231,-2.231,-2.231,-2.231,-2.231,-2.2349,-2.25,-1.4629,-1.5771,-1.694,-1.7114,-1.7861,-1.8501,-1.8218,-1.7065,0.0,0.0,0.0,-1.4703,-1.4733,-1.5529,0.0,-1.8522,0.0,0.0,0.0,0.0,-2.589,0.0,0.0,0.0,0.0,0.0,0.0,0.0,0.0,0.0,-2.991,-2.8794,-2.8736,-3.014,-3.0321,-3.0044,-2.9333,-2.9193,-2.8396,-2.6931,-2.6862,-2.6404,-2.5629,-2.5663,-2.5627,-2.5489,0.0,0.0,-2.4804,-2.4804,-2.4386,-2.3753,-2.3346,-2.3021,-2.2764,-2.2415,-2.231,-2.231,-2.231,-2.231,-2.231,-2.231,-2.231,-2.231,-2.231,-2.2321,-2.2426,-2.2634,-2.2746,-2.2923,-2.3544,-2.3692,-2.3714,-2.3774,-2.3795,-2.3774,-2.3714,-2.3692,-2.3588,-2.3189,-2.2848,-2.2563,-2.2349,-2.231,-2.231,-2.231,-2.231,-2.231,-2.231,-2.231,-2.231,-2.231,-2.231,-2.231,-2.231,-2.231,-2.231,-2.231,-2.231,-2.231,-2.231,-2.231,-2.231,-2.231,-2.231,-2.231,-2.231,-2.231,-2.231,-2.231,-2.2527,-2.2797,-1.4759,-1.5837,-1.6885,-1.7389,-1.7891,-1.8111,-1.7596,0.0,0.0,0.0,0.0,-1.4766,-1.4624,0.0,0.0,0.0,0.0,0.0,0.0,0.0,0.0,0.0,0.0,0.0,0.0,0.0,0.0,0.0,0.0,0.0,-2.9063,-2.8332,-2.8275,-2.9063,-2.9102,-2.889,-2.8467,-2.8025,-2.7431,-2.6695,-2.63,-2.5944,-2.5603,-2.5662,-2.5633,-2.5493,-2.5493,0.0,-2.4804,-2.4804,-2.4474,-2.3917,-2.3392,-2.3093,-2.2898,-2.2453,-2.231,-2.231,-2.231,-2.231,-2.231,-2.231,-2.231,-2.231,-2.231,-2.2415,-2.2537,-2.2643,-2.2822,-2.3069,-2.3566,-2.3566,-2.3482,-2.3671,-2.3437,-2.323,-2.3392,-2.32,-2.2975,-2.2947,-2.2704,-2.2436,-2.2321,-2.231,-2.231,-2.231,-2.231,-2.231,-2.231,-2.231,-2.231,-2.231,-2.231,-2.231,-2.231,-2.231,-2.231,-2.231,-2.231,-2.231,-2.231,-2.231,-2.231,-2.231,-2.231,-2.231,-2.231,-2.231,-2.231,-2.231,-2.2426,-2.2755,-1.4831,-1.5782,-1.6727,-1.7574,-1.7782,-1.7617,-1.7023,-1.6138,0.0,0.0,-1.4707,-1.4868,-1.4708,0.0,0.0,0.0,0.0,0.0,0.0,0.0,0.0,0.0,0.0,0.0,0.0,0.0,0.0,0.0,0.0,0.0,-2.7621,-2.7794,-2.789,-2.789,-2.789,-2.7813,-2.7621,-2.6948,-2.6535,-2.6392,-2.5795,-2.5531,-2.5558,-2.5659,-2.5615,-2.5472,-2.5498,0.0,0.0,-2.4804,-2.4526,-2.4036,-2.3522,-2.3212,-2.3038,-2.2571,-2.2349,-2.231,-2.231,-2.231,-2.231,-2.231,-2.231,-2.231,-2.231,-2.2453,-2.2634,-2.2669,-2.2848,-2.3111,-2.3566,-2.3437,-2.3282,-2.361,-2.3236,-2.2873,-2.3141,-2.2773,-2.2436,-2.266,-2.2473,-2.231,-2.231,-2.231,-2.231,-2.231,-2.231,-2.231,-2.231,-2.231,-2.231,-2.231,-2.231,-2.231,-2.231,-2.231,-2.231,-2.231,-2.231,-2.231,-2.231,-2.231,-2.231,-2.231,-2.231,-2.231,-2.231,-2.231,-2.231,-2.231,-2.2377,-2.2669,-1.4016,-1.5165,-1.6385,-1.6673,-1.6688,-1.6685,-1.6867,0.0,0.0,-1.4506,-1.4707,-1.4868,-1.4708,-1.4938,0.0,0.0,0.0,0.0,0.0,0.0,0.0,0.0,0.0,0.0,0.0,0.0,0.0,0.0,0.0,0.0,0.0,-2.7467,-2.789,-2.789,-2.789,-2.7525,-2.6736,-2.664,-2.6217,-2.5418,-2.548,-2.5463,-2.5428,-2.5607,-2.5582,-2.542,0.0,0.0,0.0,-2.4804,-2.4386,-2.3735,-2.3671,-2.3277,-2.2746,-2.2669,-2.25,-2.231,-2.231,-2.231,-2.231,-2.231,-2.231,-2.231,-2.231,-2.2338,-2.2388,-2.2634,-2.2554,-2.2588,-2.3455,-2.3437,-2.3282,-2.361,-2.3414,-2.3165,-2.3189,-2.2923,-2.2669,-2.2695,-2.2473,-2.231,-2.231,-2.231,-2.231,-2.231,-2.231,-2.231,-2.231,-2.231,-2.231,-2.231,-2.231,-2.231,-2.231,-2.231,-2.231,-2.231,-2.231,-2.231,-2.231,-2.231,-2.231,-2.231,-2.231,-2.231,-2.231,-2.231,-2.231,-2.231,-2.2563,-2.2848,-1.3587,-1.502,-1.6401,-1.6568,-1.6671,-1.6761,-1.6881,0.0,-1.4522,-1.4603,-1.4766,-1.4894,-1.4881,-1.5007,-1.5203,0.0,-1.6996,-1.8547,0.0,0.0,0.0,0.0,0.0,0.0,0.0,0.0,0.0,0.0,0.0,0.0,0.0,-2.6159,-2.6351,-2.6351,-2.6351,-2.6178,-2.5832,-2.5832,-2.563,-2.5313,-2.5398,-2.5428,-2.542,-2.5564,-2.5547,-2.5403,0.0,0.0,0.0,-2.4804,-2.4491,-2.3976,-2.3774,-2.3414,-2.2972,-2.2772,-2.2527,-2.231,-2.231,-2.231,-2.231,-2.231,-2.231,-2.2321,-2.25,-2.2695,-2.2857,-2.2972,-2.2915,-2.2982,-2.3544,-2.3588,-2.3437,-2.3165,-2.2996,-2.2898,-2.2898,-2.2652,-2.25,-2.2686,-2.2473,-2.231,-2.231,-2.231,-2.231,-2.231,-2.231,-2.2209,-2.1928,-2.1899,-2.1811,-2.1554,-2.1991,-2.231,-2.231,-2.231,-2.231,-2.231,-2.231,-2.231,-2.231,-2.231,-2.231,-2.231,-2.231,-2.231,-2.231,-2.231,-2.231,-2.231,-2.259,-2.2873,-1.332,-1.4703,-1.5965,-1.6133,-1.6294,-1.6456,0.0,0.0,-1.4533,-1.4677,-1.4804,-1.4919,-1.4992,-1.5312,-1.5466,0.0,-1.6758,-1.8355,-1.9137,0.0,0.0,0.0,0.0,0.0,0.0,0.0,0.0,0.0,0.0,0.0,0.0,-2.5437,-2.5303,-2.5303,-2.5303,-2.5303,-2.5303,-2.5303,-2.5303,-2.5303,-2.5379,-2.5398,-2.5368,-2.5535,-2.5521,-2.5405,0.0,0.0,0.0,-2.4828,-2.4591,-2.4266,-2.3958,-2.3566,-2.3165,-2.2947,-2.2616,-2.231,-2.231,-2.231,-2.2293,-2.2388,-2.2426,-2.2463,-2.2764,-2.289,-2.2965,-2.3159,-2.3346,-2.3522,-2.3671,-2.3692,-2.3566,-2.3117,-2.2923,-2.2848,-2.2848,-2.2616,-2.249,-2.2643,-2.2473,-2.231,-2.231,-2.231,-2.231,-2.231,-2.231,-2.218,-2.1853,-2.1794,-2.1705,-2.1415,-2.1915,-2.2209,-2.1945,-2.1915,-2.1915,-2.1915,-2.1915,-2.1915,-2.1915,-2.2032,-2.2106,-2.2106,-2.2237,-2.231,-2.231,-2.231,-2.231,-2.231,-2.25,-2.2789,-1.3193,-1.4093,-1.4863,-1.5066,-1.5213,-1.5392,0.0,-1.5086,-1.4533,-1.4677,-1.4804,-1.4919,-1.4992,-1.5817,-1.6195,-1.5343,-1.733,-1.93,-2.0158,0.0,0.0,0.0,0.0,0.0,0.0,0.0,0.0,0.0,0.0,0.0,0.0,-2.5774,-2.5303,-2.5303,-2.5303,-2.5303,-2.5303,-2.5303,-2.5303,-2.5303,-2.5379,-2.5371,-2.5303,-2.5517,-2.5523,0.0,0.0,0.0,0.0,-2.4879,-2.4685,-2.4478,-2.4266,-2.3795,-2.3189,-2.3189,-2.2824,-2.231,-2.231,-2.231,-2.2349,-2.2625,-2.2695,-2.2772,-2.3093,-2.2773,-2.2443,-2.3038,-2.3671,-2.4113,-2.3795,-2.3692,-2.3692,-2.3692,-2.3455,-2.3189,-2.3189,-2.2923,-2.2695,-2.2695,-2.2473,-2.231,-2.231,-2.231,-2.231,-2.231,-2.231,-2.231,-2.2282,-2.2282,-2.2282,-2.2282,-2.2282,-2.1945,-2.1103,-2.0991,-2.0991,-2.0991,-2.0991,-2.0991,-2.0991,-2.1399,-2.1628,-2.1628,-2.2061,-2.231,-2.231,-2.231,-2.231,-2.231,-2.231,-2.2624,-1.3057,-1.4191,-1.4879,-1.4409,-1.4918,-1.5452,-1.5001,-1.4683,-1.4567,-1.4785,-1.4877,-1.4944,-1.5107,-1.5408,-1.5907,-1.6772,0.0,0.0,0.0,0.0,0.0,0.0,0.0,0.0,0.0,0.0,0.0,0.0,0.0,0.0,0.0,0.0,-2.5303,-2.5303,-2.5303,-2.5303,-2.5303,-2.5303,-2.5303,-2.5303,-2.5312,-2.5331,-2.5313,-2.5465,0.0,0.0,0.0,0.0,0.0,-2.4879,-2.4685,-2.4478,-2.4266,-2.3917,-2.3522,-2.3282,-2.2923,-2.2537,-2.236,-2.231,-2.2293,-2.2415,-2.2563,-2.2721,-2.2822,-2.2873,-2.3007,-2.3414,-2.3692,-2.3837,-2.3714,-2.3692,-2.3588,-2.3117,-2.2947,-2.2815,-2.2607,-2.249,-2.2426,-2.2426,-2.2377,-2.231,-2.231,-2.231,-2.231,-2.231,-2.2032,-2.1735,-2.1462,-2.1415,-2.1291,-2.0975,-2.1213,-2.1554,-2.1857,-2.1886,-2.1886,-2.1886,-2.1886,-2.1886,-2.1886,-2.2003,-2.2077,-2.2077,-2.2209,-2.231,-2.231,-2.231,-2.2371,-2.259,-2.2807,-2.3135,0.0,-1.3174,-1.3671,-1.3218,-1.3962,-1.4658,-1.415,-1.4279,-1.4578,-1.4832,-1.4904,-1.4952,-1.5165,-1.5465,-1.6022,-1.708,0.0,0.0,0.0,0.0,0.0,0.0,0.0,0.0,0.0,0.0,0.0,0.0,0.0,0.0,0.0,0.0,-2.5303,-2.5303,-2.5303,-2.5303,-2.5303,-2.5303,-2.5303,-2.5303,-2.5303,-2.5303,-2.5293,-2.5441,0.0,0.0,0.0,0.0,0.0,-2.4972,-2.4771,-2.4591,-2.4393,-2.4077,-2.3671,-2.3477,-2.3093,-2.2686,-2.25,-2.2388,-2.2338,-2.2426,-2.2652,-2.2873,-2.2746,-2.3021,-2.3414,-2.3649,-2.3795,-2.3896,-2.3896,-2.3795,-2.3588,-2.3165,-2.2972,-2.2822,-2.2686,-2.2544,-2.2436,-2.2436,-2.236,-2.231,-2.231,-2.231,-2.231,-2.231,-2.2032,-2.1764,-2.1524,-2.1354,-2.1102,-2.083,-2.0926,-2.1229,-2.1751,-2.1811,-2.1811,-2.1811,-2.1811,-2.1811,-2.1811,-2.1945,-2.2032,-2.2032,-2.2209,-2.231,-2.231,-2.231,-2.2453,-2.2721,-2.2923,-2.3259,0.0,-1.1361,-1.1629,-1.1772,-1.256,-1.3298,-1.3298,-1.3912,0.0,-1.4832,-1.4904,-1.4971,-1.5242,-1.5945,-1.6561,-1.6734,0.0,0.0,0.0,0.0,0.0,0.0,0.0,0.0,0.0,0.0,0.0,0.0,0.0,0.0,0.0,0.0,-2.5303,-2.5303,-2.5303,-2.5303,-2.5303,-2.5303,-2.5303,-2.5303,-2.5303,-2.5303,-2.5293,-2.5441,0.0,0.0,0.0,0.0,0.0,-2.5129,-2.493,-2.4775,-2.4575,-2.4192,-2.3735,-2.3714,-2.3323,-2.2772,-2.2746,-2.2563,-2.2415,-2.2634,-2.2972,-2.3165,-2.2848,-2.3165,-2.3671,-2.3692,-2.3917,-2.417,-2.417,-2.3937,-2.3692,-2.3671,-2.3414,-2.3165,-2.3165,-2.2898,-2.2669,-2.2669,-2.2463,-2.231,-2.231,-2.2282,-2.2237,-2.2237,-2.2209,-2.2152,-2.2152,-2.1764,-2.1521,-2.1521,-2.1213,-2.0991,-2.0991,-2.0991,-2.0991,-2.0991,-2.0991,-2.0991,-2.0991,-2.1399,-2.1582,-2.1582,-2.2061,-2.231,-2.231,-2.231,-2.2426,-2.2669,-2.2695,-2.3045,-0.953,0.0,-1.1629,-1.1772,-1.256,-1.3298,0.0,-1.3912,-1.4578,-1.4832,0.0,-1.5161,-1.6029,-1.6369,-1.7138,0.0,0.0,0.0,0.0,0.0,0.0,0.0,0.0,0.0,0.0,0.0,0.0,0.0,0.0,0.0,0.0,0.0,-2.5303,-2.5303,-2.5303,-2.5303,-2.5303,-2.5303,-2.5303,-2.5303,-2.5303,-2.5303,-2.5293,-2.5441,0.0,0.0,0.0,0.0,-2.5473,-2.5129,-2.493,-2.4775,-2.4575,-2.4321,-2.4054,-2.3795,-2.3588,-2.3414,-2.3165,-2.3038,-2.2989,-2.3069,-2.3323,-2.3522,-2.3189,-2.3189,-2.3369,-2.3628,-2.3774,-2.3816,-2.3816,-2.3774,-2.3649,-2.3392,-2.3069,-2.2822,-2.2822,-2.259,-2.2371,-2.2371,-2.2349,-2.231,-2.231,-2.2003,-2.1764,-2.1764,-2.1197,-2.0781,-2.0781,-2.0667,-2.0616,-2.0616,-2.0846,-2.0991,-2.0991,-2.0991,-2.0991,-2.0991,-2.0991,-2.0991,-2.0991,-2.1399,-2.1582,-2.1582,-2.2061,-2.231,-2.231,-2.231,-2.2321,-2.2415,-2.2599,-2.2797,-0.9054,-1.0344,-1.1693,-1.1805,-1.2862,-1.3838,-1.3838,0.0,0.0,0.0,0.0,-1.5226,-1.6304,-1.6503,0.0,0.0,0.0,0.0,0.0,0.0,0.0,0.0,0.0,0.0,0.0,0.0,0.0,0.0,0.0,0.0,0.0,0.0,-2.5303,-2.5303,-2.5303,-2.5303,-2.5303,-2.5303,-2.5303,-2.5303,-2.5303,-2.5303,-2.5293,-2.542,0.0,0.0,0.0,0.0,-2.5479,-2.5277,-2.5072,-2.4877,-2.478,-2.4572,-2.4321,-2.4117,-2.3921,-2.3671,-2.35,-2.3346,-2.3189,-2.3189,-2.3414,-2.3671,-2.3482,-2.3544,-2.3631,-2.3522,-2.3459,-2.3459,-2.3459,-2.3369,-2.3189,-2.3021,-2.2738,-2.2527,-2.2527,-2.2398,-2.231,-2.231,-2.231,-2.231,-2.231,-2.2106,-2.1928,-2.1928,-2.1337,-2.0894,-2.0894,-2.055,-2.0314,-2.0314,-2.0364,-2.0413,-2.0413,-2.0413,-2.0565,-2.0959,-2.0991,-2.0991,-2.0991,-2.1399,-2.1688,-2.1928,-2.218,-2.231,-2.231,-2.231,-2.236,-2.249,-2.2634,-2.2772,-0.9138,-1.0585,-1.199,-1.192,-1.3179,-1.4453,-1.4488,0.0,0.0,0.0,0.0,0.0,0.0,0.0,0.0,0.0,0.0,0.0,0.0,0.0,0.0,0.0,0.0,0.0,0.0,0.0,0.0,0.0,0.0,0.0,0.0,0.0,0.0,-2.5303,-2.5303,-2.5303,-2.5303,-2.5303,-2.5303,-2.5303,-2.5303,-2.5303,-2.5293,-2.5379,0.0,0.0,0.0,0.0,-2.5489,-2.5428,-2.5244,-2.501,-2.501,-2.479,-2.4495,-2.4495,-2.4192,-2.3774,-2.3774,-2.3588,-2.3346,-2.3282,-2.3482,-2.3774,-2.3649,-2.3876,-2.3996,-2.3369,-2.3253,-2.3277,-2.3277,-2.3021,-2.2772,-2.2772,-2.2563,-2.236,-2.236,-2.2321,-2.231,-2.231,-2.231,-2.231,-2.231,-2.2237,-2.218,-2.218,-2.1735,-2.1383,-2.1383,-2.0699,-2.0227,-2.0227,-1.9894,-1.969,-1.969,-1.969,-2.0015,-2.0764,-2.0797,-2.0829,-2.0894,-2.1213,-2.1658,-2.218,-2.218,-2.2237,-2.231,-2.231,-2.2426,-2.2634,-2.2634,-2.2789,-0.9646,-1.1585,-1.3159,-1.2158,-1.3028,-1.4214,-1.4453,0.0,0.0,0.0,0.0,0.0,0.0,0.0,0.0,0.0,0.0,0.0,0.0,0.0,0.0,0.0,0.0,0.0,0.0,0.0,0.0,0.0,0.0,0.0,0.0,0.0,0.0,-2.5303,-2.5303,-2.5303,-2.5303,-2.5303,-2.5303,-2.5303,-2.5303,-2.5303,-2.5293,-2.5371,-2.5434,0.0,0.0,-2.5494,-2.5489,-2.5428,-2.5244,-2.501,-2.501,-2.479,-2.4495,-2.4495,-2.4357,-2.4113,-2.4113,-2.4094,-2.3996,-2.3714,-2.3837,-2.4016,-2.3437,-2.3522,-2.3692,-2.3323,-2.3392,-2.361,-2.361,-2.3369,-2.3117,-2.3117,-2.2873,-2.2634,-2.2634,-2.2463,-2.231,-2.231,-2.231,-2.231,-2.231,-2.1957,-2.1718,-2.1718,-2.1039,-2.0501,-2.0501,-2.0104,-1.9782,-1.9782,-1.9747,-1.969,-1.969,-1.969,-1.9747,-1.9889,-1.9909,-2.0035,-2.0382,-2.0483,-2.0862,-2.1688,-2.1718,-2.1899,-2.231,-2.231,-2.2321,-2.236,-2.236,-2.2388,-0.9164,-1.1087,-1.2828,-1.2345,-1.4145,-1.6114,-1.6373,0.0,0.0,0.0,0.0,0.0,0.0,0.0,0.0,0.0,0.0,0.0,0.0,0.0,0.0,0.0,0.0,0.0,0.0,0.0,0.0,0.0,0.0,0.0,0.0,0.0,0.0,0.0,-2.5303,-2.5253,-2.5141,-2.5253,-2.5303,-2.5303,-2.5303,-2.5303,-2.5313,-2.533,-2.5406,-2.5493,0.0,-2.5508,-2.5508,-2.5477,-2.5329,-2.5163,-2.5163,-2.5005,-2.4752,-2.4575,-2.4375,-2.419,-2.419,-2.419,-2.417,-2.4016,-2.4074,-2.4151,-2.3837,-2.3855,-2.3937,-2.3795,-2.3588,-2.3414,-2.3414,-2.3165,-2.2923,-2.2923,-2.2704,-2.2473,-2.2473,-2.2388,-2.231,-2.231,-2.231,-2.231,-2.231,-2.2106,-2.1974,-2.1974,-2.1244,-2.0748,-2.0959,-2.0227,-1.9782,-2.0,-1.9854,-1.969,-1.969,-1.969,-1.969,-1.969,-1.969,-1.9874,-2.028,-2.055,-2.0975,-2.1582,-2.1853,-2.2077,-2.231,-2.231,-2.231,-2.231,-2.231,-2.2388,-0.8854,-1.0597,-1.2392,-1.2704,-1.4927,-1.7191,-1.7854,0.0,0.0,0.0,0.0,0.0,0.0,0.0,0.0,0.0,0.0,0.0,0.0,0.0,0.0,0.0,0.0,0.0,0.0,0.0,0.0,0.0,0.0,0.0,0.0,0.0,0.0,0.0,-2.5303,-2.5203,-2.501,-2.5203,-2.5274,-2.5224,-2.5274,-2.5303,-2.5303,-2.5303,-2.536,-2.5493,-2.5493,-2.5503,-2.5493,-2.5493,-2.5415,-2.5303,-2.5303,-2.5171,-2.4911,-2.4604,-2.4375,-2.419,-2.419,-2.419,-2.419,-2.419,-2.419,-2.419,-2.419,-2.419,-2.419,-2.419,-2.3816,-2.3414,-2.3346,-2.3021,-2.2695,-2.2695,-2.25,-2.231,-2.231,-2.231,-2.231,-2.231,-2.231,-2.231,-2.231,-2.2209,-2.2135,-2.2135,-2.1385,-2.0959,-2.1259,-2.0449,-1.9909,-2.0124,-1.9965,-1.9818,-1.9726,-1.969,-1.969,-1.969,-1.969,-1.9839,-2.0158,-2.0599,-2.1023,-2.146,-2.1899,-2.218,-2.231,-2.231,-2.231,-2.231,-2.231,-2.2398,-0.9478,-1.0968,-1.2511,-1.3387,-1.4324,0.0,-1.7315,-1.714,0.0,0.0,0.0,0.0,0.0,0.0,0.0,0.0,0.0,0.0,0.0,0.0,0.0,0.0,0.0,0.0,0.0,0.0,0.0,0.0,0.0,0.0,0.0,0.0,0.0,0.0,0.0,-2.5203,-2.501,-2.5203,-2.5214,-2.5022,-2.5214,-2.5303,-2.5303,-2.5303,-2.536,-2.5493,-2.5493,-2.5503,-2.5493,-2.5493,-2.5415,-2.5303,-2.5303,-2.5103,-2.479,-2.4575,-2.4375,-2.419,-2.419,-2.419,-2.419,-2.419,-2.419,-2.419,-2.419,-2.419,-2.419,-2.419,-2.417,-2.4054,-2.3735,-2.3189,-2.2695,-2.2695,-2.25,-2.231,-2.231,-2.231,-2.231,-2.231,-2.231,-2.231,-2.231,-2.1928,-2.1658,-2.1658,-2.0894,-2.0348,-2.0382,-2.0314,-2.0124,-1.9782,-2.0054,-2.0089,-1.9711,-1.969,-1.969,-1.969,-1.969,-1.9711,-1.9747,-2.0124,-2.0583,-2.1023,-2.143,-2.1853,-2.231,-2.231,-2.231,-2.231,-2.231,-2.231,-0.8802,-1.0491,-1.2235,-1.2711,0.0,0.0,0.0,0.0,0.0,0.0,0.0,0.0,0.0,0.0,0.0,0.0,0.0,0.0,0.0,0.0,0.0,0.0,0.0,0.0,0.0,0.0,0.0,0.0,0.0,0.0,0.0,0.0,0.0,0.0,0.0,-2.5203,-2.501,-2.5203,-2.5203,-2.501,-2.5203,-2.5303,-2.5303,-2.5303,-2.5346,-2.5447,-2.5473,-2.5505,-2.5492,-2.55,-2.5447,-2.5354,-2.5322,-2.5103,-2.479,-2.4716,-2.4478,-2.419,-2.419,-2.419,-2.419,-2.419,-2.419,-2.419,-2.419,-2.419,-2.419,-2.419,-2.419,-2.4113,-2.3795,-2.3369,-2.2972,-2.2746,-2.25,-2.231,-2.231,-2.231,-2.231,-2.231,-2.2061,-2.1853,-2.1853,-2.1718,-2.1538,-2.1275,-2.0959,-2.0731,-2.0731,-2.0261,-1.9965,-2.0054,-2.0,-1.9874,-1.9711,-1.969,-1.969,-1.969,-1.9929,-2.0054,-2.0054,-2.0748,-2.1197,-2.1368,-2.1811,-2.2106,-2.231,-2.231,-2.231,-2.231,-2.231,-2.2388,-0.8586,-1.0263,-1.2058,0.0,0.0,0.0,0.0,0.0,0.0,0.0,0.0,0.0,0.0,0.0,0.0,0.0,0.0,0.0,0.0,0.0,0.0,0.0,0.0,0.0,0.0,0.0,0.0,0.0,0.0,0.0,0.0,0.0,0.0,0.0,0.0,0.0,-2.501,-2.5203,-2.5203,-2.501,-2.5203,-2.5303,-2.5303,-2.5303,-2.5339,-2.5394,-2.5463,-2.5492,-2.5508,-2.5496,-2.5453,-2.5363,-2.5322,-2.5126,-2.4869,-2.4818,-2.4594,-2.4284,-2.4228,-2.419,-2.419,-2.419,-2.419,-2.419,-2.419,-2.419,-2.419,-2.419,-2.4113,-2.3958,-2.3628,-2.3369,-2.3117,-2.2772,-2.25,-2.231,-2.231,-2.231,-2.231,-2.231,-2.1928,-2.1582,-2.1582,-2.1352,-2.1102,-2.0813,-2.0665,-2.0599,-2.0599,-2.0174,-2.0,-2.028,-1.9929,-1.969,-1.969,-1.969,-1.969,-1.969,-2.0089,-2.0314,-2.0314,-2.1134,-2.1582,-2.1582,-2.2061,-2.231,-2.231,-2.231,-2.231,-2.231,-2.231,-2.2415,-0.9096,-1.0479,-1.2074,0.0,0.0,0.0,0.0,0.0,0.0,0.0,0.0,0.0,0.0,0.0,0.0,0.0,0.0,0.0,0.0,0.0,0.0,0.0,0.0,0.0,0.0,0.0,0.0,0.0,0.0,0.0,0.0,0.0,0.0,0.0,0.0,0.0,-2.501,-2.5203,-2.5203,-2.501,-2.5203,-2.5303,-2.5303,-2.5303,-2.5339,-2.5406,-2.5477,-2.5489,-2.5508,-2.5496,-2.5415,-2.5303,-2.5303,-2.5173,-2.4986,-2.4855,-2.467,-2.4461,-2.4266,-2.419,-2.419,-2.419,-2.419,-2.419,-2.419,-2.419,-2.419,-2.419,-2.3976,-2.361,-2.33,-2.3189,-2.3117,-2.2772,-2.25,-2.231,-2.231,-2.231,-2.231,-2.231,-2.1928,-2.1582,-2.1582,-2.0862,-2.0314,-2.028,-1.9965,-1.9711,-1.969,-2.007,-2.028,-2.028,-1.9929,-1.969,-1.969,-1.969,-1.969,-1.969,-2.0089,-2.0299,-2.0314,-2.1134,-2.1598,-2.1582,-2.2061,-2.2282,-2.231,-2.231,-2.231,-2.231,-2.231,-2.231,-0.9065,-1.0299,0.0,0.0,0.0,0.0,0.0,0.0,0.0,0.0,0.0,0.0,0.0,0.0,0.0,0.0,0.0,0.0,0.0,0.0,0.0,0.0,0.0,0.0,0.0,0.0,0.0,0.0,0.0,0.0,0.0,0.0,0.0,0.0,0.0,0.0,-2.501,-2.5046,-2.5046,-2.501,-2.5203,-2.5303,-2.5303,-2.5303,-2.5339,-2.5394,-2.5463,-2.5531,-2.5579,-2.5528,-2.5415,-2.5303,-2.5303,-2.5173,-2.4986,-2.4855,-2.467,-2.4461,-2.4266,-2.419,-2.419,-2.419,-2.419,-2.419,-2.419,-2.419,-2.419,-2.419,-2.3976,-2.361,-2.33,-2.3021,-2.2789,-2.249,-2.2377,-2.231,-2.231,-2.231,-2.231,-2.231,-2.1675,-2.1181,-2.1181,-2.0682,-2.0212,-1.9909,-2.0035,-2.0035,-1.9762,-1.9803,-1.9874,-1.9874,-1.9782,-1.969,-1.969,-1.969,-1.969,-1.969,-2.0413,-2.0649,-2.0314,-2.0878,-2.1306,-2.1582,-2.1718,-2.1957,-2.231,-2.231,-2.231,-2.231,-2.231,-2.231,-1.0,0.0,0.0,0.0,0.0,0.0,0.0,0.0,0.0,0.0,0.0,0.0,0.0,0.0,0.0,0.0,0.0,0.0,0.0,0.0,0.0,0.0,0.0,0.0,0.0,0.0,0.0,0.0,0.0,0.0,0.0,0.0,0.0,0.0,0.0,0.0,-2.501,-2.501,-2.501,-2.501,-2.5203,-2.5091,-2.4713,-2.5129,-2.5139,-2.4896,-2.4985,-2.5236,-2.5586,-2.5522,-2.5441,-2.5339,-2.5313,-2.5224,-2.5088,-2.4883,-2.4731,-2.4575,-2.4303,-2.419,-2.419,-2.419,-2.419,-2.419,-2.419,-2.419,-2.419,-2.419,-2.3858,-2.3437,-2.3236,-2.2865,-2.25,-2.2349,-2.231,-2.231,-2.231,-2.231,-2.231,-2.231,-2.1721,-2.1181,-2.1039,-2.0616,-2.0143,-1.9747,-1.9909,-1.9965,-1.9711,-1.969,-1.969,-1.969,-1.969,-1.969,-1.969,-1.969,-1.969,-1.969,-2.033,-2.0583,-2.0314,-2.1086,-2.1645,-2.1869,-2.1899,-2.2032,-2.231,-2.231,-2.231,-2.231,-2.231,-2.231,-1.135,0.0,0.0,0.0,0.0,0.0,0.0,0.0,0.0,0.0,0.0,0.0,0.0,0.0,0.0,0.0,0.0,0.0,0.0,0.0,0.0,0.0,0.0,0.0,0.0,0.0,0.0,0.0,0.0,0.0,0.0,0.0,0.0,0.0,0.0,0.0,-2.4943,-2.4974,-2.4974,0.0,-2.5105,-2.4664,-2.3793,-2.4762,-2.4803,-2.4118,-2.4241,-2.4791,-2.5583,-2.5539,-2.5471,-2.5379,-2.534,-2.5303,-2.5253,-2.491,-2.4804,-2.4746,-2.4339,-2.419,-2.419,-2.419,-2.419,-2.419,-2.419,-2.419,-2.419,-2.417,-2.3692,-2.3189,-2.3165,-2.2721,-2.231,-2.231,-2.231,-2.231,-2.231,-2.231,-2.231,-2.231,-2.1928,-2.146,-2.1055,-2.0616,-2.0143,-1.9747,-1.969,-1.969,-1.969,-1.969,-1.969,-1.969,-1.969,-1.969,-1.969,-1.969,-1.969,-1.969,-2.0089,-2.0314,-2.0314,-2.1507,-2.2209,-2.2237,-2.2237,-2.2254,-2.231,-2.231,-2.231,-2.231,-2.231,-2.231,0.0,-1.1442,0.0,0.0,0.0,0.0,0.0,0.0,0.0,0.0,0.0,0.0,0.0,0.0,0.0,0.0,0.0,0.0,0.0,0.0,0.0,0.0,0.0,0.0,0.0,0.0,0.0,0.0,0.0,0.0,0.0,0.0,0.0,0.0,0.0,-2.4409,-2.4604,-2.4771,-2.4771,0.0,-2.4277,-2.3926,-2.358,-2.4126,-2.4298,-2.4198,-2.4331,-2.4817,-2.5525,-2.5512,-2.5465,-2.5391,-2.534,-2.5303,-2.5253,-2.491,-2.4804,-2.4746,-2.4339,-2.419,-2.419,-2.419,-2.419,-2.419,-2.419,-2.419,-2.4151,-2.3876,-2.3522,-2.3141,-2.2873,-2.2554,-2.231,-2.231,-2.231,-2.231,-2.231,-2.231,-2.231,-2.231,-2.1928,-2.146,-2.1055,-2.0616,-2.0143,-1.9747,-1.969,-1.969,-1.969,-1.969,-1.969,-1.969,-1.969,-1.969,-1.969,-1.969,-1.969,-1.969,-2.0089,-2.0314,-2.0314,-2.0926,-2.1415,-2.1718,-2.1764,-2.1928,-2.231,-2.231,-2.231,-2.231,-2.231,-2.231,0.0,0.0,0.0,0.0,0.0,0.0,0.0,0.0,0.0,0.0,0.0,0.0,0.0,0.0,0.0,0.0,0.0,0.0,0.0,0.0,0.0,0.0,0.0,0.0,0.0,0.0,0.0,0.0,0.0,0.0,0.0,0.0,0.0,0.0,-2.2832,-2.3122,-2.33,-2.3405,-2.3405,-2.3297,-2.3151,-2.2866,-2.2469,-2.2729,-2.311,-2.3567,-2.3203,-2.3542,-2.4353,-2.4271,-2.4248,-2.429,-2.4587,-2.4736,-2.4726,-2.4777,-2.4804,-2.4746,-2.4339,-2.419,-2.419,-2.419,-2.419,-2.419,-2.419,-2.419,-2.4132,-2.3795,-2.3459,-2.3117,-2.2797,-2.25,-2.231,-2.231,-2.231,-2.231,-2.231,-2.231,-2.231,-2.231,-2.2106,-2.1735,-2.1103,-2.0465,-1.9929,-1.9711,-1.969,-1.969,-1.969,-1.969,-1.969,-1.969,-1.969,-1.969,-1.969,-1.969,-1.969,-1.969,-2.0089,-2.0314,-2.0314,-2.0764,-2.1181,-2.1582,-2.1582,-2.1718,-2.1974,-2.218,-2.218,-2.1957,-2.2209,-2.231,0.0,0.0,0.0,0.0,0.0,0.0,0.0,0.0,0.0,0.0,0.0,0.0,0.0,0.0,0.0,0.0,0.0,0.0,0.0,0.0,0.0,0.0,0.0,0.0,0.0,0.0,0.0,0.0,0.0,0.0,0.0,0.0,-2.1531,-2.1565,-2.1729,-2.185,-2.1965,-2.1977,-2.1977,-2.1965,-2.2018,-2.1706,-2.1081,-2.1185,-2.1756,-2.263,-2.1913,-2.2168,-2.3064,-2.2965,-2.2948,-2.3067,-2.3806,-2.4109,-2.4159,-2.4645,-2.4832,-2.4746,-2.4375,-2.4228,-2.419,-2.419,-2.419,-2.419,-2.419,-2.417,-2.4036,-2.3714,-2.3369,-2.3045,-2.2712,-2.2463,-2.231,-2.231,-2.231,-2.231,-2.231,-2.231,-2.231,-2.231,-2.2237,-2.1915,-2.1134,-2.033,-1.9782,-1.9711,-1.969,-1.969,-1.969,-1.969,-1.969,-1.969,-1.969,-1.969,-1.969,-1.969,-1.969,-1.969,-2.0,-2.0212,-2.0314,-2.0682,-2.1118,-2.1582,-2.1521,-2.1521,-2.1582,-2.2003,-2.2032,-2.1718,-2.2106,-2.231,0.0,0.0,0.0,0.0,0.0,0.0,0.0,0.0,0.0,0.0,0.0,0.0,0.0,0.0,0.0,0.0,0.0,0.0,0.0,0.0,0.0,0.0,0.0,0.0,0.0,0.0,0.0,0.0,0.0,0.0,0.0,-1.9957,-2.0498,-2.0668,-2.14,-2.182,-2.1835,-2.1937,-2.1937,-2.1817,-2.1269,-2.0709,-2.0165,-2.0203,-2.0736,-2.1691,-2.163,-2.2138,-2.2999,-2.2986,-2.2986,-2.3067,-2.3812,-2.4102,-2.4168,-2.4759,-2.4904,-2.4775,-2.4545,-2.4358,-2.419,-2.419,-2.419,-2.419,-2.419,-2.3996,-2.3692,-2.3369,-2.3021,-2.2712,-2.2426,-2.2338,-2.231,-2.231,-2.231,-2.231,-2.231,-2.231,-2.231,-2.231,-2.1957,-2.1538,-2.1086,-2.0565,-2.0089,-1.9747,-1.969,-1.969,-1.969,-1.969,-1.969,-1.969,-1.969,-1.969,-1.969,-1.969,-1.969,-1.969,-1.9747,-1.9945,-2.028,-2.0348,-2.0765,-2.1582,-2.1244,-2.1244,-2.1582,-2.1658,-2.1869,-2.2209,-2.2282,-2.231,-0.9696,0.0,0.0,0.0,0.0,0.0,0.0,0.0,0.0,0.0,0.0,0.0,0.0,0.0,0.0,0.0,0.0,0.0,0.0,0.0,0.0,0.0,0.0,0.0,0.0,0.0,0.0,0.0,0.0,0.0,-1.877,-1.911,-1.9399,-1.9644,-2.0025,-2.0293,-2.0407,-2.0446,-2.0446,-2.0407,-2.0204,-2.0045,-1.989,-1.9973,-2.0307,-2.0831,-2.0865,-2.1138,-2.1547,-2.1507,-2.1517,-2.1628,-2.241,-2.2979,-2.3457,-2.4083,-2.4537,-2.4775,-2.4559,-2.4375,-2.419,-2.419,-2.419,-2.419,-2.419,-2.4094,-2.3876,-2.3346,-2.3093,-2.289,-2.2415,-2.231,-2.231,-2.231,-2.231,-2.231,-2.231,-2.231,-2.231,-2.231,-2.1928,-2.1552,-2.1368,-2.0991,-2.0632,-2.0481,-2.0447,-2.033,-2.007,-2.0035,-1.9945,-1.9711,-1.969,-1.9782,-2.0035,-1.9854,-1.9782,-2.0035,-1.9803,-1.9874,-2.028,-2.0314,-2.0467,-2.0862,-2.1181,-2.143,-2.1582,-2.1853,-2.1957,-2.1899,-2.218,-2.231,0.0,0.0,0.0,0.0,0.0,0.0,0.0,0.0,0.0,0.0,0.0,0.0,0.0,0.0,0.0,0.0,0.0,0.0,0.0,0.0,0.0,0.0,0.0,0.0,0.0,0.0,0.0,0.0,0.0,0.0,-1.8489,-1.8489,-1.8623,-1.8896,-1.8896,-1.9,-1.9212,-1.9274,-1.932,-1.9365,-1.9485,-1.963,-1.979,-1.9912,-2.005,-2.0233,-2.0277,-2.0341,-2.0391,-2.0347,-2.0351,-2.0484,-2.1307,-2.2112,-2.288,-2.3609,-2.4258,-2.4775,-2.4623,-2.441,-2.419,-2.419,-2.419,-2.419,-2.419,-2.4151,-2.3937,-2.3369,-2.3141,-2.2965,-2.2443,-2.231,-2.231,-2.231,-2.231,-2.231,-2.231,-2.231,-2.2254,-2.2152,-2.1823,-2.1521,-2.1321,-2.1007,-2.0797,-2.0698,-2.0665,-2.0532,-2.0193,-2.0246,-2.0158,-1.9747,-1.9782,-1.9929,-2.0124,-1.9874,-1.9874,-2.028,-1.9909,-1.9945,-2.0449,-2.0348,-2.0348,-2.0483,-2.1102,-2.143,-2.143,-2.1811,-2.1899,-2.1794,-2.2003,-2.2106,0.0,0.0,0.0,0.0,0.0,0.0,0.0,0.0,0.0,0.0,0.0,0.0,0.0,0.0,0.0,0.0,0.0,0.0,0.0,0.0,0.0,0.0,0.0,0.0,0.0,0.0,0.0,0.0,0.0,0.0,-1.8208,-1.8229,-1.8351,-1.8604,-1.8604,-1.8752,-1.9001,-1.9196,-1.9413,-1.9569,-1.9394,-1.949,-1.979,-1.9821,-1.989,-2.0022,-2.0225,-2.0341,-2.041,-2.0391,-2.0407,-2.0484,-2.1355,-2.2139,-2.2889,-2.3774,-2.4385,-2.4804,-2.479,-2.4528,-2.419,-2.419,-2.419,-2.419,-2.419,-2.3976,-2.3649,-2.33,-2.2972,-2.266,-2.236,-2.231,-2.231,-2.231,-2.231,-2.231,-2.231,-2.231,-2.218,-2.1718,-2.1628,-2.1321,-2.0501,-2.0348,-2.0227,-1.9818,-1.9747,-1.9747,-1.9711,-2.0054,-2.0158,-1.9747,-2.0035,-2.0124,-1.9747,-1.9711,-1.9874,-2.028,-1.9909,-2.0085,-2.0926,-2.055,-2.0516,-2.0959,-2.1007,-2.1023,-2.1023,-2.1071,-2.1493,-2.2237,-2.1823,-2.1658,0.0,0.0,0.0,0.0,0.0,0.0,0.0,0.0,0.0,0.0,0.0,0.0,0.0,0.0,0.0,0.0,0.0,0.0,0.0,0.0,0.0,0.0,0.0,0.0,0.0,0.0,0.0,0.0,0.0,0.0,-1.7949,-1.7949,-1.8078,-1.833,-1.8351,-1.8547,-1.9002,-1.9069,-1.9214,-1.9413,-1.9335,-1.9438,-1.9669,-1.9669,-1.9778,-1.9993,-2.0078,-2.0192,-2.0332,-2.0374,-2.0393,-2.0437,-2.0744,-2.1671,-2.2902,-2.3165,-2.3973,-2.4917,-2.4828,-2.4623,-2.4375,-2.4247,-2.419,-2.419,-2.419,-2.3976,-2.3628,-2.3282,-2.2989,-2.2669,-2.2377,-2.231,-2.231,-2.231,-2.231,-2.2209,-2.1928,-2.2106,-2.2237,-2.2077,-2.1794,-2.1491,-2.1197,-2.091,-2.0698,-2.0565,-2.0532,-2.0431,-2.0124,-2.0212,-2.0158,-1.9747,-1.9854,-1.9965,-2.007,-1.9839,-1.9874,-2.028,-1.9909,-1.9945,-2.0516,-2.0382,-2.0382,-2.055,-2.055,-2.0698,-2.0991,-2.0991,-2.1166,-2.1462,-2.1568,-2.1582,-0.856,0.0,0.0,0.0,0.0,0.0,0.0,0.0,0.0,0.0,0.0,0.0,0.0,0.0,0.0,0.0,0.0,0.0,0.0,0.0,0.0,0.0,0.0,0.0,0.0,0.0,0.0,0.0,0.0,0.0,-1.7789,-1.7811,-1.7883,-1.8078,-1.8146,-1.841,-1.8843,-1.8949,-1.9084,-1.9305,-1.9305,-1.9365,-1.9499,-1.9569,-1.9713,-1.9943,-1.9974,-2.0099,-2.0313,-2.0366,-2.0402,-2.039,-2.0405,-2.124,-2.2481,-2.272,-2.3522,-2.4537,-2.4733,-2.4623,-2.4375,-2.4247,-2.419,-2.419,-2.419,-2.4036,-2.3774,-2.3323,-2.3063,-2.2841,-2.2405,-2.231,-2.231,-2.231,-2.218,-2.1974,-2.1658,-2.1823,-2.1974,-2.1675,-2.1368,-2.1134,-2.0975,-2.0731,-2.0565,-2.0565,-2.0565,-2.0431,-2.0124,-2.0227,-2.0158,-1.9747,-1.9818,-1.9929,-2.0089,-1.9839,-1.9874,-2.028,-1.9909,-1.9874,-2.028,-2.0193,-2.0089,-2.0089,-2.0089,-2.0261,-2.0565,-2.0698,-2.0862,-2.1007,-2.1275,-2.146,0.0,0.0,0.0,0.0,0.0,0.0,0.0,0.0,0.0,0.0,0.0,0.0,0.0,0.0,0.0,0.0,0.0,0.0,0.0,0.0,0.0,0.0,0.0,0.0,0.0,0.0,0.0,0.0,0.0,-1.7415,-1.7766,-1.7789,-1.7789,-1.7811,-1.804,-1.831,-1.8603,-1.8843,-1.9084,-1.9289,-1.9289,-1.9305,-1.9305,-1.9499,-1.9669,-1.9821,-1.9943,-2.0118,-2.0313,-2.0361,-2.0399,-2.039,-2.0408,-2.0896,-2.1694,-2.2508,-2.3095,-2.3639,-2.4488,-2.4526,-2.4209,-2.419,-2.419,-2.419,-2.419,-2.419,-2.4036,-2.3392,-2.3189,-2.3038,-2.2443,-2.2282,-2.2282,-2.2282,-2.1928,-2.1582,-2.1552,-2.1552,-2.1321,-2.0467,-2.0314,-2.0193,-1.9782,-1.9726,-1.969,-1.969,-1.969,-1.969,-1.969,-2.0035,-2.0124,-1.9747,-2.007,-2.0124,-1.9711,-1.969,-1.9874,-2.0246,-1.9909,-1.9874,-2.028,-1.9909,-1.969,-1.969,-1.969,-1.969,-1.969,-2.0089,-2.0516,-2.0959,-2.1007,-2.1213,-0.8694,0.0,0.0,0.0,0.0,0.0,0.0,0.0,0.0,0.0,0.0,0.0,0.0,0.0,0.0,0.0,0.0,0.0,0.0,0.0,0.0,0.0,0.0,0.0,0.0,0.0,0.0,0.0,-1.6799,-1.6993,-1.7068,-1.7313,-1.7549,-1.7789,-1.7861,-1.8035,-1.831,-1.8566,-1.8843,-1.9067,-1.9227,-1.9305,-1.9305,-1.935,-1.9532,-1.979,-1.9836,-2.0031,-2.0299,-2.0326,-2.0351,-2.0397,-2.0346,-2.0876,-2.1764,-2.2512,-2.3285,-2.4017,-2.4604,-2.4731,-2.4594,-2.4284,-2.419,-2.419,-2.419,-2.3858,-2.3437,-2.3236,-2.2883,-2.2508,-2.2349,-2.2032,-2.1794,-2.1794,-2.1477,-2.1086,-2.0732,-2.0667,-2.0682,-2.0797,-2.0516,-2.028,-2.0158,-1.9909,-1.969,-1.969,-1.969,-1.969,-1.969,-1.9818,-1.9803,-1.9711,-1.9818,-1.9818,-1.9726,-1.969,-1.9747,-1.9874,-1.9747,-1.9747,-1.9874,-1.9747,-1.969,-1.969,-1.969,-1.969,-1.969,-1.9803,-1.9945,-2.0085,-2.0714,-2.1213,0.0,0.0,0.0,0.0,0.0,0.0,0.0,0.0,0.0,0.0,0.0,0.0,0.0,0.0,0.0,0.0,0.0,0.0,0.0,0.0,0.0,0.0,0.0,0.0,0.0,0.0,0.0,0.0,-1.6208,-1.6257,-1.6392,-1.6415,-1.6779,-1.7555,-1.7423,-1.7603,-1.8187,-1.8351,-1.8566,-1.8843,-1.9067,-1.9182,-1.9182,-1.9259,-1.9472,-1.979,-1.979,-1.9991,-2.0292,-2.0294,-2.0344,-2.0406,-2.0365,-2.0685,-2.1245,-2.198,-2.2526,-2.3024,-2.3941,-2.4204,-2.4139,-2.4192,-2.419,-2.419,-2.419,-2.3816,-2.3392,-2.3236,-2.2773,-2.231,-2.231,-2.2106,-2.1823,-2.1658,-2.1275,-2.0862,-2.0416,-2.0158,-2.0124,-2.0398,-2.0227,-2.007,-2.007,-1.9839,-1.969,-1.969,-1.969,-1.969,-1.969,-1.969,-1.9747,-1.9929,-1.9818,-1.9782,-1.9945,-1.9782,-1.969,-1.969,-1.9874,-1.9929,-1.9929,-1.9929,-2.0035,-2.0243,-1.9889,-1.9782,-1.9945,-1.9782,-1.9889,-2.0243,-2.0926,-2.1477,0.0,0.0,0.0,0.0,0.0,0.0,-1.0913,-1.1106,0.0,0.0,0.0,0.0,0.0,0.0,0.0,0.0,0.0,0.0,0.0,0.0,0.0,0.0,0.0,0.0,0.0,0.0,-1.5896,-1.6111,-1.5505,-1.528,-1.5615,-1.531,-1.5748,-1.704,-1.6814,-1.7126,-1.8007,-1.8153,-1.831,-1.8547,-1.8861,-1.9002,-1.9019,-1.9214,-1.9476,-1.9786,-1.9778,-1.9981,-2.0277,-2.03,-2.0334,-2.0409,-2.0381,-2.0386,-2.0491,-2.1241,-2.1396,-2.1428,-2.2867,-2.3307,-2.3328,-2.3897,-2.4135,-2.419,-2.4151,-2.3917,-2.3566,-2.3141,-2.2643,-2.2209,-2.218,-2.2123,-2.1974,-2.1552,-2.115,-2.0764,-2.0382,-2.0035,-1.9782,-1.9854,-1.9818,-1.9782,-1.9854,-1.9782,-1.9782,-1.9782,-1.9726,-1.9726,-1.9747,-1.9782,-1.9909,-2.0348,-2.007,-1.998,-2.0348,-2.0035,-1.9854,-1.9854,-2.0193,-2.0382,-2.0382,-2.0382,-2.0583,-2.0991,-2.0243,-2.0,-2.0382,-2.0,-2.0243,-2.1007,-2.1399,-2.1823,-1.2499,-1.2583,-1.2734,0.0,0.0,0.0,0.0,-1.05,0.0,0.0,0.0,0.0,0.0,0.0,0.0,0.0,0.0,0.0,0.0,0.0,0.0,0.0,0.0,0.0,0.0,0.0,-1.5602,-1.5131,-1.4468,-1.4252,-1.4578,-1.4722,-1.5054,-1.5588,-1.6315,-1.6787,-1.7003,-1.7811,-1.8229,-1.829,-1.877,-1.9002,-1.9019,-1.9214,-1.9423,-1.9649,-1.975,-1.989,-2.0078,-2.0229,-2.0341,-2.0398,-2.0338,-2.0345,-2.05,-2.1287,-2.1521,-2.155,-2.2274,-2.2938,-2.342,-2.3288,-2.3676,-2.4151,-2.3876,-2.3566,-2.31,-2.2169,-2.1849,-2.1658,-2.1354,-2.0975,-2.0682,-2.0583,-2.0261,-2.0015,-2.0246,-2.0246,-2.028,-2.0665,-2.0431,-2.028,-2.0665,-2.0416,-2.0193,-2.0193,-1.9909,-1.9818,-2.0158,-2.0193,-2.0348,-2.0829,-2.0797,-2.0764,-2.0862,-2.0797,-2.0731,-2.0731,-2.0829,-2.0862,-2.0862,-2.0862,-2.0894,-2.0991,-2.0829,-2.0797,-2.0862,-2.0797,-2.0829,-2.1007,-2.1399,-2.1658,0.0,-1.3921,-1.3975,-1.3078,0.0,0.0,0.0,0.0,0.0,0.0,0.0,0.0,0.0,0.0,0.0,0.0,0.0,0.0,0.0,0.0,0.0,0.0,0.0,0.0,0.0,0.0,-1.4513,-1.384,-1.3481,-1.3368,-1.3527,-1.3493,-1.4012,-1.5199,-1.572,-1.6285,-1.6981,-1.7657,-1.8014,-1.8014,-1.8547,-1.8789,-1.8807,-1.9148,-1.9409,-1.9596,-1.9738,-1.988,-2.0022,-2.0231,-2.0338,-2.0398,-2.0355,-2.0365,-2.0441,-2.082,-2.0932,-2.1048,-2.2045,-2.2602,-2.2952,-2.3553,-2.3841,-2.3917,-2.3735,-2.3346,-2.2754,-2.1845,-2.1582,-2.1491,-2.1086,-2.0829,-2.0649,-2.0649,-2.0499,-2.0398,-2.0599,-2.0649,-2.0781,-2.1213,-2.1102,-2.0975,-2.0991,-2.0797,-2.0649,-2.0649,-2.0296,-2.0158,-2.0583,-2.0449,-2.055,-2.1244,-2.1118,-2.1086,-2.1275,-2.1134,-2.0991,-2.0991,-2.1181,-2.1306,-2.1306,-2.1306,-2.1213,-2.0991,-2.1432,-2.1524,-2.1306,-2.1524,-2.1524,-2.1306,-2.1735,-2.1957,0.0,0.0,0.0,0.0,0.0,-1.4227,0.0,0.0,0.0,-1.3941,0.0,0.0,0.0,0.0,0.0,0.0,0.0,0.0,0.0,0.0,0.0,0.0,0.0,0.0,0.0,0.0,-1.3217,-1.2737,-1.2515,-1.2425,-1.2513,-1.2314,-1.3047,-1.4829,-1.5018,-1.5759,-1.7082,-1.7505,-1.7743,-1.7811,-1.829,-1.8547,-1.8604,-1.9049,-1.935,-1.9555,-1.9726,-1.9858,-1.9983,-2.0216,-2.0341,-2.0398,-2.0398,-2.0403,-2.0383,-2.0332,-2.0308,-2.048,-2.1807,-2.2254,-2.2486,-2.3833,-2.3969,-2.3588,-2.3588,-2.3159,-2.2476,-2.1774,-2.1582,-2.1491,-2.1086,-2.0991,-2.0991,-2.0991,-2.0991,-2.1023,-2.1086,-2.1134,-2.1244,-2.1658,-2.1658,-2.1538,-2.1291,-2.1197,-2.1134,-2.1134,-2.0715,-2.0583,-2.1055,-2.0781,-2.083,-2.1658,-2.1446,-2.1354,-2.1582,-2.1306,-2.1086,-2.0991,-2.1306,-2.1491,-2.1491,-2.1491,-2.1337,-2.1007,-2.1691,-2.1899,-2.1582,-2.1974,-2.2032,-2.1748,-2.2106,-2.231,0.0,0.0,0.0,0.0,-1.6199,0.0,0.0,0.0,-1.4269,-1.2925,0.0,0.0,0.0,0.0,0.0,0.0,0.0,0.0,0.0,0.0,0.0,0.0,0.0,0.0,0.0,0.0,0.0,-1.2323,-1.1534,-1.1156,-1.145,-1.1927,-1.2576,-1.3412,-1.4304,-1.5269,-1.6295,-1.7007,-1.7502,-1.7811,-1.8103,-1.8371,-1.8604,-1.8896,-1.9134,-1.935,-1.9657,-1.9802,-1.9855,-2.0162,-2.0341,-2.0391,-2.0402,-2.0409,-2.0406,-2.0383,-2.0357,-2.0411,-2.1168,-2.1888,-2.2569,-2.3221,-2.336,-2.3277,-2.3277,-2.2849,-2.2248,-2.1748,-2.1582,-2.1491,-2.1086,-2.0991,-2.0991,-2.0991,-2.0991,-2.1086,-2.146,-2.1521,-2.1658,-2.2135,-2.1882,-2.1718,-2.2077,-2.1811,-2.1521,-2.1521,-2.1181,-2.1086,-2.1491,-2.1491,-2.1658,-2.218,-2.218,-2.2003,-2.1628,-2.1552,-2.1368,-2.1023,-2.1023,-2.1055,-2.1055,-2.1055,-2.1055,-2.0991,-2.1103,-2.1291,-2.1582,-2.1658,-2.1869,-2.2209,-2.2282,-2.231,0.0,0.0,0.0,0.0,0.0,0.0,0.0,0.0,-1.4942,0.0,0.0,0.0,0.0,0.0,0.0,0.0,0.0,0.0,0.0,0.0,0.0,0.0,0.0,0.0,0.0,0.0,0.0,0.0,0.0,-1.104,-1.1571,-1.1833,-1.2462,-1.35,-1.4148,-1.5137,-1.654,-1.7052,-1.7479,-1.7811,-1.8061,-1.8351,-1.8604,-1.8878,-1.9101,-1.932,-1.9657,-1.979,-1.9832,-2.0162,-2.0314,-2.0342,-2.0379,-2.0408,-2.041,-2.041,-2.0369,-2.0477,-2.1741,-2.2315,-2.2638,-2.3436,-2.3613,-2.3414,-2.3021,-2.2738,-2.2402,-2.179,-2.1582,-2.1491,-2.1086,-2.0991,-2.1055,-2.1275,-2.1337,-2.1399,-2.1552,-2.1582,-2.1598,-2.1554,-2.1385,-2.1306,-2.1524,-2.1385,-2.1337,-2.1552,-2.1039,-2.0748,-2.1213,-2.1007,-2.1039,-2.1493,-2.1554,-2.1462,-2.1275,-2.1244,-2.1181,-2.0991,-2.0991,-2.0991,-2.0991,-2.0991,-2.0991,-2.0991,-2.0991,-2.1086,-2.1244,-2.1491,-2.1688,-2.1899,-2.2163,-2.231,-1.8095,0.0,0.0,0.0,0.0,0.0,0.0,0.0,0.0,0.0,0.0,0.0,0.0,0.0,0.0,0.0,0.0,0.0,0.0,0.0,0.0,0.0,0.0,0.0,0.0,0.0,0.0,0.0,0.0,0.0,-1.1615,-1.1925,-1.2598,-1.3765,-1.4206,-1.5202,-1.6773,-1.7052,-1.7384,-1.7811,-1.7992,-1.827,-1.8622,-1.8789,-1.9051,-1.932,-1.9657,-1.979,-1.9832,-2.0162,-2.0306,-2.0319,-2.0366,-2.0403,-2.0405,-2.0398,-2.036,-2.0515,-2.1955,-2.2584,-2.2918,-2.3899,-2.3967,-2.361,-2.3117,-2.2848,-2.2591,-2.2046,-2.1849,-2.1718,-2.1415,-2.137,-2.1385,-2.1552,-2.1582,-2.1552,-2.146,-2.143,-2.1337,-2.1055,-2.0894,-2.0862,-2.0959,-2.0991,-2.1086,-2.1399,-2.091,-2.0616,-2.0975,-2.0682,-2.0616,-2.0959,-2.0991,-2.0959,-2.0829,-2.0797,-2.0764,-2.0632,-2.0632,-2.0698,-2.0797,-2.0797,-2.0862,-2.0991,-2.0991,-2.1055,-2.115,-2.146,-2.1658,-2.1794,-2.2135,-2.231,0.0,0.0,0.0,-1.8178,0.0,0.0,0.0,0.0,-1.6467,0.0,0.0,0.0,0.0,0.0,0.0,0.0,0.0,0.0,0.0,0.0,0.0,0.0,0.0,0.0,0.0,0.0,0.0,0.0,0.0,0.0,-1.1261,-1.2228,-1.3077,-1.3795,-1.4423,-1.543,-1.6789,-1.6815,-1.7142,-1.7811,-1.7811,-1.8082,-1.8585,-1.8604,-1.886,-1.932,-1.9657,-1.979,-1.9832,-2.0162,-2.0306,-2.0319,-2.0366,-2.0404,-2.0409,-2.0402,-2.0352,-2.043,-2.1247,-2.2397,-2.3606,-2.4492,-2.43,-2.3692,-2.3671,-2.3212,-2.2695,-2.2669,-2.2473,-2.2265,-2.2254,-2.2254,-2.2152,-2.1688,-2.1582,-2.1491,-2.1086,-2.1023,-2.1039,-2.0991,-2.0616,-2.0483,-2.0926,-2.0991,-2.0991,-2.1023,-2.0991,-2.0991,-2.0991,-2.1007,-2.0991,-2.0991,-2.0991,-2.0829,-2.0348,-2.0314,-2.0158,-1.9747,-1.9747,-1.9909,-2.0314,-2.0314,-2.055,-2.0991,-2.0991,-2.1181,-2.1582,-2.1582,-2.1823,-2.2282,-2.2282,-2.231,0.0,0.0,-1.9678,-1.8693,0.0,0.0,0.0,0.0,0.0,0.0,0.0,0.0,0.0,0.0,0.0,0.0,0.0,0.0,0.0,0.0,0.0,0.0,0.0,0.0,0.0,0.0,0.0,0.0,0.0,0.0,0.0,-1.1829,-1.2643,-1.3765,-1.4034,-1.5016,-1.6773,-1.6789,-1.7142,-1.7811,-1.7992,-1.8249,-1.8622,-1.8789,-1.9016,-1.932,-1.9657,-1.979,-1.9832,-2.0162,-2.0308,-2.0313,-2.0371,-2.039,-2.0408,-2.0402,-2.0352,-2.0482,-2.1722,-2.2691,-2.3506,-2.4329,-2.4192,-2.3671,-2.3455,-2.3069,-2.2643,-2.249,-2.2158,-2.184,-2.184,-2.1645,-2.1385,-2.1244,-2.1213,-2.1086,-2.0616,-2.055,-2.0333,-1.9728,-1.9492,-1.9295,-1.9119,-1.9082,-1.9411,-2.04,-2.0296,-2.0139,-2.0139,-2.0139,-2.0139,-2.0139,-2.0139,-2.0085,-1.9909,-1.9909,-1.9839,-1.9726,-1.9945,-2.0035,-1.9909,-2.0465,-2.0682,-2.055,-2.0829,-2.1055,-2.1213,-2.146,-2.1688,-2.1823,-2.2152,-2.231,-1.9354,-1.9657,0.0,-1.8869,-1.8295,0.0,-1.7011,0.0,0.0,0.0,0.0,0.0,0.0,0.0,0.0,0.0,0.0,0.0,0.0,0.0,0.0,0.0,0.0,0.0,0.0,0.0,-1.104,-1.1222,0.0,0.0,0.0,0.0,-1.2538,-1.3421,-1.369,-1.4587,-1.6253,-1.6381,-1.6857,-1.7635,-1.791,-1.8249,-1.8622,-1.877,-1.9034,-1.932,-1.9657,-1.979,-1.9832,-2.0162,-2.0312,-2.0308,-2.0362,-2.041,-2.0393,-2.041,-2.0357,-2.0513,-2.198,-2.2678,-2.3048,-2.4018,-2.4041,-2.3649,-2.33,-2.2972,-2.2617,-2.2337,-2.194,-2.1582,-2.1582,-2.1306,-2.0991,-2.0991,-2.0748,-2.0366,-1.9919,-1.9814,-1.9636,-1.9043,-1.9043,-1.908,-1.8727,-1.865,-1.8864,-1.9426,-1.9449,-1.9406,-1.9406,-1.9406,-1.9551,-1.9874,-1.9609,-1.9479,-1.969,-1.969,-1.969,-1.969,-1.9929,-2.0035,-1.9909,-2.0465,-2.0682,-2.055,-2.0862,-2.0991,-2.0991,-2.1399,-2.1582,-2.1628,-2.2077,-2.2349]},{"header":{"parameterUnit":"m.s-1","parameterCategory":1,"la1":30.6,"la2":29.2853,"lo1":-89.7004,"lo2":-87.6739,"dy":0.0162,"dx":0.0183,"nx":112,"ny":82,"refTime":"2024-06-29T18:00:00:Z","depth":0,"parameterNumber":3,"parameterNumberName":"V-component_of_WINDS"},"data":[0.0,0.0,0.0,0.0,0.0,0.0,0.0,0.0,0.0,0.0,0.0,0.0,0.0,0.0,0.0,0.0,0.0,0.0,0.0,0.0,0.0,0.0,0.0,0.0,0.0,0.0,0.0,0.0,0.0,0.0,0.0,0.0,0.0,0.0,0.0,0.0,0.0,0.0,0.0,0.0,0.0,0.0,0.0,0.0,0.0,0.0,0.0,0.0,0.0,0.0,0.0,0.0,0.0,0.0,0.0,0.0,0.0,0.0,0.0,0.0,0.0,0.0,0.0,0.0,0.0,0.0,0.0,0.0,0.0,0.0,0.0,0.0,0.0,0.0,0.0,0.0,0.0,0.0,0.0,0.0,0.0,0.0,0.0,0.0,0.0,0.0,0.0,0.0,0.0,0.0,0.0,-0.3809,-0.4222,-0.4519,-0.4519,-0.4311,-0.4033,-0.3694,0.0,0.0,0.0,0.0,0.0,0.0,0.0,0.0,0.0,0.0,0.0,0.0,0.0,0.0,0.0,0.0,0.0,0.0,0.0,0.0,0.0,0.0,0.0,0.0,0.0,0.0,0.0,0.0,0.0,0.0,0.0,0.0,0.0,0.0,0.0,0.0,0.0,0.0,0.0,0.0,0.0,0.0,0.0,0.0,0.0,0.0,0.0,0.0,0.0,0.0,0.0,0.0,0.0,0.0,0.0,0.0,0.0,0.0,0.0,0.0,0.0,0.0,0.0,0.0,0.0,0.0,0.0,0.0,0.0,0.0,0.0,0.0,0.0,0.0,0.0,0.0,0.0,0.0,0.0,0.0,0.0,0.0,0.0,0.0,0.0,0.0,0.0,0.0,0.0,0.0,0.0,0.0,0.0,0.0,0.0,0.0,0.0,0.0,0.0,0.0,0.0,0.0,0.0,0.0,-0.335,-0.4053,-0.4348,-0.4519,-0.4519,-0.4212,-0.4059,-0.412,0.0,0.0,0.0,0.0,0.0,0.0,0.0,0.0,0.0,0.0,0.0,0.0,0.0,0.0,0.0,0.0,0.0,0.0,0.0,0.0,0.0,0.0,0.0,0.0,0.0,0.0,0.0,0.0,0.0,0.0,0.0,0.0,0.0,0.0,0.0,0.0,0.0,0.0,0.0,0.0,0.0,0.0,0.0,0.0,0.0,0.0,0.0,0.0,0.0,0.0,0.0,0.0,0.0,0.0,0.0,0.0,0.0,0.0,0.0,0.0,0.0,0.0,0.0,0.0,0.0,0.0,0.0,0.0,0.0,0.0,0.0,0.0,0.0,0.0,0.0,0.0,0.0,0.0,0.0,0.0,0.0,0.0,0.0,0.0,0.0,0.0,0.0,0.0,0.0,0.0,0.0,0.0,0.0,0.0,0.0,0.0,0.0,0.0,0.0,0.0,0.0,0.0,0.0,-0.3715,-0.3907,-0.4195,-0.4375,-0.4429,-0.4355,-0.4144,-0.4047,-0.4107,-0.3403,0.0,0.0,0.0,0.0,0.0,0.0,0.0,0.0,0.0,0.0,0.0,0.0,0.0,0.0,0.0,0.0,0.0,0.0,0.0,0.0,0.0,0.0,0.0,0.0,0.0,0.0,0.0,0.0,0.0,0.0,0.0,0.0,0.0,0.0,0.0,0.0,0.0,0.0,0.0,0.0,0.0,0.0,0.0,0.0,0.0,0.0,0.0,0.0,0.0,0.0,0.0,0.0,0.0,0.0,0.0,0.0,0.0,0.0,0.0,0.0,0.0,0.0,0.0,0.0,0.0,0.0,0.0,0.0,0.0,0.0,0.0,0.0,0.0,0.0,0.0,0.0,0.0,0.0,0.0,0.0,0.0,0.0,0.0,0.0,0.0,0.0,0.0,0.0,0.0,0.0,0.0,0.0,0.0,0.0,0.0,0.0,0.0,0.0,0.0,0.0,0.0,0.0,-0.4484,-0.4577,-0.4677,-0.4854,-0.4888,-0.4673,-0.4439,-0.4299,-0.435,-0.3625,0.0,0.0,0.0,0.0,0.0,0.0,0.0,0.0,0.0,0.0,0.0,0.0,0.0,0.0,0.0,0.0,0.0,0.0,0.0,0.0,0.0,0.0,0.0,0.0,0.0,0.0,0.0,0.0,0.0,0.0,0.0,0.0,0.0,0.0,0.0,0.0,0.0,0.0,0.0,0.0,0.0,0.0,0.0,0.0,0.0,0.0,0.0,0.0,0.0,0.0,0.0,0.0,0.0,0.0,0.0,0.0,0.0,0.0,0.0,0.0,0.0,0.0,0.0,0.0,0.0,0.0,0.0,0.0,0.0,0.0,0.0,0.0,0.0,0.0,0.0,0.0,0.0,0.0,0.0,0.0,0.0,0.0,0.0,0.0,0.0,0.0,0.0,0.0,0.0,0.0,0.0,0.0,0.0,0.0,0.0,0.0,0.0,0.0,0.0,0.0,0.0,0.0,-0.4965,-0.5295,-0.6013,-0.6289,-0.6333,-0.6108,-0.5442,-0.5119,-0.5389,-0.4183,0.0,0.0,0.0,0.0,0.0,0.0,0.0,0.0,0.0,0.0,0.0,0.0,0.0,0.0,0.0,0.0,0.0,0.0,0.0,0.0,0.0,0.0,0.0,0.0,0.0,0.0,0.0,0.0,0.0,0.0,0.0,0.0,0.0,0.0,0.0,0.0,0.0,0.0,0.0,0.0,0.0,0.0,0.0,0.0,0.0,0.0,0.0,0.0,0.0,0.0,0.0,0.0,0.0,0.0,0.0,0.0,0.0,0.0,0.0,0.0,0.0,0.0,0.0,0.0,0.0,0.0,0.0,0.0,0.0,0.0,0.0,0.0,0.0,0.0,0.0,0.0,0.0,0.0,0.0,0.0,0.0,0.0,0.0,0.0,0.0,0.0,0.0,0.0,0.0,0.0,0.0,0.0,0.0,0.0,0.0,0.0,0.0,0.0,0.0,0.0,0.0,0.0,-0.535,-0.5682,0.0,-0.5987,-0.6032,-0.576,-0.5523,-0.5285,-0.5117,0.0,0.0,0.0,0.0,0.0,0.0,0.0,0.0,0.0,0.0,0.0,0.0,0.0,0.0,0.0,0.0,0.0,0.0,0.0,0.0,0.0,0.0,0.0,0.0,0.0,0.0,0.0,0.0,0.0,0.0,0.0,0.0,0.0,0.0,0.0,0.0,0.0,0.0,0.0,0.0,0.0,0.0,0.0,0.0,0.0,0.0,0.0,0.0,0.0,0.0,0.0,0.0,0.0,0.0,0.0,0.0,0.0,0.0,0.0,0.0,0.0,0.0,0.0,0.0,0.0,0.0,0.0,0.0,0.0,0.0,0.0,0.0,0.0,0.0,0.0,0.0,0.0,0.0,0.0,0.0,0.0,0.0,0.0,0.0,0.0,0.0,0.0,0.0,0.0,0.0,0.0,0.0,0.0,0.0,0.0,0.0,0.0,0.0,0.0,0.0,0.0,0.0,-0.5088,-0.5756,-0.6179,0.0,-0.6313,-0.6356,-0.6162,-0.5892,-0.5566,-0.5162,0.0,0.0,0.0,0.0,0.0,0.0,0.0,0.0,0.0,0.0,0.0,0.0,0.0,0.0,0.0,0.0,0.0,0.0,0.0,0.0,0.0,0.0,0.0,0.0,0.0,0.0,0.0,0.0,0.0,0.0,0.0,0.0,0.0,0.0,0.0,0.0,0.0,0.0,0.0,0.0,0.0,0.0,0.0,0.0,0.0,0.0,0.0,0.0,0.0,0.0,0.0,0.0,0.0,0.0,0.0,0.0,0.0,0.0,0.0,0.0,0.0,0.0,0.0,0.0,0.0,0.0,0.0,0.0,0.0,0.0,0.0,0.0,0.0,0.0,0.0,0.0,0.0,0.0,0.0,0.0,0.0,0.0,0.0,0.0,0.0,0.0,0.0,0.0,0.0,0.0,0.0,0.0,0.0,0.0,0.0,0.0,0.0,0.0,0.0,0.0,0.0,0.0,-0.5597,-0.6247,-0.6832,-0.7417,-0.7736,-0.7796,-0.7533,-0.67,-0.6068,0.0,0.0,0.0,0.0,0.0,0.0,0.0,0.0,0.0,0.0,0.0,0.0,0.0,0.0,0.0,0.0,0.0,0.0,0.0,0.0,0.0,0.0,0.0,0.0,0.0,0.0,0.0,0.0,0.0,0.0,0.0,0.0,0.0,0.0,0.0,0.0,0.0,0.0,0.0,0.0,0.0,0.0,0.0,0.0,0.0,0.0,0.0,0.0,0.0,0.0,0.0,0.0,0.0,0.0,0.0,0.0,0.0,0.0,0.0,0.0,0.0,0.0,0.0,0.0,0.0,0.0,0.0,0.0,0.0,0.0,0.0,0.0,0.0,0.0,0.0,0.0,0.0,0.0,0.0,0.0,0.0,0.0,0.0,0.0,0.0,0.0,0.0,0.0,0.0,0.0,0.0,0.0,0.0,0.0,0.0,0.0,0.0,0.0,0.0,0.0,0.0,0.0,0.0,-0.5397,-0.6272,-0.694,-0.7111,-0.7235,-0.7255,-0.7161,-0.6727,-0.6159,-0.5451,0.0,0.0,0.0,0.0,0.0,0.0,0.0,0.0,0.0,0.0,0.0,0.0,0.0,0.0,0.0,0.0,0.0,0.0,0.0,0.0,0.0,0.0,0.0,0.0,0.0,0.0,0.0,0.0,0.0,0.0,0.0,0.0,0.0,0.0,0.0,0.0,0.0,0.0,0.0,0.0,0.0,0.0,0.0,0.0,0.0,0.0,0.0,0.0,0.0,0.0,0.0,0.0,0.0,0.0,0.0,0.0,0.0,0.0,0.0,0.0,0.0,0.0,0.0,0.0,0.0,0.0,0.0,0.0,0.0,0.0,0.0,0.0,0.0,0.0,0.0,0.0,0.0,0.0,0.0,0.0,0.0,0.0,0.0,0.0,0.0,0.0,0.0,0.0,0.0,0.0,0.0,0.0,0.0,0.0,0.0,0.0,0.0,0.0,0.0,0.0,0.0,0.0,-0.5435,-0.6476,-0.7154,-0.7034,-0.7128,-0.7154,-0.6992,-0.6754,-0.6266,-0.5498,0.0,0.0,0.0,0.0,0.0,0.0,0.0,0.0,0.0,0.0,0.0,0.0,0.0,0.0,0.0,0.0,0.0,0.0,0.0,0.0,0.0,0.0,0.0,0.0,0.0,0.0,0.0,0.0,0.0,0.0,0.0,0.0,0.0,0.0,0.0,0.0,0.0,0.0,0.0,0.0,0.0,0.0,0.0,0.0,0.0,0.0,0.0,0.0,0.0,0.0,0.0,0.0,0.0,0.0,0.0,0.0,0.0,0.0,0.0,0.0,0.0,0.0,0.0,0.0,0.0,0.0,0.0,0.0,0.0,0.0,0.0,0.0,0.0,0.0,0.0,0.0,0.0,0.0,0.0,0.0,0.0,0.0,0.0,0.0,0.0,0.0,0.0,0.0,0.0,0.0,0.0,0.0,0.0,0.0,0.0,0.0,0.0,0.0,0.0,0.0,0.0,0.0,-0.5727,-0.6784,-0.7375,-0.7134,-0.7321,-0.7355,-0.7088,-0.6774,-0.6339,-0.5752,0.0,0.0,0.0,0.0,0.0,0.0,0.0,0.0,0.0,0.0,0.0,0.0,0.0,0.0,0.0,0.0,0.0,0.0,0.0,0.0,0.0,0.0,0.0,0.0,0.0,0.0,0.0,0.0,0.0,0.0,0.0,0.0,0.0,0.0,0.0,0.0,0.0,0.0,0.0,0.0,0.0,0.0,0.0,0.0,0.0,0.0,0.0,0.0,0.0,0.0,0.0,0.0,0.0,0.0,0.0,0.0,0.0,0.0,0.0,0.0,-0.2134,0.0,0.0,0.0,0.0,0.0,0.0,0.0,0.0,0.0,0.0,0.0,0.0,0.0,0.0,0.0,0.0,0.0,0.0,0.0,0.0,0.0,0.0,0.0,0.0,0.0,0.0,0.0,0.0,0.0,0.0,0.0,0.0,0.0,0.0,0.0,0.0,0.0,0.0,0.0,0.0,0.0,-0.6047,-0.6929,-0.7535,-0.7669,-0.7575,-0.7486,-0.7375,-0.6894,-0.6339,-0.5752,0.0,0.0,0.0,0.0,0.0,0.0,0.0,0.0,0.0,0.0,0.0,0.0,0.0,0.0,0.0,0.0,0.0,0.0,0.0,0.0,0.0,0.0,0.0,0.0,0.0,0.0,0.0,0.0,0.0,0.0,0.0,0.0,0.0,0.0,0.0,0.0,0.0,0.0,0.0,0.0,0.0,0.0,0.0,0.0,0.0,0.0,0.0,0.0,0.0,0.0,0.0,0.0,0.0,0.0,0.0,0.0,0.0,0.0,0.0,0.0,0.0,-0.2812,0.0,0.0,0.0,0.0,0.0,0.0,0.0,0.0,0.0,0.0,0.0,0.0,0.0,0.0,0.0,0.0,0.0,0.0,0.0,0.0,0.0,0.0,0.0,0.0,0.0,0.0,0.0,0.0,0.0,0.0,0.0,0.0,0.0,0.0,0.0,0.0,0.0,0.0,0.0,0.0,-0.6608,-0.7258,-0.7749,-0.7868,-0.7782,-0.7629,-0.7527,-0.7054,-0.6607,-0.6159,-0.5855,0.0,0.0,0.0,0.0,0.0,0.0,0.0,0.0,0.0,0.0,0.0,0.0,0.0,0.0,0.0,0.0,0.0,0.0,0.0,0.0,0.0,0.0,0.0,0.0,0.0,0.0,0.0,0.0,0.0,0.0,0.0,0.0,0.0,0.0,0.0,0.0,0.0,0.0,0.0,0.0,0.0,0.0,0.0,0.0,0.0,0.0,0.0,0.0,0.0,0.0,0.0,0.0,0.0,0.0,-0.2508,-0.3707,-0.3598,-0.3701,-0.3897,-0.3698,-0.3344,-0.2904,0.0,0.0,0.0,0.0,0.0,0.0,0.0,0.0,0.0,0.0,0.0,0.0,0.0,0.0,0.0,0.0,0.0,0.0,0.0,0.0,0.0,0.0,0.0,0.0,0.0,-0.6836,-0.6263,0.0,0.0,0.0,0.0,0.0,0.0,0.0,0.0,0.0,0.0,0.0,0.0,-0.7129,-0.7671,-0.8029,-0.8028,-0.8036,-0.7882,-0.7575,-0.7275,-0.6954,-0.6613,-0.6345,-0.5977,0.0,0.0,0.0,0.0,0.0,0.0,0.0,0.0,0.0,0.0,0.0,0.0,0.0,0.0,0.0,0.0,0.0,0.0,0.0,0.0,0.0,0.0,0.0,0.0,0.0,0.0,0.0,0.0,0.0,0.0,0.0,0.0,0.1499,0.1124,0.0,0.0,0.0,0.0,0.0,0.0,0.0,0.0,0.0,0.0,0.0,0.0,0.0,0.0,-0.0944,-0.1585,-0.1975,-0.2195,-0.2145,-0.2557,-0.3384,-0.3428,-0.3809,-0.4426,-0.4388,0.0,-0.3652,-0.3565,0.0,0.0,0.0,0.0,0.0,0.0,0.0,0.0,0.0,0.0,0.0,0.0,0.0,0.0,0.0,0.0,0.0,0.0,0.0,0.0,0.0,0.0,-0.7622,-0.7756,-0.7715,-0.759,0.0,-0.6346,-0.5544,-0.5208,0.0,0.0,0.0,0.0,0.0,0.0,0.0,0.0,-0.7432,-0.7984,-0.841,-0.8664,-0.8464,-0.8196,-0.7896,-0.7589,-0.7217,-0.662,-0.6552,-0.6368,-0.6003,-0.5732,0.0,0.0,0.0,0.0,0.0,0.0,0.0,0.0,0.0,0.0,0.0,0.0,0.0,0.0,0.0,0.0,0.0,0.0,0.0,0.0,0.0,0.0,0.0,0.0,0.0,0.0,0.0,0.0,0.0,0.1082,0.0886,0.0736,0.0476,0.0236,0.0,0.0,0.0,0.0,0.0,0.0,0.0,0.0,0.0,-0.0638,-0.1353,-0.17,-0.1708,-0.2059,-0.2452,-0.2889,-0.2821,-0.3231,-0.3956,-0.4015,-0.4184,-0.4519,-0.4519,-0.4405,-0.4151,-0.3921,-0.3971,-0.4213,0.0,0.0,0.0,0.0,0.0,-0.6343,-0.639,-0.6586,0.0,0.0,0.0,0.0,0.0,0.0,0.0,0.0,0.0,0.0,0.0,0.0,0.0,-0.8383,-0.8424,-0.8343,-0.8043,-0.7575,-0.6974,0.0,-0.6019,-0.5886,-0.5611,0.0,0.0,0.0,0.0,0.0,-0.7771,-0.8146,-0.8484,-0.8778,-0.855,-0.825,-0.7908,-0.7642,-0.7462,-0.7318,-0.688,-0.666,-0.6819,-0.6091,-0.5687,0.0,0.0,0.0,0.0,0.0,0.0,0.0,0.0,0.0,0.0,0.0,0.0,0.0,0.0,0.0,0.0,0.0,0.0,0.0,0.0,0.0,0.0,0.0,0.0,0.0,0.0,0.0,0.0,0.0802,0.0557,0.0472,0.0298,0.0134,0.0,0.0,0.0,0.0,0.0,0.0,-0.0294,-0.1517,-0.1963,-0.1396,-0.2119,-0.2511,-0.254,-0.2689,-0.3079,-0.3727,-0.3671,-0.3952,-0.4577,-0.4562,-0.4558,-0.4577,-0.4577,-0.4556,-0.4498,-0.4185,-0.4257,-0.4562,-0.4429,-0.4673,-0.5221,-0.5795,-0.6272,-0.666,-0.6951,-0.7291,-0.754,-0.7152,0.0,-0.6732,-0.6494,0.0,0.0,0.0,0.0,-0.8219,-0.8398,0.0,-0.8537,-0.8758,-0.8804,-0.8751,-0.853,-0.843,-0.809,0.0,-0.676,-0.6562,-0.6342,0.0,0.0,0.0,0.0,-0.7574,-0.8091,-0.8358,-0.8571,-0.8784,-0.8611,-0.8337,-0.7915,-0.7722,-0.7695,-0.79,-0.7153,-0.6934,-0.7514,-0.6447,-0.5816,-0.5794,0.0,0.0,0.0,0.0,0.0,0.0,0.0,0.0,0.0,0.0,0.0,0.0,0.0,0.0,0.0,0.0,0.0,0.0,0.0,0.0,0.0,0.0,0.0,0.0,0.0,0.0,0.0,0.0,0.0,0.0699,0.0668,0.0,0.0,0.0,0.0,0.0,-0.0676,-0.1103,-0.1043,-0.1799,-0.2173,-0.2161,-0.2832,-0.3334,-0.3505,-0.4079,-0.4478,-0.4619,-0.4619,-0.468,-0.4684,-0.483,-0.4816,-0.4677,-0.4677,-0.4596,-0.4505,-0.4297,-0.4536,-0.5071,-0.4898,-0.5211,-0.5693,-0.518,-0.5947,-0.7199,-0.6657,-0.7285,-0.8366,-0.8605,-0.8313,-0.7889,-0.8236,-0.7927,0.0,0.0,-0.8224,-0.838,-0.8393,-0.8571,-0.8791,-0.8804,-0.8804,-0.8804,-0.8791,-0.8571,-0.8277,0.0,-0.7802,-0.7828,-0.7953,0.0,-0.7976,-0.8019,-0.8227,-0.8431,-0.8383,-0.8597,-0.8791,-0.8804,-0.8791,-0.855,-0.7928,-0.7868,-0.7884,-0.7915,-0.7308,-0.7252,-0.7848,-0.6779,-0.6151,-0.6092,-0.5927,0.0,0.0,0.0,0.0,0.0,0.0,0.0,0.0,0.0,0.0,0.0,0.0,0.0,0.0,0.0,0.0,0.0,0.0,0.0,0.0,0.0,0.0,0.0,0.0,0.0,0.0,0.0,0.0,0.0812,0.048,0.0,0.0,0.0,0.0,0.0,-0.1104,-0.162,-0.1145,-0.2764,-0.3425,-0.2896,-0.3187,-0.3415,-0.3457,-0.3705,-0.3823,-0.3807,-0.4397,-0.4691,-0.4697,-0.485,-0.4833,-0.4691,-0.4691,-0.4606,-0.4515,-0.4406,-0.4544,-0.475,-0.5112,-0.54,-0.5711,-0.6452,-0.7084,-0.7588,-0.785,-0.8274,-0.8671,-0.8778,-0.8537,-0.8266,-0.8406,-0.8282,-0.8098,-0.8242,-0.8443,-0.8651,-0.8651,-0.8731,-0.8804,-0.8804,-0.8804,-0.8804,-0.8804,-0.8724,-0.8624,-0.8517,-0.819,-0.7896,-0.7975,-0.7955,-0.7926,-0.7719,-0.8125,-0.8441,-0.8407,-0.8624,-0.8804,-0.8804,-0.8804,-0.8571,-0.7935,-0.82,-0.843,-0.8397,-0.7935,-0.7772,-0.8094,-0.6906,-0.6255,-0.6234,-0.6025,-0.5792,0.0,0.0,0.0,0.0,0.0,0.0,0.0,0.0,0.0,0.0,0.0,0.0,0.0,0.0,0.0,0.0,0.0,0.0,0.0,0.0,0.0,0.0,0.0,0.0,0.0,0.0,0.0813,0.0878,0.0352,0.0,0.0,0.0,0.0,0.0,-0.1359,-0.1995,-0.1511,-0.3413,-0.4125,-0.3345,-0.3359,-0.3302,-0.3105,-0.3302,-0.3417,-0.3397,-0.4327,-0.4769,-0.4775,-0.4975,-0.4986,-0.4836,-0.4789,-0.468,-0.4535,-0.4539,-0.4519,-0.457,-0.5218,-0.5651,-0.5982,-0.6961,-0.7509,-0.783,-0.8533,-0.8804,-0.8804,-0.8804,-0.8677,-0.8517,-0.8517,-0.8517,-0.8517,-0.8517,-0.8657,-0.8804,-0.8804,-0.8804,-0.8804,-0.8804,-0.8804,-0.8804,-0.8804,-0.8804,-0.8804,-0.8804,-0.849,-0.8223,-0.8223,-0.8223,-0.8156,-0.7949,-0.8263,-0.8619,-0.8866,-0.884,-0.891,-0.9106,-0.8956,-0.8615,-0.8208,-0.8475,-0.8783,-0.8969,-0.8531,-0.8351,-0.8622,-0.7432,-0.6746,-0.6746,-0.6452,-0.6423,-0.6684,0.0,0.0,0.0,0.0,0.0,0.0,0.0,0.0,0.0,0.0,0.0,0.0,0.0,0.0,0.0,0.0,0.0,0.0,0.0,0.0,0.0,0.0,0.0,0.2128,0.139,0.0927,0.0928,0.0378,0.0,0.0,0.0,0.0,0.0,-0.137,-0.2176,-0.2235,-0.363,-0.4135,-0.3411,-0.3357,-0.3072,-0.2466,-0.3069,-0.3411,-0.3582,-0.4483,-0.4921,-0.4935,-0.523,-0.5277,-0.5125,-0.4982,-0.4833,-0.4677,-0.458,-0.4519,-0.457,-0.5273,-0.5982,-0.6588,-0.6642,-0.7128,-0.783,-0.854,-0.8804,-0.8804,-0.8804,-0.8804,-0.8804,-0.8804,-0.8804,-0.8804,-0.8804,-0.8804,-0.8804,-0.8804,-0.8804,-0.8804,-0.8804,-0.8804,-0.8804,-0.8804,-0.8804,-0.8804,-0.8804,-0.8804,-0.8804,-0.8804,-0.8804,-0.8804,-0.8804,-0.8804,0.0,-0.971,-0.9256,-0.9106,-0.9762,-0.9256,-0.882,-0.8768,-0.8749,-0.8954,-0.9511,-0.9039,-0.8941,-0.946,-0.8271,-0.7638,-0.7638,-0.7317,-0.7556,-0.8411,0.0,0.0,0.0,0.0,0.0,0.0,0.0,0.0,0.0,0.0,0.0,0.0,0.0,0.0,0.0,0.0,0.0,0.0,0.0,0.0,0.0,0.0,0.3343,0.3073,0.216,0.1579,0.1675,0.0709,0.0,0.0,0.0,0.0,0.0,-0.089,-0.1693,-0.2369,-0.2659,-0.3038,-0.353,-0.2387,-0.1663,-0.1458,-0.2165,-0.2645,-0.2792,-0.4224,-0.4972,-0.5081,-0.5274,-0.5277,-0.5125,-0.4982,-0.4833,-0.4677,-0.458,-0.4787,-0.5273,-0.6036,-0.6421,-0.675,-0.7777,-0.8321,-0.8533,-0.8752,-0.8804,-0.8804,-0.8804,-0.8804,-0.8804,-0.8804,-0.8804,-0.8804,-0.8804,-0.8804,-0.8804,-0.8804,-0.8804,-0.8804,-0.8804,-0.8804,-0.8804,-0.8804,-0.8804,-0.8804,-0.8804,-0.8804,-0.8804,-0.8804,-0.8804,-0.8804,-0.8804,-0.9211,0.0,-0.9762,-1.0064,-1.0312,-1.0517,-1.0364,-1.0139,-0.9939,-1.0036,-1.0039,0.0,-0.9557,-0.9272,-0.9159,-0.8532,-0.8201,-0.8201,-0.808,-0.8158,0.0,0.0,0.0,0.0,0.0,0.0,0.0,0.0,0.0,0.0,0.0,0.0,0.0,0.0,0.0,0.0,0.0,0.0,0.0,0.0,0.0,0.0,0.3524,0.3829,0.3741,0.2663,0.191,0.2002,0.0798,0.0,0.0,0.0,0.0,0.0,-0.068,-0.1323,-0.1876,-0.2078,-0.2292,-0.2518,-0.1627,-0.0941,-0.0617,-0.1354,-0.1783,-0.1906,-0.3606,-0.4481,-0.4556,-0.5157,-0.5311,0.0,-0.5009,-0.4867,-0.4769,-0.4551,-0.4893,0.0,0.0,0.0,0.0,0.0,-0.8804,-0.8804,-0.8804,-0.8804,-0.8804,-0.8804,-0.8804,-0.8804,-0.8804,-0.8804,-0.8804,-0.8804,-0.8804,-0.8804,-0.8804,-0.8804,-0.8804,-0.8804,-0.8804,-0.8804,-0.8804,-0.8804,-0.8804,-0.8804,0.0,0.0,-0.8804,-0.8804,-0.891,-0.9159,-0.9562,-1.0012,-1.0568,-1.0712,-1.0914,-1.1166,-1.0965,-1.0773,-1.0742,-1.0798,0.0,0.0,0.0,-0.9886,-0.9272,-0.9197,0.0,0.0,0.0,0.0,0.0,0.0,0.0,0.0,-0.9111,-0.9023,0.0,0.0,0.0,0.0,0.0,0.0,0.0,0.0,0.0,0.0,0.0,0.0,0.0,0.0,0.0,0.0,0.3839,0.42,0.4217,0.3043,0.2136,0.203,0.0824,0.0,0.0,0.0,0.0,0.0,-0.0579,-0.1002,-0.1127,0.0,0.0,0.0,0.0,-0.0684,0.0,-0.0743,-0.1114,-0.1114,-0.2851,-0.3724,-0.3867,-0.4832,-0.5292,-0.5411,-0.5064,-0.4935,-0.4897,-0.4606,-0.4967,-0.5706,-0.6421,-0.7182,-0.7883,-0.854,-0.8804,0.0,0.0,0.0,0.0,-0.891,-0.891,-0.891,-0.9008,-0.8956,-0.891,-0.9008,-0.891,-0.8804,-0.891,-0.8857,-0.8804,-0.8804,-0.8804,-0.8804,-0.8804,-0.8804,-0.8804,-0.8804,-0.8804,-0.8804,-0.8804,-0.8804,-0.9008,-0.971,-0.9865,-1.0364,-1.1665,-1.1366,-1.1266,-1.1873,0.0,0.0,-1.1384,-1.1358,-1.1223,-1.1062,-1.1006,-1.0645,-0.9845,-1.0225,-1.0244,-0.9816,-0.9807,-1.0225,-1.0977,-1.0977,-1.1211,-1.1645,-1.0029,-0.9902,0.0,0.0,0.0,0.0,0.0,0.0,0.0,0.0,0.0,0.0,0.0,0.0,0.0,0.0,0.0,0.3778,0.404,0.4237,0.4406,0.3646,0.2817,0.221,0.0891,0.0,0.0,0.0,0.0,0.0,-0.0117,-0.0541,-0.1199,-0.0701,0.0,-0.1253,-0.0596,-0.0131,0.0,-0.0703,-0.1149,-0.1277,0.0,0.0,-0.3982,-0.4207,-0.4686,-0.5418,-0.5169,-0.5023,-0.4904,-0.4721,-0.5354,-0.6475,-0.7182,-0.7943,-0.8586,-0.8752,-0.8804,-0.8804,-0.8804,-0.8804,-0.891,-0.9413,-0.9614,-0.9718,-1.0269,-1.0064,0.0,-1.0261,-0.9614,-0.891,-0.9465,-0.9211,-0.8804,-0.8804,-0.8804,-0.8804,-0.8804,-0.8804,-0.8804,-0.8804,-0.8804,-0.8804,-0.8804,-0.8804,-0.9008,-0.971,-1.0261,-1.0914,-1.1715,-1.2197,-1.252,-1.2666,-1.2569,-1.253,-1.2551,-1.2234,-1.201,-1.1937,-1.1631,-1.14,-1.1234,-1.1312,-1.1322,-1.1224,-1.1224,-1.1312,-1.1479,-1.1479,-1.166,-1.208,-1.1387,-1.1243,0.0,0.0,0.0,0.0,0.0,0.0,0.0,0.0,0.0,0.0,0.0,0.3431,0.3688,0.0,0.3735,0.4033,0.4256,0.4379,0.4508,0.3846,0.3065,0.2286,0.1229,0.0392,0.0056,0.0,0.0,0.0,0.0,-0.0185,-0.0643,-0.0262,-0.0199,-0.0605,-0.0202,0.0,0.0,-0.0395,-0.0593,-0.0659,-0.1512,-0.218,-0.2678,-0.3613,-0.4284,-0.4746,-0.5,-0.505,-0.4961,-0.5473,-0.6243,-0.7235,-0.7943,-0.848,-0.8804,-0.8804,-0.8804,-0.8857,-0.9159,-0.9309,-0.9413,-1.0064,-1.0064,-0.9865,-1.0218,-0.9814,-0.9465,-1.0115,-0.9562,-0.8956,-0.9614,-0.9309,-0.8804,-0.8804,-0.8804,-0.8804,-0.8804,-0.8804,-0.891,-0.9211,-0.9309,-0.9309,-0.9309,-0.9309,-0.951,-1.0218,-1.0568,-1.1174,-1.2246,-1.2666,-1.2881,-1.2881,-1.2881,-1.2881,-1.2881,-1.248,-1.218,-1.218,-1.2021,-1.1797,-1.1616,-1.1777,-1.1787,-1.1606,-1.1606,-1.1714,-1.1895,-1.1895,-1.2119,-1.2549,-1.2324,-1.2263,0.0,0.0,0.0,0.0,0.0,0.0,0.0,0.0,0.4092,0.448,0.4337,0.4229,0.4437,0.4256,0.4063,0.421,0.4389,0.4519,0.4519,0.4015,0.3289,0.2508,0.1619,0.0838,0.028,0.0112,0.0,0.0,0.0,0.0,0.0,0.0,0.0,0.0,0.0,0.0,0.0,0.0,0.0,0.0,-0.0739,-0.114,-0.134,-0.3011,-0.3813,-0.4008,-0.4778,-0.5085,-0.5193,-0.6211,-0.702,-0.7777,-0.8533,-0.8804,-0.8804,-0.8804,-0.8857,-0.9061,-0.9614,-0.9865,-1.0115,-1.0762,-1.0618,-1.0167,-1.0167,-0.9814,-0.9465,-0.9865,-0.951,-0.9106,-0.9666,-0.9309,-0.8804,-0.8804,-0.8804,-0.8804,-0.8804,-0.8804,-0.8956,-0.951,-0.971,-0.9814,-0.9814,-0.9917,-1.0167,-1.0712,-1.0813,-1.1325,-1.2725,-1.2881,-1.2881,-1.2881,-1.2881,-1.2881,-1.2881,-1.2559,-1.2353,-1.2353,-1.2353,-1.2197,-1.1881,-1.2168,-1.2187,-1.1871,-1.1861,-1.1992,-1.2353,-1.2353,-1.2539,-1.2881,-1.2881,-1.2881,0.0755,0.1473,0.2221,0.2201,0.2663,0.3162,0.0,0.0,0.4089,0.4349,0.4538,0.4646,0.4807,0.4459,0.4217,0.4412,0.4508,0.4519,0.4519,0.4408,0.407,0.3287,0.1952,0.1062,0.1006,0.0392,0.0,0.0,0.0,0.0,0.0,0.0,0.0,0.0,0.0,0.0,0.0,0.0,0.0,0.0,-0.0067,-0.0538,-0.134,-0.2342,-0.328,-0.4005,-0.4681,-0.5293,-0.5908,-0.6379,-0.702,-0.7777,-0.8533,-0.8804,-0.8804,-0.8804,-0.9159,-0.971,-0.9762,-1.0167,-1.0813,-1.1466,-1.1665,-1.1566,-1.1566,-1.1516,-1.1366,-1.0813,-1.0218,-0.9718,-0.9762,-0.9309,-0.8804,-0.8804,-0.8804,-0.8804,-0.8804,-0.8804,-0.8804,-0.891,-0.9413,-0.9814,-0.9814,-1.0312,-1.0712,-1.0762,-1.0813,-1.1325,-1.2725,-1.2881,-1.2881,-1.2881,-1.2881,-1.2881,-1.2881,-1.2832,-1.2812,-1.2812,-1.2812,-1.2783,-1.2734,-1.2783,-1.2783,-1.2782,-1.2734,-1.2764,-1.2812,-1.2812,-1.2832,-1.2881,-1.2881,-1.2881,0.1931,0.2332,0.0,0.0,0.3441,0.3768,0.395,0.451,0.5089,0.537,0.5306,0.5199,0.5397,0.4751,0.4241,0.0,0.4519,0.4519,0.4519,0.4519,0.4349,0.4015,0.3065,0.2063,0.1174,0.0839,0.0457,0.006,0.0,0.0,0.0,0.0,0.0,0.0,0.0,0.0,0.0,0.0,0.0,0.0,0.0,-0.0202,-0.0605,-0.1475,-0.2678,-0.4002,-0.4665,-0.5578,-0.6616,-0.6602,-0.7289,-0.8374,-0.8699,-0.8804,-0.8857,-0.9263,-0.9562,-0.9909,-1.0712,-1.1174,-1.1484,-1.2197,-1.2129,-1.1715,-1.1366,-1.0965,-1.0568,-1.0312,-0.971,-0.9316,-0.971,-0.9309,-0.8804,-0.8804,-0.8804,-0.8804,-0.8804,-0.8804,-0.891,-0.9316,-0.9614,-0.9917,-1.0312,-1.061,-1.0914,-1.1316,-1.1366,-1.1724,-1.2774,-1.2881,-1.2881,-1.2881,-1.2881,-1.2881,-1.2881,-1.2881,-1.2881,-1.2881,-1.2881,-1.2881,-1.2881,-1.2881,-1.2881,-1.2881,-1.2881,-1.2881,-1.2881,-1.2881,-1.2881,-1.2881,-1.2881,-1.2881,0.2729,0.0,0.0,0.3497,0.3837,0.4153,0.4375,0.5021,0.5702,0.6101,0.5847,0.5553,0.5706,0.4867,0.0,0.4385,0.4436,0.4519,0.4519,0.4519,0.4519,0.4519,0.4012,0.3121,0.1842,0.1341,0.0851,0.0352,0.0121,0.0125,0.0322,0.0332,0.0471,0.074,0.074,0.074,0.074,0.0471,0.0336,0.0337,0.0135,0.0,-0.0067,-0.1141,-0.2544,-0.4002,-0.4665,-0.5634,-0.6795,-0.6657,-0.7348,-0.8533,-0.8699,-0.891,-0.9159,-0.9814,-1.0064,-1.0269,-1.1416,-1.1931,-1.2215,-1.2725,-1.2559,-1.1931,-1.1074,-1.061,-1.0269,-0.9666,-0.9316,-0.9159,-0.9465,-0.9159,-0.8804,-0.8804,-0.8804,-0.8804,-0.8804,-0.8804,-0.8962,-0.9413,-0.9658,-1.0012,-1.0661,-1.0965,-1.1316,-1.1981,-1.208,-1.2295,-1.2822,-1.2881,-1.2881,-1.2881,-1.2881,-1.2881,-1.2881,-1.2881,-1.2881,-1.2881,-1.2881,-1.2881,-1.2881,-1.2881,-1.2881,-1.2881,-1.2881,-1.2881,-1.2881,-1.2881,-1.2881,-1.2881,-1.2881,-1.2881,0.0,0.0,0.3086,0.3121,0.3479,0.3847,0.4,0.47,0.547,0.6093,0.5847,0.5508,0.5513,0.4787,0.4197,0.42,0.4372,0.4519,0.4519,0.4519,0.4519,0.4519,0.446,0.4181,0.0,0.1953,0.1076,0.1054,0.0424,0.0375,0.1222,0.1255,0.1675,0.2611,0.2611,0.2611,0.2611,0.1742,0.1274,0.1274,0.0404,0.0,-0.0067,-0.1877,-0.3145,-0.4002,-0.4665,-0.5336,-0.6083,-0.6435,-0.7074,-0.783,-0.8533,-0.9211,-0.9865,-1.0517,-1.0771,-1.0864,-1.1566,-1.2295,-1.2881,-1.2881,-1.2881,-1.2618,-1.1225,-1.1266,-1.1316,-0.9361,-0.9263,-0.9614,-0.9008,-0.8804,-0.8804,-0.8804,-0.8804,-0.8804,-0.8804,-0.8804,-0.8811,-0.8804,-0.9361,-1.0012,-1.0661,-1.1366,-1.203,-1.2774,-1.2881,-1.2881,-1.2881,-1.2881,-1.2881,-1.2881,-1.2881,-1.2881,-1.2881,-1.2881,-1.2881,-1.2881,-1.2881,-1.2881,-1.2881,-1.2881,-1.2881,-1.2881,-1.2881,-1.2881,-1.2881,-1.2881,-1.2881,-1.2881,-1.2881,-1.2881,0.0,0.0,0.3844,0.3823,0.3934,0.4075,0.4115,0.4721,0.548,0.6093,0.6076,0.6002,0.6067,0.5307,0.4684,0.4788,0.4631,0.4519,0.4519,0.4519,0.4519,0.4519,0.4519,0.0,0.0,0.0,0.0,0.1871,0.1733,0.1792,0.206,0.2155,0.2342,0.2678,0.2678,0.2678,0.2678,0.241,0.1942,0.1273,0.0396,0.0,-0.0067,-0.1806,-0.2752,-0.3053,-0.4281,-0.5463,-0.6596,-0.6598,-0.7343,-0.848,-0.8699,-0.9211,-0.9865,-1.0559,-1.1065,-1.1566,-1.2295,-1.2666,-1.2881,-1.2881,-1.2881,-1.2725,-1.1774,-1.1316,-1.0914,-0.9762,-0.9316,-0.9061,-0.8857,-0.8804,-0.8804,-0.8804,-0.8804,-0.8804,-0.8804,-0.9159,-0.9465,-0.9465,-1.0012,-1.0661,-1.1366,-1.1665,-1.203,-1.2774,-1.2881,-1.2881,-1.2881,-1.2881,-1.2881,-1.2881,-1.2881,-1.2881,-1.2881,-1.2881,-1.2881,-1.2881,-1.2881,-1.2881,-1.2881,-1.2881,-1.2881,-1.2881,-1.2881,-1.2881,-1.2881,-1.2881,-1.2881,-1.2881,-1.2881,-1.2618,0.0,0.409,0.4198,0.4217,0.438,0.4532,0.4532,0.5003,0.5613,0.6204,0.6091,0.5855,0.588,0.5221,0.4738,0.5031,0.4703,0.4511,0.4835,0.4625,0.4519,0.4519,0.4519,0.4539,0.0,0.0,0.0,0.2676,0.2576,0.2658,0.2903,0.3099,0.3263,0.3558,0.3595,0.368,0.368,0.3345,0.2531,0.1321,0.039,0.0,-0.0065,-0.1754,-0.2485,-0.2587,-0.4076,-0.5374,-0.6492,-0.6564,-0.7295,-0.848,-0.8949,-0.9562,-1.0269,-1.0914,-1.1625,-1.2236,-1.2725,-1.2881,-1.2881,-1.2881,-1.2881,-1.2774,-1.203,-1.1516,-1.1015,-1.0364,-0.9865,-0.9465,-0.9211,-0.9159,-0.9113,-0.8857,-0.8804,-0.8804,-0.8804,-0.9159,-0.951,-0.9762,-1.0167,-1.0712,-1.1665,-1.203,-1.2344,-1.2832,-1.2881,-1.2881,-1.2881,-1.2881,-1.2881,-1.2881,-1.2881,-1.2881,-1.2881,-1.2881,-1.2881,-1.2881,-1.2881,-1.2881,-1.2881,-1.2881,-1.2881,-1.2881,-1.2881,-1.2881,-1.2881,-1.2881,-1.2881,-1.2881,-1.2881,-1.2666,0.4182,0.4354,0.4295,0.4272,0.4694,0.5106,0.5146,0.5429,0.5831,0.6468,0.5932,0.5257,0.0,0.0,0.4471,0.5017,0.4645,0.4506,0.5354,0.4893,0.4522,0.0,0.0,0.0,0.0,0.0,0.0,0.3532,0.0,0.3057,0.3661,0.3898,0.4355,0.5081,0.5284,0.5428,0.5428,0.4486,0.3103,0.1352,0.0515,0.0063,-0.0062,-0.1656,-0.245,-0.2572,-0.403,-0.5078,-0.5857,-0.6399,-0.7074,-0.7877,-0.9242,-1.0218,-1.0864,-1.1566,-1.2295,-1.2881,-1.2881,-1.2881,-1.2881,-1.2881,-1.2881,-1.2774,-1.208,-1.1814,-1.1665,-1.0965,-1.0762,-1.061,-0.9917,-0.9769,-0.9614,-0.9008,-0.8857,-0.8857,-0.8857,-0.8857,-0.9061,-0.9666,-0.9865,-1.0312,-1.1616,-1.2452,-1.2881,-1.2881,-1.2881,-1.2881,-1.2881,-1.2881,-1.2881,-1.2881,-1.2881,-1.2881,-1.2881,-1.2881,-1.2881,-1.2881,-1.2881,-1.2881,-1.2881,-1.2881,-1.2881,-1.2881,-1.2881,-1.2881,-1.2881,-1.2881,-1.2881,-1.2881,-1.2881,-1.2881,0.441,0.5041,0.5581,0.5145,0.5132,0.5349,0.582,0.5515,0.5383,0.6389,0.6283,0.5956,0.587,0.0,0.0,0.5301,0.5056,0.0,0.4765,0.4625,0.0,0.4619,0.0,0.4694,0.4847,0.4921,0.0,0.0,0.432,0.4318,0.4696,0.4804,0.4961,0.5301,0.5342,0.5428,0.5428,0.4486,0.3431,0.2309,0.1384,0.0621,-0.0062,-0.0997,-0.1741,-0.231,-0.3323,-0.473,-0.6389,-0.6559,-0.7343,-0.8586,-0.9458,-1.0218,-1.0872,-1.1534,-1.2255,-1.2881,-1.2881,-1.2881,-1.2881,-1.2881,-1.2881,-1.2871,-1.2666,-1.2236,-1.1665,-1.0965,-1.0415,-0.9917,-0.9211,-0.9061,-0.9159,-0.9465,-0.9562,-0.9562,-0.9562,-0.9909,-1.021,-0.9865,-1.0618,-1.1575,-1.2461,-1.2774,-1.2881,-1.2881,-1.2881,-1.2881,-1.2881,-1.2881,-1.2881,-1.2881,-1.2881,-1.2881,-1.2881,-1.2881,-1.2881,-1.2881,-1.2881,-1.2881,-1.2881,-1.2881,-1.2881,-1.2881,-1.2881,-1.2881,-1.2881,-1.2881,-1.2881,-1.2881,-1.2881,-1.2363,0.4984,0.5576,0.6074,0.5589,0.5751,0.6052,0.599,0.5722,0.5624,0.612,0.5829,0.0,0.5604,0.0,0.0,0.0,0.0,0.0,0.4824,0.4638,0.4573,0.0,0.4691,0.0,0.4992,0.503,0.5057,0.0,0.4972,0.4928,0.5033,0.5098,0.5169,0.5257,0.5325,0.5428,0.5428,0.4429,0.3496,0.2706,0.1712,0.0779,0.0,-0.074,-0.1524,-0.2234,0.0,-0.4608,-0.6588,-0.6588,-0.745,-0.891,-0.9865,-1.0466,-1.0922,-1.19,-1.252,-1.2881,-1.2881,-1.2881,-1.2881,-1.2881,-1.2881,-1.2881,-1.2881,-1.2393,-1.1715,-1.1366,-1.0762,-1.0064,-0.9413,-0.9263,-0.9263,-0.9361,-0.9361,-0.9465,-0.971,-1.0115,-1.0415,-1.0669,-1.1525,-1.2403,-1.2832,-1.2881,-1.2881,-1.2881,-1.2881,-1.2881,-1.2881,-1.2881,-1.2881,-1.2881,-1.2881,-1.2881,-1.2881,-1.2881,-1.2881,-1.2881,-1.2881,-1.2881,-1.2881,-1.2881,-1.2881,-1.2881,-1.2881,-1.2881,-1.2881,-1.2881,-1.2881,-1.2881,-1.2881,-1.2304,0.5578,0.5905,0.6145,0.5842,0.63,0.6652,0.5965,0.5907,0.5947,0.573,0.0,0.4666,0.4916,0.4412,0.4247,0.506,0.0,0.4392,0.5043,0.4796,0.4584,0.4701,0.4704,0.4813,0.5131,0.5033,0.5053,0.5311,0.5189,0.5064,0.4982,0.5057,0.5121,0.5162,0.5291,0.5418,0.5332,0.4414,0.3595,0.281,0.1785,0.0867,0.0112,-0.0615,-0.1396,-0.2232,0.0,0.0,-0.6588,-0.6588,-0.7503,-0.9061,-1.0312,-1.0864,-1.1074,-1.2412,-1.2881,-1.2881,-1.2881,-1.2881,-1.2881,-1.2881,-1.2881,-1.2881,-1.2881,-1.2452,-1.1922,-1.1814,-1.1366,-1.0762,-1.0012,-0.9814,-0.9666,-0.9061,-0.8956,-0.9106,-0.9658,-0.9814,-1.0167,-1.1416,-1.2246,-1.2774,-1.2881,-1.2881,-1.2881,-1.2881,-1.2881,-1.2881,-1.2881,-1.2881,-1.2881,-1.2881,-1.2881,-1.2881,-1.2881,-1.2881,-1.2881,-1.2881,-1.2881,-1.2881,-1.2881,-1.2881,-1.2881,-1.2881,-1.2881,-1.2881,-1.2881,-1.2881,-1.2881,-1.2881,-1.2774,-1.2344,0.5433,0.5779,0.6166,0.6145,0.6019,0.6011,0.6362,0.5751,0.0,0.0,0.0,0.4742,0.5145,0.5046,0.0,0.4747,0.0,0.0,0.0,0.0,0.4565,0.0,0.0,0.0,0.0,0.0,0.0,0.0,0.0,0.0,0.5274,0.5077,0.5067,0.5315,0.5415,0.5298,0.5172,0.4951,0.4371,0.3426,0.2646,0.1788,0.0895,0.0168,-0.0951,-0.223,0.0,0.0,-0.6588,-0.6588,-0.7806,-0.9718,-1.0517,-1.1166,-1.1724,-1.2618,-1.2881,-1.2881,-1.2881,-1.2881,-1.2881,-1.2881,-1.2881,-1.2881,-1.2881,-1.2822,-1.2559,-1.1972,-1.1715,-1.1366,-1.0115,-0.9814,-0.9762,-0.9666,-0.9614,-0.9666,-0.9762,-0.9814,-1.0012,-1.0813,-1.1516,-1.2187,-1.2774,-1.2881,-1.2881,-1.2881,-1.2881,-1.2881,-1.2881,-1.2881,-1.2881,-1.2881,-1.2881,-1.2881,-1.2881,-1.2881,-1.2881,-1.2881,-1.2881,-1.2881,-1.2881,-1.2881,-1.2881,-1.2881,-1.2881,-1.2881,-1.2881,-1.2881,-1.2881,-1.2881,-1.2295,-1.1616,0.5963,0.6159,0.6481,0.6415,0.6292,0.6192,0.6361,0.0,0.0,0.0,0.0,0.4409,0.4858,0.0,0.0,0.0,0.0,0.0,0.0,0.0,0.0,0.0,0.0,0.0,0.0,0.0,0.0,0.0,0.0,0.0,0.5125,0.4996,0.4986,0.5125,0.5131,0.5094,0.502,0.4942,0.4468,0.3574,0.2764,0.1928,0.1062,0.0336,-0.0783,-0.2174,-0.2174,0.0,-0.6588,-0.6588,-0.7658,-0.9361,-1.0415,-1.1015,-1.1416,-1.251,-1.2881,-1.2881,-1.2881,-1.2881,-1.2881,-1.2881,-1.2881,-1.2881,-1.2881,-1.2618,-1.2236,-1.1913,-1.1566,-1.1065,-1.0064,-1.0064,-1.021,-0.9865,-1.0312,-1.0771,-1.0415,-1.088,-1.1392,-1.1316,-1.1882,-1.2501,-1.2822,-1.2881,-1.2881,-1.2881,-1.2881,-1.2881,-1.2881,-1.2881,-1.2881,-1.2881,-1.2881,-1.2881,-1.2881,-1.2881,-1.2881,-1.2881,-1.2881,-1.2881,-1.2881,-1.2881,-1.2881,-1.2881,-1.2881,-1.2881,-1.2881,-1.2881,-1.2881,-1.2881,-1.2559,-1.1783,0.6449,0.6658,0.6929,0.6702,0.6648,0.6587,0.628,0.5914,0.0,0.0,0.4602,0.4123,0.4532,0.0,0.0,0.0,0.0,0.0,0.0,0.0,0.0,0.0,0.0,0.0,0.0,0.0,0.0,0.0,0.0,0.0,0.487,0.4901,0.4918,0.4918,0.4918,0.4904,0.487,0.4752,0.4381,0.3768,0.2711,0.1953,0.1563,0.0504,-0.0727,-0.1949,-0.2119,0.0,0.0,-0.6588,-0.7557,-0.9106,-1.0167,-1.0762,-1.1174,-1.2255,-1.2774,-1.2881,-1.2881,-1.2881,-1.2881,-1.2881,-1.2881,-1.2881,-1.2881,-1.251,-1.1972,-1.1864,-1.1516,-1.1023,-1.0064,-1.0312,-1.061,-0.9961,-1.0712,-1.1466,-1.0914,-1.1792,-1.2501,-1.1922,-1.2393,-1.2881,-1.2881,-1.2881,-1.2881,-1.2881,-1.2881,-1.2881,-1.2881,-1.2881,-1.2881,-1.2881,-1.2881,-1.2881,-1.2881,-1.2881,-1.2881,-1.2881,-1.2881,-1.2881,-1.2881,-1.2881,-1.2881,-1.2881,-1.2881,-1.2881,-1.2881,-1.2881,-1.2881,-1.2881,-1.2725,-1.199,0.6499,0.6991,0.7424,0.6906,0.687,0.6826,0.6306,0.0,0.0,0.5316,0.4602,0.4123,0.4532,0.3863,0.0,0.0,0.0,0.0,0.0,0.0,0.0,0.0,0.0,0.0,0.0,0.0,0.0,0.0,0.0,0.0,0.0,0.4843,0.4918,0.4918,0.4918,0.4853,0.4714,0.4697,0.4623,0.4425,0.2903,0.2508,0.301,0.095,-0.0447,-0.1221,0.0,0.0,0.0,-0.6588,-0.7806,-0.971,-0.9865,-1.0669,-1.1715,-1.1864,-1.2344,-1.2881,-1.2881,-1.2881,-1.2881,-1.2881,-1.2881,-1.2881,-1.2881,-1.2832,-1.2666,-1.1972,-1.2246,-1.2264,-1.032,-1.0312,-1.061,-0.9961,-1.0364,-1.0864,-1.0813,-1.1366,-1.1864,-1.1814,-1.2393,-1.2881,-1.2881,-1.2881,-1.2881,-1.2881,-1.2881,-1.2881,-1.2881,-1.2881,-1.2881,-1.2881,-1.2881,-1.2881,-1.2881,-1.2881,-1.2881,-1.2881,-1.2881,-1.2881,-1.2881,-1.2881,-1.2881,-1.2881,-1.2881,-1.2881,-1.2881,-1.2881,-1.2881,-1.2881,-1.2187,-1.1516,0.6848,0.7164,0.7388,0.6905,0.6651,0.6476,0.627,0.0,0.5214,0.4922,0.4409,0.3956,0.3849,0.3327,0.3059,0.0,0.3458,0.3563,0.0,0.0,0.0,0.0,0.0,0.0,0.0,0.0,0.0,0.0,0.0,0.0,0.0,0.4613,0.4646,0.4646,0.4646,0.4616,0.4555,0.4555,0.4577,0.4463,0.34,0.301,0.3234,0.1452,0.0,-0.1165,0.0,0.0,0.0,-0.6588,-0.7605,-0.9263,-0.9666,-1.0364,-1.1266,-1.1665,-1.2295,-1.2881,-1.2881,-1.2881,-1.2881,-1.2881,-1.2881,-1.2822,-1.2344,-1.194,-1.1584,-1.1266,-1.1425,-1.1334,-1.0115,-1.0012,-1.0312,-1.0864,-1.1216,-1.1416,-1.1416,-1.1981,-1.2344,-1.1873,-1.2393,-1.2881,-1.2881,-1.2881,-1.2881,-1.2881,-1.2881,-1.3017,-1.3372,-1.342,-1.3563,-1.3931,-1.3344,-1.2881,-1.2881,-1.2881,-1.2881,-1.2881,-1.2881,-1.2881,-1.2881,-1.2881,-1.2881,-1.2881,-1.2881,-1.2881,-1.2881,-1.2881,-1.2881,-1.2881,-1.2138,-1.1466,0.7232,0.7411,0.7402,0.6931,0.6542,0.6235,0.0,0.0,0.5182,0.4698,0.428,0.3858,0.3392,0.3011,0.2831,0.0,0.3144,0.3319,0.3807,0.0,0.0,0.0,0.0,0.0,0.0,0.0,0.0,0.0,0.0,0.0,0.0,0.4543,0.4519,0.4519,0.4519,0.4519,0.4519,0.4519,0.4519,0.4519,0.368,0.34,0.3622,0.1898,0.0557,-0.0499,0.0,0.0,0.0,-0.6421,-0.7343,-0.8533,-0.9256,-1.0064,-1.0864,-1.1316,-1.2089,-1.2881,-1.2881,-1.2881,-1.2871,-1.2666,-1.2559,-1.2452,-1.1724,-1.1475,-1.1325,-1.0922,-1.0517,-1.0167,-0.9865,-0.9814,-1.0064,-1.0965,-1.1366,-1.1516,-1.1516,-1.2089,-1.2403,-1.1913,-1.2393,-1.2881,-1.2881,-1.2881,-1.2881,-1.2881,-1.2881,-1.3065,-1.3457,-1.3552,-1.3695,-1.4107,-1.343,-1.3017,-1.3382,-1.343,-1.343,-1.343,-1.343,-1.343,-1.343,-1.3238,-1.3152,-1.3152,-1.2968,-1.2881,-1.2881,-1.2881,-1.2881,-1.2881,-1.2344,-1.1674,0.7579,0.7732,0.7655,0.7066,0.6694,0.6376,0.0,0.5491,0.5182,0.4698,0.428,0.3858,0.3392,0.3075,0.2856,0.274,0.3056,0.336,0.3554,0.0,0.0,0.0,0.0,0.0,0.0,0.0,0.0,0.0,0.0,0.0,0.0,0.4545,0.4519,0.4519,0.4519,0.4519,0.4519,0.4519,0.4519,0.4519,0.368,0.3735,0.4405,0.212,0.1114,0.0,0.0,0.0,0.0,-0.5973,-0.702,-0.7777,-0.8533,-0.9614,-1.0813,-1.0813,-1.1692,-1.2881,-1.2881,-1.2881,-1.2774,-1.203,-1.1814,-1.1665,-1.1015,-1.1792,-1.2569,-1.1174,-0.9865,-0.8956,-0.9614,-0.9814,-0.9814,-0.9814,-1.032,-1.0813,-1.0813,-1.1366,-1.1814,-1.1814,-1.2393,-1.2881,-1.2881,-1.2881,-1.2881,-1.2881,-1.2881,-1.2881,-1.2929,-1.2929,-1.2929,-1.2929,-1.2929,-1.3382,-1.4571,-1.4698,-1.4698,-1.4698,-1.4698,-1.4698,-1.4698,-1.4097,-1.3779,-1.3779,-1.319,-1.2881,-1.2881,-1.2881,-1.2881,-1.2881,-1.2881,-1.2157,0.7501,0.7466,0.7097,0.6719,0.6294,0.5854,0.5497,0.5344,0.5087,0.4344,0.4091,0.3761,0.3039,0.2821,0.2805,0.2957,0.0,0.0,0.0,0.0,0.0,0.0,0.0,0.0,0.0,0.0,0.0,0.0,0.0,0.0,0.0,0.0,0.4519,0.4519,0.4519,0.4519,0.4519,0.4519,0.4519,0.4519,0.4236,0.4239,0.4463,0.2676,0.0,0.0,0.0,0.0,0.0,-0.5973,-0.702,-0.7777,-0.8533,-0.9361,-1.0167,-1.061,-1.1366,-1.2236,-1.2715,-1.2881,-1.2871,-1.2618,-1.2187,-1.1765,-1.1566,-1.1466,-1.1283,-1.0364,-0.9814,-0.951,-0.9762,-0.9814,-1.0012,-1.0965,-1.1316,-1.1625,-1.2147,-1.2403,-1.2559,-1.2559,-1.2725,-1.2881,-1.2881,-1.2881,-1.2881,-1.2881,-1.3238,-1.3647,-1.4071,-1.4107,-1.4294,-1.4687,-1.4376,-1.3931,-1.3525,-1.3478,-1.3478,-1.3478,-1.3478,-1.3478,-1.3478,-1.3286,-1.32,-1.32,-1.3017,-1.2881,-1.2881,-1.2881,-1.2657,-1.2138,-1.1683,-1.0973,0.0,0.6712,0.6266,0.5989,0.5641,0.5299,0.515,0.5197,0.5055,0.4183,0.3993,0.3728,0.2845,0.2727,0.2825,0.3012,0.0,0.0,0.0,0.0,0.0,0.0,0.0,0.0,0.0,0.0,0.0,0.0,0.0,0.0,0.0,0.0,0.4519,0.4519,0.4519,0.4519,0.4519,0.4519,0.4519,0.4519,0.4519,0.4519,0.446,0.2899,0.0,0.0,0.0,0.0,0.0,-0.5479,-0.6637,-0.7343,-0.8103,-0.8942,-0.9865,-1.0269,-1.1015,-1.1873,-1.2344,-1.2666,-1.2832,-1.2559,-1.1981,-1.1466,-1.1715,-1.1166,-1.0364,-0.9917,-0.9614,-0.9413,-0.9413,-0.9614,-1.0012,-1.0864,-1.1266,-1.1566,-1.1999,-1.2304,-1.2501,-1.2501,-1.2715,-1.2881,-1.2881,-1.2881,-1.2881,-1.2881,-1.3238,-1.36,-1.3978,-1.4201,-1.4503,-1.4858,-1.4789,-1.4387,-1.3658,-1.3563,-1.3563,-1.3563,-1.3563,-1.3563,-1.3563,-1.3382,-1.3238,-1.3238,-1.3017,-1.2881,-1.2881,-1.2881,-1.251,-1.1765,-1.1366,-1.0661,0.0,0.5665,0.5331,0.5058,0.4884,0.4807,0.4807,0.5063,0.0,0.4183,0.3993,0.3733,0.2859,0.2812,0.292,0.2951,0.0,0.0,0.0,0.0,0.0,0.0,0.0,0.0,0.0,0.0,0.0,0.0,0.0,0.0,0.0,0.0,0.4519,0.4519,0.4519,0.4519,0.4519,0.4519,0.4519,0.4519,0.4519,0.4519,0.446,0.2899,0.0,0.0,0.0,0.0,0.0,-0.4601,-0.5928,-0.6696,-0.7396,-0.8508,-0.971,-0.9762,-1.0568,-1.1665,-1.1715,-1.2187,-1.2618,-1.1972,-1.1266,-1.0864,-1.1516,-1.0864,-0.9865,-0.9814,-0.9361,-0.8857,-0.8857,-0.9309,-0.9814,-0.9865,-1.0364,-1.0864,-1.0864,-1.1416,-1.1864,-1.1864,-1.2452,-1.2881,-1.2881,-1.2929,-1.2968,-1.2968,-1.3017,-1.3113,-1.3113,-1.36,-1.3909,-1.3909,-1.4376,-1.4698,-1.4698,-1.4698,-1.4698,-1.4698,-1.4698,-1.4698,-1.4698,-1.4097,-1.3815,-1.3815,-1.319,-1.2881,-1.2881,-1.2881,-1.2559,-1.1864,-1.1814,-1.1116,0.5041,0.0,0.5331,0.5058,0.4884,0.4807,0.0,0.5063,0.5055,0.4183,0.0,0.378,0.3007,0.2886,0.3022,0.0,0.0,0.0,0.0,0.0,0.0,0.0,0.0,0.0,0.0,0.0,0.0,0.0,0.0,0.0,0.0,0.0,0.4519,0.4519,0.4519,0.4519,0.4519,0.4519,0.4519,0.4519,0.4519,0.4519,0.446,0.2899,0.0,0.0,0.0,0.0,-0.2397,-0.4601,-0.5928,-0.6696,-0.7396,-0.8256,-0.9113,-0.9614,-1.0012,-1.0364,-1.0864,-1.1174,-1.1275,-1.1065,-1.0568,-1.0167,-1.0813,-1.0813,-1.0466,-0.9969,-0.9666,-0.9562,-0.9562,-0.9666,-0.9917,-1.0415,-1.1065,-1.1566,-1.1566,-1.2138,-1.2657,-1.2657,-1.2774,-1.2881,-1.2881,-1.3286,-1.36,-1.36,-1.4365,-1.496,-1.496,-1.5084,-1.5186,-1.5186,-1.4869,-1.4698,-1.4698,-1.4698,-1.4698,-1.4698,-1.4698,-1.4698,-1.4698,-1.4097,-1.3815,-1.3815,-1.319,-1.2881,-1.2881,-1.2881,-1.2822,-1.2618,-1.208,-1.1616,0.4814,0.4989,0.5237,0.498,0.497,0.5037,0.5037,0.0,0.0,0.0,0.0,0.3761,0.3022,0.291,0.0,0.0,0.0,0.0,0.0,0.0,0.0,0.0,0.0,0.0,0.0,0.0,0.0,0.0,0.0,0.0,0.0,0.0,0.4519,0.4519,0.4519,0.4519,0.4519,0.4519,0.4519,0.4519,0.4519,0.4519,0.446,0.3234,0.0,0.0,0.0,0.0,-0.2341,-0.3834,-0.5101,-0.6145,-0.6524,-0.7337,-0.8315,-0.8718,-0.9242,-0.9865,-1.0218,-1.0517,-1.0813,-1.0813,-1.0364,-0.9865,-1.021,-1.0115,-0.9909,-1.0167,-1.0261,-1.0261,-1.0261,-1.0466,-1.0813,-1.1166,-1.1774,-1.2295,-1.2295,-1.2608,-1.2881,-1.2881,-1.2881,-1.2881,-1.2881,-1.3152,-1.3372,-1.3372,-1.419,-1.4767,-1.4767,-1.5276,-1.5588,-1.5588,-1.5555,-1.5522,-1.5522,-1.5522,-1.5287,-1.4744,-1.4698,-1.4698,-1.4698,-1.4097,-1.3684,-1.3372,-1.3065,-1.2881,-1.2881,-1.2881,-1.2715,-1.2403,-1.1972,-1.1665,0.4987,0.5163,0.5338,0.4907,0.5125,0.5404,0.5309,0.0,0.0,0.0,0.0,0.0,0.0,0.0,0.0,0.0,0.0,0.0,0.0,0.0,0.0,0.0,0.0,0.0,0.0,0.0,0.0,0.0,0.0,0.0,0.0,0.0,0.0,0.4519,0.4519,0.4519,0.4519,0.4519,0.4519,0.4519,0.4519,0.4519,0.446,0.368,0.0,0.0,0.0,0.0,-0.223,-0.301,-0.4168,-0.5487,-0.5487,-0.6411,-0.7723,-0.7723,-0.8508,-0.9666,-0.9666,-1.0012,-1.0517,-1.061,-1.021,-0.9666,-0.9917,-0.9465,-0.9211,-1.0466,-1.072,-1.0669,-1.0669,-1.1166,-1.1665,-1.1665,-1.2187,-1.2715,-1.2715,-1.2822,-1.2881,-1.2881,-1.2881,-1.2881,-1.2881,-1.2968,-1.3065,-1.3065,-1.3647,-1.4086,-1.4086,-1.5039,-1.5732,-1.5732,-1.6182,-1.6522,-1.6522,-1.6522,-1.6064,-1.5017,-1.4971,-1.4926,-1.4835,-1.4376,-1.3732,-1.3065,-1.3065,-1.2968,-1.2881,-1.2881,-1.2559,-1.1972,-1.1972,-1.1674,0.5597,0.6127,0.6347,0.5098,0.5396,0.5851,0.5404,0.0,0.0,0.0,0.0,0.0,0.0,0.0,0.0,0.0,0.0,0.0,0.0,0.0,0.0,0.0,0.0,0.0,0.0,0.0,0.0,0.0,0.0,0.0,0.0,0.0,0.0,0.4519,0.4519,0.4519,0.4519,0.4519,0.4519,0.4519,0.4519,0.4519,0.446,0.3735,0.2954,0.0,0.0,-0.0835,-0.223,-0.301,-0.4168,-0.5487,-0.5487,-0.6411,-0.7723,-0.7723,-0.8209,-0.8956,-0.8956,-0.9008,-0.9211,-0.9762,-0.951,-0.9159,-1.0312,-1.0167,-0.9814,-1.0568,-1.0415,-0.9961,-0.9961,-1.0466,-1.0965,-1.0965,-1.1466,-1.1972,-1.1972,-1.2452,-1.2881,-1.2881,-1.2881,-1.2881,-1.2881,-1.3324,-1.3637,-1.3637,-1.4595,-1.5309,-1.5309,-1.592,-1.638,-1.638,-1.6423,-1.6522,-1.6522,-1.6522,-1.6423,-1.625,-1.6194,-1.6008,-1.5499,-1.5365,-1.4812,-1.3684,-1.3637,-1.342,-1.2881,-1.2881,-1.2822,-1.2715,-1.2715,-1.2666,0.5643,0.6305,0.6785,0.5921,0.6261,0.6675,0.6122,0.0,0.0,0.0,0.0,0.0,0.0,0.0,0.0,0.0,0.0,0.0,0.0,0.0,0.0,0.0,0.0,0.0,0.0,0.0,0.0,0.0,0.0,0.0,0.0,0.0,0.0,0.0,0.4519,0.468,0.5058,0.468,0.4519,0.4519,0.4519,0.4519,0.4463,0.4125,0.3345,0.2174,0.0,-0.0111,-0.2232,-0.2565,-0.3616,-0.4948,-0.4948,-0.5601,-0.6632,-0.7396,-0.8156,-0.8804,-0.8804,-0.8804,-0.8857,-0.9159,-0.9061,-0.891,-0.951,-0.9517,-0.9309,-0.9614,-1.0012,-1.0364,-1.0364,-1.0864,-1.1366,-1.1366,-1.1882,-1.2393,-1.2393,-1.2666,-1.2881,-1.2881,-1.2881,-1.2881,-1.2881,-1.3152,-1.3334,-1.3334,-1.4329,-1.5005,-1.4675,-1.5732,-1.638,-1.6051,-1.6293,-1.6522,-1.6522,-1.6522,-1.6522,-1.6522,-1.6522,-1.6238,-1.5632,-1.5276,-1.4687,-1.3815,-1.3457,-1.32,-1.2881,-1.2881,-1.2881,-1.2881,-1.2881,-1.2666,0.5695,0.6368,0.7011,0.6684,0.704,0.7386,0.6898,0.0,0.0,0.0,0.0,0.0,0.0,0.0,0.0,0.0,0.0,0.0,0.0,0.0,0.0,0.0,0.0,0.0,0.0,0.0,0.0,0.0,0.0,0.0,0.0,0.0,0.0,0.0,0.4519,0.4842,0.5487,0.4842,0.457,0.4732,0.457,0.4519,0.4519,0.4519,0.3677,0.2174,0.2174,0.0501,-0.2174,-0.2174,-0.3121,-0.4519,-0.4519,-0.5007,-0.5923,-0.723,-0.8156,-0.8804,-0.8804,-0.8804,-0.8804,-0.8804,-0.8804,-0.8804,-0.8804,-0.8804,-0.8804,-0.8804,-0.9562,-1.0364,-1.0517,-1.1166,-1.1814,-1.1814,-1.2344,-1.2881,-1.2881,-1.2881,-1.2881,-1.2881,-1.2881,-1.2881,-1.2881,-1.3017,-1.3104,-1.3104,-1.4154,-1.4744,-1.4272,-1.541,-1.6194,-1.5864,-1.6095,-1.6337,-1.6479,-1.6522,-1.6522,-1.6522,-1.6522,-1.6281,-1.582,-1.5242,-1.4652,-1.4003,-1.342,-1.3065,-1.2881,-1.2881,-1.2881,-1.2881,-1.2881,-1.2608,0.6097,0.6623,0.7079,0.6895,0.7338,0.0,0.7395,0.7056,0.0,0.0,0.0,0.0,0.0,0.0,0.0,0.0,0.0,0.0,0.0,0.0,0.0,0.0,0.0,0.0,0.0,0.0,0.0,0.0,0.0,0.0,0.0,0.0,0.0,0.0,0.0,0.4842,0.5487,0.4842,0.4787,0.5433,0.4787,0.4519,0.4519,0.4519,0.3677,0.2174,0.2174,0.0501,-0.2174,-0.2174,-0.3121,-0.4519,-0.4519,-0.5336,-0.6642,-0.7396,-0.8156,-0.8804,-0.8804,-0.8804,-0.8804,-0.8804,-0.8804,-0.8804,-0.8804,-0.8804,-0.8804,-0.8804,-0.8857,-0.9113,-0.971,-1.0813,-1.1814,-1.1814,-1.2344,-1.2881,-1.2881,-1.2881,-1.2881,-1.2881,-1.2881,-1.2881,-1.2881,-1.3372,-1.3732,-1.3732,-1.4767,-1.5543,-1.5499,-1.5588,-1.5864,-1.638,-1.5952,-1.5908,-1.6466,-1.6522,-1.6522,-1.6522,-1.6522,-1.6466,-1.6423,-1.5864,-1.5231,-1.4652,-1.405,-1.3457,-1.2881,-1.2881,-1.2881,-1.2881,-1.2881,-1.2881,0.6021,0.6651,0.7243,0.7082,0.0,0.0,0.0,0.0,0.0,0.0,0.0,0.0,0.0,0.0,0.0,0.0,0.0,0.0,0.0,0.0,0.0,0.0,0.0,0.0,0.0,0.0,0.0,0.0,0.0,0.0,0.0,0.0,0.0,0.0,0.0,0.4842,0.5487,0.4842,0.4842,0.5487,0.4842,0.4519,0.4519,0.4519,0.3901,0.2843,0.2397,0.1058,-0.089,-0.1839,-0.2843,-0.3846,-0.4294,-0.5336,-0.6642,-0.6912,-0.7777,-0.8804,-0.8804,-0.8804,-0.8804,-0.8804,-0.8804,-0.8804,-0.8804,-0.8804,-0.8804,-0.8804,-0.8804,-0.8956,-0.9614,-1.0466,-1.1266,-1.1715,-1.2344,-1.2881,-1.2881,-1.2881,-1.2881,-1.2881,-1.319,-1.3457,-1.3457,-1.3637,-1.392,-1.4283,-1.4744,-1.5062,-1.5062,-1.5688,-1.6095,-1.5952,-1.6051,-1.6238,-1.6466,-1.6522,-1.6522,-1.6522,-1.6139,-1.5952,-1.5952,-1.5005,-1.4365,-1.4143,-1.3563,-1.3152,-1.2881,-1.2881,-1.2881,-1.2881,-1.2881,-1.2666,0.6324,0.6858,0.7462,0.0,0.0,0.0,0.0,0.0,0.0,0.0,0.0,0.0,0.0,0.0,0.0,0.0,0.0,0.0,0.0,0.0,0.0,0.0,0.0,0.0,0.0,0.0,0.0,0.0,0.0,0.0,0.0,0.0,0.0,0.0,0.0,0.0,0.5487,0.4842,0.4842,0.5487,0.4842,0.4519,0.4519,0.4519,0.407,0.3287,0.2508,0.1336,-0.0111,-0.1615,-0.2788,-0.379,-0.4294,-0.5226,-0.6258,-0.6534,-0.7402,-0.848,-0.8699,-0.8804,-0.8804,-0.8804,-0.8804,-0.8804,-0.8804,-0.8804,-0.8804,-0.8804,-0.8956,-0.9256,-0.9969,-1.0466,-1.0965,-1.1665,-1.2344,-1.2881,-1.2881,-1.2881,-1.2881,-1.2881,-1.3372,-1.3815,-1.3815,-1.4133,-1.4503,-1.4915,-1.5152,-1.5242,-1.5242,-1.5832,-1.6051,-1.5632,-1.6139,-1.6522,-1.6522,-1.6522,-1.6522,-1.6522,-1.5908,-1.5588,-1.5588,-1.4457,-1.3815,-1.3815,-1.319,-1.2881,-1.2881,-1.2881,-1.2881,-1.2881,-1.2881,-1.2618,0.7107,0.7338,0.7729,0.0,0.0,0.0,0.0,0.0,0.0,0.0,0.0,0.0,0.0,0.0,0.0,0.0,0.0,0.0,0.0,0.0,0.0,0.0,0.0,0.0,0.0,0.0,0.0,0.0,0.0,0.0,0.0,0.0,0.0,0.0,0.0,0.0,0.5487,0.4842,0.4842,0.5487,0.4842,0.4519,0.4519,0.4519,0.407,0.3345,0.2565,0.1392,-0.0111,-0.1615,-0.3121,-0.4519,-0.4519,-0.4893,-0.5597,-0.6312,-0.7074,-0.783,-0.8533,-0.8804,-0.8804,-0.8804,-0.8804,-0.8804,-0.8804,-0.8804,-0.8804,-0.8804,-0.9263,-0.9961,-1.0618,-1.0813,-1.0965,-1.1665,-1.2344,-1.2881,-1.2881,-1.2881,-1.2881,-1.2881,-1.3372,-1.3815,-1.3815,-1.4812,-1.5588,-1.5632,-1.6095,-1.6466,-1.6522,-1.5964,-1.5632,-1.5632,-1.6139,-1.6522,-1.6522,-1.6522,-1.6522,-1.6522,-1.5908,-1.5576,-1.5588,-1.4457,-1.3826,-1.3815,-1.319,-1.2929,-1.2881,-1.2881,-1.2881,-1.2881,-1.2881,-1.2881,0.7146,0.7621,0.0,0.0,0.0,0.0,0.0,0.0,0.0,0.0,0.0,0.0,0.0,0.0,0.0,0.0,0.0,0.0,0.0,0.0,0.0,0.0,0.0,0.0,0.0,0.0,0.0,0.0,0.0,0.0,0.0,0.0,0.0,0.0,0.0,0.0,0.5487,0.5324,0.5324,0.5487,0.4842,0.4519,0.4519,0.4519,0.407,0.3287,0.2508,0.1673,0.0614,-0.1394,-0.3121,-0.4519,-0.4519,-0.4893,-0.5597,-0.6312,-0.7074,-0.783,-0.8533,-0.8804,-0.8804,-0.8804,-0.8804,-0.8804,-0.8804,-0.8804,-0.8804,-0.8804,-0.9263,-0.9961,-1.0618,-1.1166,-1.1674,-1.2403,-1.2725,-1.2881,-1.2881,-1.2881,-1.2881,-1.2881,-1.3742,-1.4422,-1.4422,-1.5096,-1.572,-1.6194,-1.6008,-1.6008,-1.6436,-1.6324,-1.6238,-1.6238,-1.638,-1.6522,-1.6522,-1.6522,-1.6522,-1.6522,-1.5522,-1.5141,-1.5588,-1.4824,-1.4236,-1.3815,-1.3637,-1.3324,-1.2881,-1.2881,-1.2881,-1.2881,-1.2881,-1.2881,0.8134,0.0,0.0,0.0,0.0,0.0,0.0,0.0,0.0,0.0,0.0,0.0,0.0,0.0,0.0,0.0,0.0,0.0,0.0,0.0,0.0,0.0,0.0,0.0,0.0,0.0,0.0,0.0,0.0,0.0,0.0,0.0,0.0,0.0,0.0,0.0,0.5487,0.5487,0.5487,0.5487,0.4842,0.4594,0.4804,0.4601,0.4207,0.361,0.2571,0.1378,0.0112,-0.1505,-0.2899,-0.407,-0.4349,-0.4732,-0.5218,-0.6204,-0.6858,-0.7396,-0.8427,-0.8804,-0.8804,-0.8804,-0.8804,-0.8804,-0.8804,-0.8804,-0.8804,-0.8804,-0.9458,-1.0312,-1.0712,-1.1525,-1.2344,-1.2774,-1.2881,-1.2881,-1.2881,-1.2881,-1.2881,-1.2881,-1.3705,-1.4422,-1.4663,-1.5186,-1.5808,-1.6423,-1.6194,-1.6095,-1.6466,-1.6522,-1.6522,-1.6522,-1.6522,-1.6522,-1.6522,-1.6522,-1.6522,-1.6522,-1.5599,-1.5231,-1.5588,-1.456,-1.3789,-1.3467,-1.342,-1.3238,-1.2881,-1.2881,-1.2881,-1.2881,-1.2881,-1.2881,0.9566,0.0,0.0,0.0,0.0,0.0,0.0,0.0,0.0,0.0,0.0,0.0,0.0,0.0,0.0,0.0,0.0,0.0,0.0,0.0,0.0,0.0,0.0,0.0,0.0,0.0,0.0,0.0,0.0,0.0,0.0,0.0,0.0,0.0,0.0,0.0,0.5701,0.5651,0.5651,0.0,0.4937,0.485,0.5384,0.4757,0.4318,0.4036,0.2548,0.0812,-0.1061,-0.1842,-0.2621,-0.3398,-0.4184,-0.4519,-0.468,-0.6095,-0.6588,-0.6804,-0.8262,-0.8804,-0.8804,-0.8804,-0.8804,-0.8804,-0.8804,-0.8804,-0.8804,-0.8857,-0.9814,-1.0813,-1.0864,-1.1891,-1.2881,-1.2881,-1.2881,-1.2881,-1.2881,-1.2881,-1.2881,-1.2881,-1.3372,-1.4003,-1.4606,-1.5186,-1.5808,-1.6423,-1.6522,-1.6522,-1.6522,-1.6522,-1.6522,-1.6522,-1.6522,-1.6522,-1.6522,-1.6522,-1.6522,-1.6522,-1.5908,-1.5588,-1.5588,-1.3967,-1.3017,-1.2968,-1.2968,-1.2978,-1.2881,-1.2881,-1.2881,-1.2881,-1.2881,-1.2881,0.0,0.9729,0.0,0.0,0.0,0.0,0.0,0.0,0.0,0.0,0.0,0.0,0.0,0.0,0.0,0.0,0.0,0.0,0.0,0.0,0.0,0.0,0.0,0.0,0.0,0.0,0.0,0.0,0.0,0.0,0.0,0.0,0.0,0.0,0.0,0.799,0.723,0.6637,0.6637,0.0,0.5717,0.5414,0.6098,0.4854,0.3903,0.3239,0.1755,0.0596,-0.0334,-0.1672,-0.2676,-0.3456,-0.4184,-0.4519,-0.468,-0.6095,-0.6588,-0.6804,-0.8262,-0.8804,-0.8804,-0.8804,-0.8804,-0.8804,-0.8804,-0.8804,-0.891,-0.9465,-1.0167,-1.0914,-1.1466,-1.2246,-1.2881,-1.2881,-1.2881,-1.2881,-1.2881,-1.2881,-1.2881,-1.2881,-1.3372,-1.4003,-1.4606,-1.5186,-1.5808,-1.6423,-1.6522,-1.6522,-1.6522,-1.6522,-1.6522,-1.6522,-1.6522,-1.6522,-1.6522,-1.6522,-1.6522,-1.6522,-1.5908,-1.5588,-1.5588,-1.4789,-1.4107,-1.3637,-1.36,-1.3372,-1.2881,-1.2881,-1.2881,-1.2881,-1.2881,-1.2881,0.0,0.0,0.0,0.0,0.0,0.0,0.0,0.0,0.0,0.0,0.0,0.0,0.0,0.0,0.0,0.0,0.0,0.0,0.0,0.0,0.0,0.0,0.0,0.0,0.0,0.0,0.0,0.0,0.0,0.0,0.0,0.0,0.0,0.0,0.831,0.8018,0.7291,0.6877,0.6877,0.7234,0.6041,0.549,0.555,0.4469,0.366,0.2946,0.2132,0.1234,0.0319,-0.1113,-0.2068,-0.2821,-0.3949,-0.4362,-0.4527,-0.6063,-0.6588,-0.6804,-0.8262,-0.8804,-0.8804,-0.8804,-0.8804,-0.8804,-0.8804,-0.8804,-0.8962,-0.9614,-1.0261,-1.0965,-1.1616,-1.2344,-1.2881,-1.2881,-1.2881,-1.2881,-1.2881,-1.2881,-1.2881,-1.2881,-1.3152,-1.3647,-1.4571,-1.5421,-1.6139,-1.6466,-1.6522,-1.6522,-1.6522,-1.6522,-1.6522,-1.6522,-1.6522,-1.6522,-1.6522,-1.6522,-1.6522,-1.6522,-1.5908,-1.5588,-1.5588,-1.5017,-1.4422,-1.3815,-1.3815,-1.3637,-1.3334,-1.3065,-1.3065,-1.3324,-1.3017,-1.2881,0.0,0.0,0.0,0.0,0.0,0.0,0.0,0.0,0.0,0.0,0.0,0.0,0.0,0.0,0.0,0.0,0.0,0.0,0.0,0.0,0.0,0.0,0.0,0.0,0.0,0.0,0.0,0.0,0.0,0.0,0.0,0.0,0.7943,0.7849,0.7855,0.7631,0.6978,0.6877,0.6877,0.6978,0.6261,0.5462,0.4625,0.4118,0.3592,0.303,0.2788,0.2086,0.1007,-0.0401,-0.1353,-0.212,-0.3505,-0.4089,-0.4369,-0.586,-0.648,-0.6804,-0.8156,-0.8699,-0.8804,-0.8804,-0.8804,-0.8804,-0.8804,-0.8857,-0.9106,-0.9762,-1.0466,-1.1116,-1.1823,-1.2452,-1.2881,-1.2881,-1.2881,-1.2881,-1.2881,-1.2881,-1.2881,-1.2881,-1.2968,-1.343,-1.4525,-1.5599,-1.638,-1.6466,-1.6522,-1.6522,-1.6522,-1.6522,-1.6522,-1.6522,-1.6522,-1.6522,-1.6522,-1.6522,-1.6522,-1.6522,-1.6051,-1.572,-1.5588,-1.5096,-1.4514,-1.3815,-1.3909,-1.3909,-1.3815,-1.3286,-1.3238,-1.3637,-1.3152,-1.2881,0.0,0.0,0.0,0.0,0.0,0.0,0.0,0.0,0.0,0.0,0.0,0.0,0.0,0.0,0.0,0.0,0.0,0.0,0.0,0.0,0.0,0.0,0.0,0.0,0.0,0.0,0.0,0.0,0.0,0.0,0.0,0.8114,0.8023,0.7574,0.7789,0.7834,0.7732,0.7128,0.7128,0.7726,0.6911,0.5792,0.4424,0.434,0.4078,0.363,0.2992,0.2376,0.176,0.0301,-0.1004,-0.212,-0.3029,-0.3764,-0.4316,-0.5263,-0.6036,-0.6696,-0.7563,-0.8268,-0.8804,-0.8804,-0.8804,-0.8804,-0.8804,-0.9211,-0.9814,-1.0466,-1.1166,-1.1823,-1.2559,-1.2832,-1.2881,-1.2881,-1.2881,-1.2881,-1.2881,-1.2881,-1.2881,-1.2881,-1.3324,-1.392,-1.456,-1.5287,-1.5908,-1.6423,-1.6522,-1.6522,-1.6522,-1.6522,-1.6522,-1.6522,-1.6522,-1.6522,-1.6522,-1.6522,-1.6522,-1.6522,-1.6423,-1.6151,-1.5632,-1.5543,-1.4949,-1.3815,-1.4329,-1.4329,-1.3815,-1.3732,-1.3467,-1.3017,-1.2929,-1.2881,0.873,0.0,0.0,0.0,0.0,0.0,0.0,0.0,0.0,0.0,0.0,0.0,0.0,0.0,0.0,0.0,0.0,0.0,0.0,0.0,0.0,0.0,0.0,0.0,0.0,0.0,0.0,0.0,0.0,0.0,0.8357,0.8458,0.8284,0.7738,0.7838,0.7739,0.7377,0.709,0.709,0.7377,0.6711,0.5843,0.4913,0.4565,0.4131,0.3673,0.3351,0.2689,0.179,0.0845,-0.0516,-0.1987,-0.2752,-0.3486,-0.4189,-0.5064,-0.5891,-0.6696,-0.745,-0.8156,-0.8804,-0.8804,-0.8804,-0.8804,-0.8804,-0.9008,-0.9465,-1.0517,-1.1015,-1.1475,-1.2618,-1.2881,-1.2881,-1.2881,-1.2881,-1.2881,-1.2881,-1.2881,-1.2881,-1.2881,-1.3372,-1.3862,-1.4143,-1.4698,-1.5197,-1.5433,-1.5478,-1.5599,-1.5964,-1.6008,-1.6151,-1.6466,-1.6522,-1.638,-1.6008,-1.6293,-1.638,-1.6008,-1.6324,-1.6238,-1.5632,-1.5588,-1.5353,-1.4812,-1.4422,-1.405,-1.3815,-1.3457,-1.3324,-1.342,-1.3065,-1.2881,0.0,0.0,0.0,0.0,0.0,0.0,0.0,0.0,0.0,0.0,0.0,0.0,0.0,0.0,0.0,0.0,0.0,0.0,0.0,0.0,0.0,0.0,0.0,0.0,0.0,0.0,0.0,0.0,0.0,0.0,0.8918,0.8918,0.8635,0.8118,0.8118,0.7821,0.7231,0.7063,0.6937,0.681,0.652,0.6002,0.5303,0.4826,0.4308,0.3796,0.3667,0.2904,0.1784,0.1334,-0.0044,-0.1837,-0.2428,-0.3206,-0.4086,-0.475,-0.5712,-0.6696,-0.7235,-0.8049,-0.8804,-0.8804,-0.8804,-0.8804,-0.8804,-0.891,-0.9309,-1.0466,-1.0914,-1.1325,-1.2569,-1.2881,-1.2881,-1.2881,-1.2881,-1.2881,-1.2881,-1.2881,-1.2978,-1.3113,-1.3505,-1.3909,-1.4179,-1.4641,-1.4971,-1.5107,-1.5152,-1.5332,-1.5776,-1.5676,-1.582,-1.6423,-1.638,-1.6139,-1.5864,-1.6238,-1.6238,-1.5632,-1.6194,-1.6151,-1.541,-1.5543,-1.5543,-1.5365,-1.4503,-1.405,-1.405,-1.3563,-1.342,-1.3552,-1.3286,-1.3152,0.0,0.0,0.0,0.0,0.0,0.0,0.0,0.0,0.0,0.0,0.0,0.0,0.0,0.0,0.0,0.0,0.0,0.0,0.0,0.0,0.0,0.0,0.0,0.0,0.0,0.0,0.0,0.0,0.0,0.0,0.9478,0.9439,0.9199,0.8675,0.8675,0.8398,0.787,0.7273,0.6732,0.6264,0.6725,0.638,0.5303,0.5265,0.4913,0.4347,0.384,0.2904,0.1786,0.1784,0.0356,-0.1837,-0.1962,-0.2866,-0.4036,-0.4192,-0.5239,-0.6588,-0.6642,-0.7616,-0.8804,-0.8804,-0.8804,-0.8804,-0.8804,-0.9263,-0.9917,-1.0618,-1.1266,-1.1922,-1.2715,-1.2881,-1.2881,-1.2881,-1.2881,-1.2881,-1.2881,-1.2881,-1.3065,-1.3637,-1.3779,-1.4179,-1.5309,-1.5543,-1.5732,-1.6337,-1.6423,-1.6423,-1.6466,-1.5952,-1.582,-1.6423,-1.6008,-1.5864,-1.6423,-1.6466,-1.6238,-1.5632,-1.6194,-1.5976,-1.4789,-1.5276,-1.532,-1.4744,-1.4709,-1.4652,-1.4652,-1.4617,-1.4025,-1.2968,-1.3505,-1.3732,0.0,0.0,0.0,0.0,0.0,0.0,0.0,0.0,0.0,0.0,0.0,0.0,0.0,0.0,0.0,0.0,0.0,0.0,0.0,0.0,0.0,0.0,0.0,0.0,0.0,0.0,0.0,0.0,0.0,0.0,1.0,1.0,0.9765,0.9239,0.9199,0.8797,0.7919,0.7704,0.728,0.6732,0.6894,0.6598,0.5873,0.5873,0.5346,0.4387,0.4176,0.347,0.2361,0.1962,0.0846,-0.0714,-0.1542,-0.2517,-0.3474,-0.3929,-0.4823,-0.5982,-0.6421,-0.7235,-0.8156,-0.8646,-0.8804,-0.8804,-0.8804,-0.9263,-0.9969,-1.061,-1.1275,-1.199,-1.2725,-1.2881,-1.2881,-1.2881,-1.2881,-1.3017,-1.3372,-1.3152,-1.2968,-1.32,-1.3552,-1.3956,-1.4365,-1.4778,-1.5107,-1.5287,-1.5332,-1.5466,-1.5864,-1.572,-1.582,-1.6423,-1.6293,-1.6095,-1.5964,-1.6281,-1.6238,-1.5632,-1.6194,-1.6151,-1.532,-1.5499,-1.5499,-1.5276,-1.5276,-1.5107,-1.4698,-1.4698,-1.4479,-1.4071,-1.3873,-1.3815,0.684,0.0,0.0,0.0,0.0,0.0,0.0,0.0,0.0,0.0,0.0,0.0,0.0,0.0,0.0,0.0,0.0,0.0,0.0,0.0,0.0,0.0,0.0,0.0,0.0,0.0,0.0,0.0,0.0,0.0,1.0322,1.0283,1.0118,0.9765,0.9597,0.9079,0.8193,0.7995,0.7614,0.6979,0.6979,0.681,0.6477,0.6264,0.5653,0.4696,0.4474,0.377,0.2674,0.2051,0.1069,-0.0133,-0.1337,-0.2326,-0.311,-0.3751,-0.4786,-0.5891,-0.6396,-0.7235,-0.8156,-0.8646,-0.8804,-0.8804,-0.8804,-0.9106,-0.9666,-1.0568,-1.1124,-1.1701,-1.2676,-1.2881,-1.2881,-1.2881,-1.3065,-1.3334,-1.3732,-1.3505,-1.3334,-1.3742,-1.4143,-1.4457,-1.4687,-1.5062,-1.5287,-1.5287,-1.5287,-1.5466,-1.5864,-1.5732,-1.582,-1.6423,-1.6337,-1.6139,-1.5908,-1.6281,-1.6238,-1.5632,-1.6194,-1.6238,-1.5632,-1.5776,-1.5908,-1.5908,-1.5908,-1.5688,-1.5287,-1.5107,-1.488,-1.4709,-1.4283,-1.4003,0.0,0.0,0.0,0.0,0.0,0.0,0.0,0.0,0.0,0.0,0.0,0.0,0.0,0.0,0.0,0.0,0.0,0.0,0.0,0.0,0.0,0.0,0.0,0.0,0.0,0.0,0.0,0.0,0.0,1.0829,1.0361,1.0322,1.0322,1.0283,0.9795,0.9279,0.8724,0.8193,0.7614,0.7021,0.7021,0.6979,0.6979,0.6477,0.5873,0.5265,0.4696,0.3774,0.2674,0.2095,0.1114,-0.0089,-0.1293,-0.2242,-0.2952,-0.3716,-0.5014,-0.6334,-0.6561,-0.7557,-0.8752,-0.8804,-0.8804,-0.8804,-0.8804,-0.8804,-0.9106,-1.0415,-1.0813,-1.1174,-1.2569,-1.2929,-1.2929,-1.2929,-1.3372,-1.3815,-1.3862,-1.3862,-1.4179,-1.5353,-1.5588,-1.5776,-1.638,-1.6479,-1.6522,-1.6522,-1.6522,-1.6522,-1.6522,-1.6008,-1.5864,-1.6423,-1.5964,-1.5864,-1.6466,-1.6522,-1.6238,-1.5676,-1.6194,-1.6238,-1.5632,-1.6194,-1.6522,-1.6522,-1.6522,-1.6522,-1.6522,-1.5908,-1.532,-1.4744,-1.4709,-1.4376,0.5619,0.0,0.0,0.0,0.0,0.0,0.0,0.0,0.0,0.0,0.0,0.0,0.0,0.0,0.0,0.0,0.0,0.0,0.0,0.0,0.0,0.0,0.0,0.0,0.0,0.0,0.0,0.0,1.1763,1.1516,1.1404,1.1029,1.0649,1.0322,1.0157,0.9843,0.9279,0.8756,0.8193,0.7655,0.7189,0.6979,0.6979,0.6852,0.6252,0.5303,0.513,0.4395,0.3306,0.2721,0.2004,0.1158,-0.0488,-0.1597,-0.2384,-0.3566,-0.4368,-0.4996,-0.6192,-0.6858,-0.7402,-0.848,-0.8804,-0.8804,-0.8804,-0.9458,-1.0312,-1.0712,-1.1534,-1.2412,-1.2774,-1.3238,-1.3552,-1.3552,-1.4014,-1.456,-1.4994,-1.5084,-1.5096,-1.4971,-1.532,-1.5632,-1.582,-1.6194,-1.6522,-1.6522,-1.6522,-1.6522,-1.6522,-1.6337,-1.6324,-1.6466,-1.6337,-1.6337,-1.6479,-1.6522,-1.6423,-1.6238,-1.6423,-1.6423,-1.6238,-1.6423,-1.6522,-1.6522,-1.6522,-1.6522,-1.6522,-1.6324,-1.6151,-1.5976,-1.5119,-1.4376,0.0,0.0,0.0,0.0,0.0,0.0,0.0,0.0,0.0,0.0,0.0,0.0,0.0,0.0,0.0,0.0,0.0,0.0,0.0,0.0,0.0,0.0,0.0,0.0,0.0,0.0,0.0,0.0,1.2048,1.165,1.1425,1.0762,1.0485,1.0601,1.0212,0.9858,0.9518,0.9199,0.8756,0.8242,0.7655,0.7363,0.7363,0.7105,0.6374,0.5303,0.5303,0.4661,0.3578,0.3214,0.2588,0.1606,-0.0489,-0.1537,-0.2092,-0.3432,-0.4175,-0.4684,-0.6025,-0.6712,-0.715,-0.8389,-0.8804,-0.8804,-0.8804,-0.9562,-1.0415,-1.0712,-1.1792,-1.2881,-1.2881,-1.3152,-1.3505,-1.3732,-1.4283,-1.488,-1.5454,-1.582,-1.5864,-1.5511,-1.5732,-1.5964,-1.5964,-1.6281,-1.6522,-1.6522,-1.6522,-1.6522,-1.6522,-1.6522,-1.6423,-1.6139,-1.6337,-1.638,-1.6151,-1.638,-1.6522,-1.6522,-1.6238,-1.6139,-1.6139,-1.6139,-1.6008,-1.5744,-1.625,-1.638,-1.6151,-1.638,-1.625,-1.5744,-1.4789,-1.4014,0.0,0.0,0.0,0.0,0.0,0.0,0.7535,0.8106,0.0,0.0,0.0,0.0,0.0,0.0,0.0,0.0,0.0,0.0,0.0,0.0,0.0,0.0,0.0,0.0,0.0,0.0,1.2988,1.2531,1.2005,1.1462,1.0934,1.0133,1.0032,1.0803,1.0053,0.9591,0.9524,0.95,0.9279,0.8797,0.8201,0.7919,0.7878,0.728,0.6422,0.5394,0.5346,0.4705,0.3667,0.3534,0.2812,0.1561,-0.0623,-0.1604,-0.1973,-0.3222,-0.4159,-0.4947,-0.5967,-0.6793,-0.7524,-0.8463,-0.8784,-0.8804,-0.891,-0.9361,-1.0064,-1.0914,-1.2039,-1.3017,-1.3065,-1.3162,-1.3334,-1.3862,-1.4468,-1.5017,-1.5499,-1.6008,-1.638,-1.6293,-1.6337,-1.638,-1.6293,-1.638,-1.638,-1.638,-1.6479,-1.6479,-1.6423,-1.638,-1.6194,-1.5543,-1.5964,-1.6107,-1.5543,-1.6008,-1.6293,-1.6293,-1.5776,-1.5499,-1.5499,-1.5499,-1.5231,-1.4698,-1.5744,-1.6051,-1.5499,-1.6051,-1.5744,-1.4709,-1.4097,-1.3505,0.3673,0.3998,0.423,0.0,0.0,0.0,0.0,0.5671,0.0,0.0,0.0,0.0,0.0,0.0,0.0,0.0,0.0,0.0,0.0,0.0,0.0,0.0,0.0,0.0,0.0,0.0,1.2976,1.2473,1.1926,1.1387,1.0836,1.0404,1.0059,0.9883,0.9707,0.9595,0.9571,0.952,0.9439,0.9319,0.8357,0.7919,0.7878,0.728,0.6641,0.6007,0.5524,0.4913,0.4176,0.3249,0.2453,0.1695,0.0755,-0.0533,-0.1884,-0.2755,-0.3457,-0.4189,-0.5605,-0.6307,-0.6826,-0.8076,-0.8617,-0.891,-0.9465,-1.0064,-1.0956,-1.2735,-1.3389,-1.3732,-1.4201,-1.4687,-1.5096,-1.5231,-1.5688,-1.6064,-1.5676,-1.5676,-1.5632,-1.5152,-1.5466,-1.5632,-1.5152,-1.5454,-1.5776,-1.5776,-1.6194,-1.6337,-1.582,-1.5776,-1.5543,-1.4926,-1.4971,-1.5017,-1.488,-1.4971,-1.5062,-1.5062,-1.4926,-1.488,-1.488,-1.488,-1.4835,-1.4698,-1.4926,-1.4971,-1.488,-1.4971,-1.4926,-1.4709,-1.4097,-1.3732,0.0,0.3503,0.3909,0.3781,0.0,0.0,0.0,0.0,0.0,0.0,0.0,0.0,0.0,0.0,0.0,0.0,0.0,0.0,0.0,0.0,0.0,0.0,0.0,0.0,0.0,0.0,1.2178,1.1613,1.1312,1.102,1.076,1.0167,1.0087,1.0643,0.9967,0.9833,1.0305,1.0041,0.9883,0.9883,0.8797,0.8316,0.8275,0.7398,0.6683,0.6179,0.5567,0.4957,0.4347,0.3476,0.2632,0.1695,0.08,-0.0489,-0.1878,-0.2556,-0.3175,-0.3901,-0.514,-0.5898,-0.6473,-0.7653,-0.8619,-0.9361,-0.971,-1.0517,-1.1657,-1.3321,-1.3815,-1.3956,-1.456,-1.4926,-1.5141,-1.5141,-1.5377,-1.5511,-1.5242,-1.5141,-1.496,-1.4376,-1.4503,-1.4687,-1.4698,-1.4971,-1.5141,-1.5141,-1.5644,-1.582,-1.5231,-1.541,-1.5276,-1.4329,-1.4514,-1.456,-1.4283,-1.4525,-1.4698,-1.4698,-1.4422,-1.4236,-1.4236,-1.4236,-1.4376,-1.4698,-1.4118,-1.3978,-1.4236,-1.3978,-1.3978,-1.4236,-1.3647,-1.3324,0.0,0.0,0.0,0.0,0.0,0.3879,0.0,0.0,0.0,0.6427,0.0,0.0,0.0,0.0,0.0,0.0,0.0,0.0,0.0,0.0,0.0,0.0,0.0,0.0,0.0,0.0,1.114,1.083,1.0548,1.0472,1.064,0.9839,1.0011,1.1379,1.0321,1.0088,1.0882,1.057,1.04,1.0283,0.9319,0.8797,0.8675,0.7648,0.6852,0.6307,0.561,0.5043,0.4522,0.3884,0.2904,0.1695,0.0712,-0.0534,-0.1873,-0.2361,-0.299,-0.375,-0.4685,-0.5445,-0.6183,-0.7286,-0.8724,-1.0012,-1.0012,-1.0922,-1.2267,-1.3474,-1.3815,-1.3956,-1.456,-1.4698,-1.4698,-1.4698,-1.4698,-1.4652,-1.456,-1.4525,-1.4329,-1.3732,-1.3732,-1.392,-1.4294,-1.4433,-1.4525,-1.4525,-1.505,-1.5231,-1.4606,-1.496,-1.4858,-1.3732,-1.4061,-1.4201,-1.3815,-1.4236,-1.456,-1.4698,-1.4236,-1.3956,-1.3956,-1.3956,-1.419,-1.4709,-1.3752,-1.342,-1.3815,-1.3334,-1.3238,-1.3589,-1.3152,-1.2881,0.0,0.0,0.0,0.0,0.2602,0.0,0.0,0.0,0.4091,0.3676,0.0,0.0,0.0,0.0,0.0,0.0,0.0,0.0,0.0,0.0,0.0,0.0,0.0,0.0,0.0,0.0,0.0,1.1096,0.9982,0.9613,1.0401,0.9788,0.9694,1.0338,1.025,1.0299,1.0481,1.0782,1.0725,1.0283,0.9677,0.9159,0.8675,0.807,0.7489,0.6852,0.5776,0.526,0.5135,0.4056,0.2904,0.1784,0.165,0.0223,-0.183,-0.1873,-0.2635,-0.3691,-0.4499,-0.4953,-0.547,-0.6878,-0.885,-1.0669,-1.0669,-1.1642,-1.291,-1.3589,-1.3815,-1.3956,-1.456,-1.4698,-1.4698,-1.4698,-1.4698,-1.456,-1.4003,-1.3909,-1.3732,-1.3104,-1.3409,-1.3637,-1.32,-1.3563,-1.3909,-1.3909,-1.4422,-1.456,-1.3956,-1.3956,-1.3732,-1.3065,-1.3065,-1.3286,-1.3779,-1.3862,-1.4143,-1.4652,-1.4652,-1.4606,-1.4606,-1.4606,-1.4606,-1.4698,-1.4571,-1.4294,-1.3815,-1.3732,-1.3467,-1.3017,-1.2929,-1.2881,0.0,0.0,0.0,0.0,0.0,0.0,0.0,0.0,0.2972,0.0,0.0,0.0,0.0,0.0,0.0,0.0,0.0,0.0,0.0,0.0,0.0,0.0,0.0,0.0,0.0,0.0,0.0,0.0,0.0,0.9388,1.0059,0.9841,1.0091,1.0981,1.0758,1.0797,1.1209,1.1074,1.0764,1.0283,0.9755,0.9199,0.8675,0.816,0.7572,0.6937,0.5776,0.5303,0.5221,0.4056,0.3081,0.2273,0.1917,0.0312,-0.1786,-0.1786,-0.2546,-0.3657,-0.4128,-0.4642,-0.5435,-0.7445,-0.9064,-1.0364,-1.1166,-1.1774,-1.2482,-1.3484,-1.3815,-1.3956,-1.456,-1.4698,-1.4606,-1.4283,-1.419,-1.4097,-1.3862,-1.3815,-1.3826,-1.3931,-1.4154,-1.4236,-1.3978,-1.4154,-1.419,-1.3862,-1.4595,-1.5005,-1.4376,-1.4641,-1.4595,-1.4025,-1.3931,-1.4071,-1.4283,-1.4329,-1.4422,-1.4698,-1.4698,-1.4698,-1.4698,-1.4698,-1.4698,-1.4698,-1.4698,-1.456,-1.4329,-1.3956,-1.3684,-1.342,-1.3055,-1.2881,-0.1982,0.0,0.0,0.0,0.0,0.0,0.0,0.0,0.0,0.0,0.0,0.0,0.0,0.0,0.0,0.0,0.0,0.0,0.0,0.0,0.0,0.0,0.0,0.0,0.0,0.0,0.0,0.0,0.0,0.0,1.0008,1.0096,1.0571,1.155,1.1351,1.1404,1.1799,1.1394,1.0916,1.0283,0.9922,0.9359,0.8683,0.8316,0.7697,0.6937,0.5776,0.5303,0.5221,0.4056,0.3262,0.263,0.2051,0.0534,-0.1337,-0.1695,-0.2455,-0.3433,-0.3822,-0.4595,-0.5767,-0.7535,-0.8901,-0.9961,-1.0965,-1.1516,-1.2012,-1.2986,-1.3389,-1.3637,-1.4107,-1.4212,-1.4154,-1.3862,-1.3815,-1.3862,-1.4003,-1.405,-1.419,-1.4606,-1.4835,-1.488,-1.4744,-1.4698,-1.456,-1.4097,-1.4778,-1.5186,-1.4755,-1.5096,-1.5186,-1.4744,-1.4698,-1.4744,-1.4926,-1.4971,-1.5017,-1.5197,-1.5197,-1.5107,-1.4971,-1.4971,-1.488,-1.4698,-1.4698,-1.4606,-1.4468,-1.4003,-1.3732,-1.3552,-1.3104,-1.2881,0.0,0.0,0.0,-0.1271,0.0,0.0,0.0,0.0,0.0755,0.0,0.0,0.0,0.0,0.0,0.0,0.0,0.0,0.0,0.0,0.0,0.0,0.0,0.0,0.0,0.0,0.0,0.0,0.0,0.0,0.0,1.0319,1.0583,1.0973,1.1575,1.2102,1.2164,1.1811,1.1774,1.1292,1.0283,1.0283,0.9716,0.8716,0.8675,0.8054,0.6937,0.5776,0.5303,0.5221,0.4056,0.3262,0.263,0.2051,0.1025,-0.0178,-0.1382,-0.2184,-0.2826,-0.3556,-0.4914,-0.638,-0.662,-0.8072,-0.9814,-0.9865,-1.0762,-1.1814,-1.1864,-1.2393,-1.292,-1.2978,-1.2978,-1.3113,-1.3684,-1.3815,-1.3956,-1.456,-1.4652,-1.4663,-1.4698,-1.5186,-1.5365,-1.4789,-1.4698,-1.4698,-1.4652,-1.4698,-1.4698,-1.4698,-1.4709,-1.4698,-1.4698,-1.4698,-1.4926,-1.5543,-1.5588,-1.582,-1.6423,-1.6423,-1.6194,-1.5588,-1.5588,-1.5276,-1.4698,-1.4698,-1.4422,-1.3815,-1.3815,-1.3505,-1.2929,-1.2929,-1.2881,0.0,0.0,-0.4363,-0.2961,0.0,0.0,0.0,0.0,0.0,0.0,0.0,0.0,0.0,0.0,0.0,0.0,0.0,0.0,0.0,0.0,0.0,0.0,0.0,0.0,0.0,0.0,0.0,0.0,0.0,0.0,0.0,1.0238,1.0608,1.155,1.1776,1.1838,1.1799,1.1811,1.1292,1.0283,0.9922,0.9399,0.8683,0.8316,0.7731,0.6937,0.5776,0.5303,0.5221,0.4056,0.349,0.3217,0.2186,0.156,0.0936,-0.1069,-0.2184,-0.2879,-0.4222,-0.571,-0.7019,-0.7264,-0.8448,-0.9865,-1.032,-1.1065,-1.1913,-1.2403,-1.2987,-1.3515,-1.3515,-1.3789,-1.4154,-1.4329,-1.4376,-1.456,-1.5186,-1.5276,-1.5531,-1.6262,-1.6574,-1.6773,-1.6915,-1.6957,-1.6579,-1.5443,-1.5644,-1.5876,-1.5876,-1.5876,-1.5876,-1.5876,-1.5876,-1.5976,-1.6194,-1.6194,-1.6281,-1.6479,-1.6151,-1.6008,-1.6194,-1.5421,-1.5096,-1.5276,-1.4926,-1.4606,-1.4376,-1.4003,-1.3684,-1.3505,-1.3113,-1.2881,-0.6102,-0.5776,0.0,-0.4313,-0.4014,0.0,-0.2315,0.0,0.0,0.0,0.0,0.0,0.0,0.0,0.0,0.0,0.0,0.0,0.0,0.0,0.0,0.0,0.0,0.0,0.0,0.0,0.8742,1.0419,0.0,0.0,0.0,0.0,1.0521,1.1261,1.1487,1.1655,1.1755,1.1577,1.1157,1.0544,1.003,0.9399,0.8683,0.8357,0.7739,0.6937,0.5776,0.5303,0.5221,0.4056,0.3581,0.349,0.2275,0.1786,0.1515,-0.0891,-0.2319,-0.3203,-0.4622,-0.5918,-0.7047,-0.7804,-0.8869,-0.9917,-1.0618,-1.1266,-1.1963,-1.2638,-1.3314,-1.3815,-1.3815,-1.4236,-1.4698,-1.4698,-1.5005,-1.5487,-1.6058,-1.6188,-1.6403,-1.7146,-1.7146,-1.7105,-1.7463,-1.7544,-1.7286,-1.6591,-1.6685,-1.6795,-1.6795,-1.6795,-1.6625,-1.6238,-1.6527,-1.671,-1.6522,-1.6522,-1.6522,-1.6522,-1.6139,-1.6008,-1.6194,-1.5421,-1.5096,-1.5276,-1.488,-1.4698,-1.4698,-1.4097,-1.3815,-1.3779,-1.32,-1.2774]}]]